<?xml version="1.0" encoding="utf-8"?>
<gpx xmlns:xsi="http://www.w3.org/2001/XMLSchema-instance" xmlns:xsd="http://www.w3.org/2001/XMLSchema" version="1.1" creator="Shapelink.com" xmlns="http://www.topografix.com/GPX/1/1" xmlns:gpxtpx="http://www.garmin.com/xmlschemas/TrackPointExtension/v1">
  <metadata>
    <name>Cykling - Mtb 22.63 km, 2012-10-08</name>
    <desc></desc>
    <author><name>Alexander Engvall</name></author> 
    <time>2012-10-08T20:54:46Z</time>
  </metadata>
  <trk>
    <name>Cykling - Mtb 22.63 km, 2012-10-08</name>
    <trkseg>
      <trkpt lat="59.4588877102" lon="17.8043143977">
        <ele>120.4</ele>
        <time>2012-10-08T20:54:46Z</time>
      </trkpt>
      <trkpt lat="59.4588527576" lon="17.8043538764">
        <ele>120.4</ele>
        <time>2012-10-08T20:54:48Z</time>
      </trkpt>
      <trkpt lat="59.4588343175" lon="17.8043801956">
        <ele>119.4</ele>
        <time>2012-10-08T20:54:49Z</time>
      </trkpt>
      <trkpt lat="59.4588057352" lon="17.8043945286">
        <ele>118</ele>
        <time>2012-10-08T20:54:50Z</time>
      </trkpt>
      <trkpt lat="59.4587688548" lon="17.8043970432">
        <ele>116.8</ele>
        <time>2012-10-08T20:54:51Z</time>
      </trkpt>
      <trkpt lat="59.4587314716" lon="17.8043942772">
        <ele>115.6</ele>
        <time>2012-10-08T20:54:52Z</time>
      </trkpt>
      <trkpt lat="59.4586907355" lon="17.8043962888">
        <ele>115.6</ele>
        <time>2012-10-08T20:54:53Z</time>
      </trkpt>
      <trkpt lat="59.4584091037" lon="17.8043715622">
        <ele>115.6</ele>
        <time>2012-10-08T20:54:59Z</time>
      </trkpt>
      <trkpt lat="59.4581064333" lon="17.804353625">
        <ele>115.6</ele>
        <time>2012-10-08T20:55:04Z</time>
      </trkpt>
      <trkpt lat="59.4578599216" lon="17.8043831293">
        <ele>115.6</ele>
        <time>2012-10-08T20:55:08Z</time>
      </trkpt>
      <trkpt lat="59.4577672178" lon="17.8044758331">
        <ele>115.6</ele>
        <time>2012-10-08T20:55:10Z</time>
      </trkpt>
      <trkpt lat="59.4576237197" lon="17.804618493">
        <ele>117</ele>
        <time>2012-10-08T20:55:13Z</time>
      </trkpt>
      <trkpt lat="59.4575755237" lon="17.8046686168">
        <ele>118.4</ele>
        <time>2012-10-08T20:55:14Z</time>
      </trkpt>
      <trkpt lat="59.4575264896" lon="17.8047238535">
        <ele>119.8</ele>
        <time>2012-10-08T20:55:15Z</time>
      </trkpt>
      <trkpt lat="59.4574818141" lon="17.8047835326">
        <ele>121.2</ele>
        <time>2012-10-08T20:55:16Z</time>
      </trkpt>
      <trkpt lat="59.4574368033" lon="17.8048450558">
        <ele>122.8</ele>
        <time>2012-10-08T20:55:17Z</time>
      </trkpt>
      <trkpt lat="59.4573927145" lon="17.8049092611">
        <ele>122.8</ele>
        <time>2012-10-08T20:55:18Z</time>
      </trkpt>
      <trkpt lat="59.4572795588" lon="17.8051185572">
        <ele>122.8</ele>
        <time>2012-10-08T20:55:21Z</time>
      </trkpt>
      <trkpt lat="59.4572092347" lon="17.8052700181">
        <ele>122.8</ele>
        <time>2012-10-08T20:55:23Z</time>
      </trkpt>
      <trkpt lat="59.4570907984" lon="17.8054969161">
        <ele>122.8</ele>
        <time>2012-10-08T20:55:26Z</time>
      </trkpt>
      <trkpt lat="59.457030784" lon="17.805515943">
        <ele>122.8</ele>
        <time>2012-10-08T20:55:27Z</time>
      </trkpt>
      <trkpt lat="59.4568600447" lon="17.805423826">
        <ele>122.8</ele>
        <time>2012-10-08T20:55:30Z</time>
      </trkpt>
      <trkpt lat="59.4564364235" lon="17.8051629812">
        <ele>122.8</ele>
        <time>2012-10-08T20:55:37Z</time>
      </trkpt>
      <trkpt lat="59.4560676199" lon="17.8049279528">
        <ele>122.8</ele>
        <time>2012-10-08T20:55:43Z</time>
      </trkpt>
      <trkpt lat="59.4556967208" lon="17.8046084347">
        <ele>122.8</ele>
        <time>2012-10-08T20:55:49Z</time>
      </trkpt>
      <trkpt lat="59.4551840838" lon="17.804300819">
        <ele>122.2</ele>
        <time>2012-10-08T20:55:57Z</time>
      </trkpt>
      <trkpt lat="59.4551135082" lon="17.8043010705">
        <ele>121.8</ele>
        <time>2012-10-08T20:55:58Z</time>
      </trkpt>
      <trkpt lat="59.4550433517" lon="17.8043076083">
        <ele>121.4</ele>
        <time>2012-10-08T20:55:59Z</time>
      </trkpt>
      <trkpt lat="59.4549711836" lon="17.8043254618">
        <ele>121</ele>
        <time>2012-10-08T20:56:00Z</time>
      </trkpt>
      <trkpt lat="59.4548988478" lon="17.8043520324">
        <ele>120.6</ele>
        <time>2012-10-08T20:56:01Z</time>
      </trkpt>
      <trkpt lat="59.4547554335" lon="17.8044333368">
        <ele>120.2</ele>
        <time>2012-10-08T20:56:03Z</time>
      </trkpt>
      <trkpt lat="59.4546256817" lon="17.8045366018">
        <ele>119.2</ele>
        <time>2012-10-08T20:56:04Z</time>
      </trkpt>
      <trkpt lat="59.4546256817" lon="17.8045366018">
        <ele>119.2</ele>
        <time>2012-10-08T20:56:05Z</time>
      </trkpt>
      <trkpt lat="59.4545648291" lon="17.8046004719">
        <ele>118.6</ele>
        <time>2012-10-08T20:56:06Z</time>
      </trkpt>
      <trkpt lat="59.4545057367" lon="17.804678675">
        <ele>118.2</ele>
        <time>2012-10-08T20:56:07Z</time>
      </trkpt>
      <trkpt lat="59.4544479854" lon="17.804759728">
        <ele>118.2</ele>
        <time>2012-10-08T20:56:08Z</time>
      </trkpt>
      <trkpt lat="59.4542775814" lon="17.8050088381">
        <ele>118.2</ele>
        <time>2012-10-08T20:56:11Z</time>
      </trkpt>
      <trkpt lat="59.4541169841" lon="17.8051995263">
        <ele>118.2</ele>
        <time>2012-10-08T20:56:14Z</time>
      </trkpt>
      <trkpt lat="59.4540668604" lon="17.8051745483">
        <ele>118.2</ele>
        <time>2012-10-08T20:56:15Z</time>
      </trkpt>
      <trkpt lat="59.4540287227" lon="17.8050359954">
        <ele>118.2</ele>
        <time>2012-10-08T20:56:17Z</time>
      </trkpt>
      <trkpt lat="59.4540910841" lon="17.8049162181">
        <ele>117.8</ele>
        <time>2012-10-08T20:56:19Z</time>
      </trkpt>
      <trkpt lat="59.4541333289" lon="17.8048686927">
        <ele>117.4</ele>
        <time>2012-10-08T20:56:20Z</time>
      </trkpt>
      <trkpt lat="59.4541821953" lon="17.8048228437">
        <ele>117</ele>
        <time>2012-10-08T20:56:21Z</time>
      </trkpt>
      <trkpt lat="59.4542308103" lon="17.8047659306">
        <ele>116.6</ele>
        <time>2012-10-08T20:56:22Z</time>
      </trkpt>
      <trkpt lat="59.4542812694" lon="17.804700468">
        <ele>116.2</ele>
        <time>2012-10-08T20:56:23Z</time>
      </trkpt>
      <trkpt lat="59.4543369252" lon="17.8046332452">
        <ele>116.2</ele>
        <time>2012-10-08T20:56:24Z</time>
      </trkpt>
      <trkpt lat="59.4543997056" lon="17.8045747395">
        <ele>116.2</ele>
        <time>2012-10-08T20:56:25Z</time>
      </trkpt>
      <trkpt lat="59.4545988596" lon="17.8043885775">
        <ele>116.2</ele>
        <time>2012-10-08T20:56:28Z</time>
      </trkpt>
      <trkpt lat="59.454838079" lon="17.8042467557">
        <ele>115.8</ele>
        <time>2012-10-08T20:56:31Z</time>
      </trkpt>
      <trkpt lat="59.4549089061" lon="17.8041758449">
        <ele>114.8</ele>
        <time>2012-10-08T20:56:32Z</time>
      </trkpt>
      <trkpt lat="59.4549659868" lon="17.8040815485">
        <ele>114.4</ele>
        <time>2012-10-08T20:56:33Z</time>
      </trkpt>
      <trkpt lat="59.4549982571" lon="17.8039453426">
        <ele>113.8</ele>
        <time>2012-10-08T20:56:34Z</time>
      </trkpt>
      <trkpt lat="59.4550016937" lon="17.8037693227">
        <ele>113.2</ele>
        <time>2012-10-08T20:56:35Z</time>
      </trkpt>
      <trkpt lat="59.4549801522" lon="17.8036124974">
        <ele>112.6</ele>
        <time>2012-10-08T20:56:36Z</time>
      </trkpt>
      <trkpt lat="59.4549692557" lon="17.8034639701">
        <ele>112</ele>
        <time>2012-10-08T20:56:37Z</time>
      </trkpt>
      <trkpt lat="59.4549480495" lon="17.8033158619">
        <ele>111.4</ele>
        <time>2012-10-08T20:56:38Z</time>
      </trkpt>
      <trkpt lat="59.4548785636" lon="17.8030661651">
        <ele>111.4</ele>
        <time>2012-10-08T20:56:40Z</time>
      </trkpt>
      <trkpt lat="59.4548465447" lon="17.8029625648">
        <ele>111.4</ele>
        <time>2012-10-08T20:56:41Z</time>
      </trkpt>
      <trkpt lat="59.4547856083" lon="17.8027986987">
        <ele>111.4</ele>
        <time>2012-10-08T20:56:43Z</time>
      </trkpt>
      <trkpt lat="59.4547377477" lon="17.8026557035">
        <ele>111.4</ele>
        <time>2012-10-08T20:56:45Z</time>
      </trkpt>
      <trkpt lat="59.4546906414" lon="17.8025430507">
        <ele>111.4</ele>
        <time>2012-10-08T20:56:47Z</time>
      </trkpt>
      <trkpt lat="59.4546035534" lon="17.8024760794">
        <ele>111.4</ele>
        <time>2012-10-08T20:56:49Z</time>
      </trkpt>
      <trkpt lat="59.4544529307" lon="17.8024705473">
        <ele>111.4</ele>
        <time>2012-10-08T20:56:52Z</time>
      </trkpt>
      <trkpt lat="59.4544112727" lon="17.8025065895">
        <ele>111.4</ele>
        <time>2012-10-08T20:56:53Z</time>
      </trkpt>
      <trkpt lat="59.454363412" lon="17.8027237645">
        <ele>111.4</ele>
        <time>2012-10-08T20:56:56Z</time>
      </trkpt>
      <trkpt lat="59.4542933393" lon="17.8030647402">
        <ele>111.4</ele>
        <time>2012-10-08T20:57:00Z</time>
      </trkpt>
      <trkpt lat="59.4542681936" lon="17.8031355673">
        <ele>111.8</ele>
        <time>2012-10-08T20:57:01Z</time>
      </trkpt>
      <trkpt lat="59.4542405334" lon="17.80319357">
        <ele>112.2</ele>
        <time>2012-10-08T20:57:02Z</time>
      </trkpt>
      <trkpt lat="59.4542108614" lon="17.8032599547">
        <ele>112.6</ele>
        <time>2012-10-08T20:57:03Z</time>
      </trkpt>
      <trkpt lat="59.4541806028" lon="17.8033172869">
        <ele>113</ele>
        <time>2012-10-08T20:57:04Z</time>
      </trkpt>
      <trkpt lat="59.4541482486" lon="17.8033719368">
        <ele>113.4</ele>
        <time>2012-10-08T20:57:05Z</time>
      </trkpt>
      <trkpt lat="59.4541101948" lon="17.8034192108">
        <ele>113.4</ele>
        <time>2012-10-08T20:57:06Z</time>
      </trkpt>
      <trkpt lat="59.4540696264" lon="17.8034550853">
        <ele>114</ele>
        <time>2012-10-08T20:57:07Z</time>
      </trkpt>
      <trkpt lat="59.4540285551" lon="17.8034845896">
        <ele>114.4</ele>
        <time>2012-10-08T20:57:08Z</time>
      </trkpt>
      <trkpt lat="59.4539880705" lon="17.8035122498">
        <ele>114.8</ele>
        <time>2012-10-08T20:57:09Z</time>
      </trkpt>
      <trkpt lat="59.4539477536" lon="17.8035316959">
        <ele>115.2</ele>
        <time>2012-10-08T20:57:10Z</time>
      </trkpt>
      <trkpt lat="59.4539034972" lon="17.8035482082">
        <ele>115.6</ele>
        <time>2012-10-08T20:57:11Z</time>
      </trkpt>
      <trkpt lat="59.4538613362" lon="17.8035449393">
        <ele>115.6</ele>
        <time>2012-10-08T20:57:12Z</time>
      </trkpt>
      <trkpt lat="59.4537732424" lon="17.8035637985">
        <ele>115.6</ele>
        <time>2012-10-08T20:57:14Z</time>
      </trkpt>
      <trkpt lat="59.4537278963" lon="17.8035766228">
        <ele>116</ele>
        <time>2012-10-08T20:57:15Z</time>
      </trkpt>
      <trkpt lat="59.4536842267" lon="17.8035839989">
        <ele>116.4</ele>
        <time>2012-10-08T20:57:16Z</time>
      </trkpt>
      <trkpt lat="59.4536401379" lon="17.8035849209">
        <ele>116.8</ele>
        <time>2012-10-08T20:57:17Z</time>
      </trkpt>
      <trkpt lat="59.4535966358" lon="17.8035881899">
        <ele>117.4</ele>
        <time>2012-10-08T20:57:18Z</time>
      </trkpt>
      <trkpt lat="59.4535506192" lon="17.8035952307">
        <ele>117.8</ele>
        <time>2012-10-08T20:57:19Z</time>
      </trkpt>
      <trkpt lat="59.4534668002" lon="17.8036133356">
        <ele>117.8</ele>
        <time>2012-10-08T20:57:21Z</time>
      </trkpt>
      <trkpt lat="59.4532005072" lon="17.8036449353">
        <ele>117.8</ele>
        <time>2012-10-08T20:57:27Z</time>
      </trkpt>
      <trkpt lat="59.4529254132" lon="17.8037312689">
        <ele>117.8</ele>
        <time>2012-10-08T20:57:32Z</time>
      </trkpt>
      <trkpt lat="59.4528693383" lon="17.8037665567">
        <ele>117.8</ele>
        <time>2012-10-08T20:57:33Z</time>
      </trkpt>
      <trkpt lat="59.4527110881" lon="17.8039926165">
        <ele>117.8</ele>
        <time>2012-10-08T20:57:36Z</time>
      </trkpt>
      <trkpt lat="59.4525294523" lon="17.8043149006">
        <ele>117.2</ele>
        <time>2012-10-08T20:57:39Z</time>
      </trkpt>
      <trkpt lat="59.4524562783" lon="17.8044029944">
        <ele>116.8</ele>
        <time>2012-10-08T20:57:40Z</time>
      </trkpt>
      <trkpt lat="59.4523792486" lon="17.8044921778">
        <ele>116.4</ele>
        <time>2012-10-08T20:57:41Z</time>
      </trkpt>
      <trkpt lat="59.4523065776" lon="17.80457541">
        <ele>116</ele>
        <time>2012-10-08T20:57:42Z</time>
      </trkpt>
      <trkpt lat="59.4522395224" lon="17.8046567145">
        <ele>115.6</ele>
        <time>2012-10-08T20:57:43Z</time>
      </trkpt>
      <trkpt lat="59.4520459843" lon="17.8048689442">
        <ele>115.2</ele>
        <time>2012-10-08T20:57:46Z</time>
      </trkpt>
      <trkpt lat="59.451983623" lon="17.804930132">
        <ele>114.8</ele>
        <time>2012-10-08T20:57:47Z</time>
      </trkpt>
      <trkpt lat="59.4519254526" lon="17.8049945889">
        <ele>114.4</ele>
        <time>2012-10-08T20:57:48Z</time>
      </trkpt>
      <trkpt lat="59.4518677013" lon="17.8050606382">
        <ele>114</ele>
        <time>2012-10-08T20:57:49Z</time>
      </trkpt>
      <trkpt lat="59.4518118778" lon="17.8051247598">
        <ele>113.6</ele>
        <time>2012-10-08T20:57:50Z</time>
      </trkpt>
      <trkpt lat="59.4517003986" lon="17.805242274">
        <ele>113.6</ele>
        <time>2012-10-08T20:57:52Z</time>
      </trkpt>
      <trkpt lat="59.4513180163" lon="17.8056831619">
        <ele>113.6</ele>
        <time>2012-10-08T20:57:59Z</time>
      </trkpt>
      <trkpt lat="59.4512379691" lon="17.8057887739">
        <ele>113.6</ele>
        <time>2012-10-08T20:58:01Z</time>
      </trkpt>
      <trkpt lat="59.451186169" lon="17.8059326073">
        <ele>113.6</ele>
        <time>2012-10-08T20:58:03Z</time>
      </trkpt>
      <trkpt lat="59.4511344527" lon="17.8061953799">
        <ele>113.6</ele>
        <time>2012-10-08T20:58:06Z</time>
      </trkpt>
      <trkpt lat="59.4511191138" lon="17.8063723218">
        <ele>113.6</ele>
        <time>2012-10-08T20:58:08Z</time>
      </trkpt>
      <trkpt lat="59.451110229" lon="17.8064542967">
        <ele>114.4</ele>
        <time>2012-10-08T20:58:09Z</time>
      </trkpt>
      <trkpt lat="59.4510978238" lon="17.8065399598">
        <ele>115</ele>
        <time>2012-10-08T20:58:10Z</time>
      </trkpt>
      <trkpt lat="59.4510866758" lon="17.8066288917">
        <ele>115.4</ele>
        <time>2012-10-08T20:58:11Z</time>
      </trkpt>
      <trkpt lat="59.4510664755" lon="17.8067346713">
        <ele>115.8</ele>
        <time>2012-10-08T20:58:12Z</time>
      </trkpt>
      <trkpt lat="59.4510471133" lon="17.8068431331">
        <ele>115.8</ele>
        <time>2012-10-08T20:58:13Z</time>
      </trkpt>
      <trkpt lat="59.4509122485" lon="17.8074235797">
        <ele>115.8</ele>
        <time>2012-10-08T20:58:18Z</time>
      </trkpt>
      <trkpt lat="59.4508766254" lon="17.8075238272">
        <ele>115.8</ele>
        <time>2012-10-08T20:58:19Z</time>
      </trkpt>
      <trkpt lat="59.4507106638" lon="17.8079745219">
        <ele>115.8</ele>
        <time>2012-10-08T20:58:24Z</time>
      </trkpt>
      <trkpt lat="59.4506516552" lon="17.8081358735">
        <ele>115.8</ele>
        <time>2012-10-08T20:58:26Z</time>
      </trkpt>
      <trkpt lat="59.4504883758" lon="17.8086579821">
        <ele>115.8</ele>
        <time>2012-10-08T20:58:33Z</time>
      </trkpt>
      <trkpt lat="59.4504608832" lon="17.8087317428">
        <ele>115.8</ele>
        <time>2012-10-08T20:58:34Z</time>
      </trkpt>
      <trkpt lat="59.4504079096" lon="17.8088675296">
        <ele>116.2</ele>
        <time>2012-10-08T20:58:36Z</time>
      </trkpt>
      <trkpt lat="59.4503828477" lon="17.8089425476">
        <ele>116.6</ele>
        <time>2012-10-08T20:58:37Z</time>
      </trkpt>
      <trkpt lat="59.4503570314" lon="17.8090172303">
        <ele>117.2</ele>
        <time>2012-10-08T20:58:38Z</time>
      </trkpt>
      <trkpt lat="59.4503359091" lon="17.8091001273">
        <ele>117.6</ele>
        <time>2012-10-08T20:58:39Z</time>
      </trkpt>
      <trkpt lat="59.4503064886" lon="17.8091800906">
        <ele>118</ele>
        <time>2012-10-08T20:58:40Z</time>
      </trkpt>
      <trkpt lat="59.4502238431" lon="17.8094467189">
        <ele>118</ele>
        <time>2012-10-08T20:58:43Z</time>
      </trkpt>
      <trkpt lat="59.4500985336" lon="17.8098445238">
        <ele>118.4</ele>
        <time>2012-10-08T20:58:48Z</time>
      </trkpt>
      <trkpt lat="59.4500665148" lon="17.809927337">
        <ele>118.8</ele>
        <time>2012-10-08T20:58:49Z</time>
      </trkpt>
      <trkpt lat="59.4500353341" lon="17.8100132515">
        <ele>119.2</ele>
        <time>2012-10-08T20:58:50Z</time>
      </trkpt>
      <trkpt lat="59.4500074224" lon="17.8101117388">
        <ele>119.6</ele>
        <time>2012-10-08T20:58:51Z</time>
      </trkpt>
      <trkpt lat="59.4499755712" lon="17.8101984077">
        <ele>120.2</ele>
        <time>2012-10-08T20:58:52Z</time>
      </trkpt>
      <trkpt lat="59.4499136289" lon="17.8103820551">
        <ele>120.2</ele>
        <time>2012-10-08T20:58:54Z</time>
      </trkpt>
      <trkpt lat="59.4498616612" lon="17.8105640261">
        <ele>120.6</ele>
        <time>2012-10-08T20:58:56Z</time>
      </trkpt>
      <trkpt lat="59.4498314863" lon="17.8106553888">
        <ele>121</ele>
        <time>2012-10-08T20:58:57Z</time>
      </trkpt>
      <trkpt lat="59.4498032393" lon="17.8107386211">
        <ele>121.4</ele>
        <time>2012-10-08T20:58:58Z</time>
      </trkpt>
      <trkpt lat="59.4497770878" lon="17.8108263796">
        <ele>122.2</ele>
        <time>2012-10-08T20:58:59Z</time>
      </trkpt>
      <trkpt lat="59.449750601" lon="17.8109141381">
        <ele>122.2</ele>
        <time>2012-10-08T20:59:00Z</time>
      </trkpt>
      <trkpt lat="59.4496362719" lon="17.8113474823">
        <ele>122.6</ele>
        <time>2012-10-08T20:59:05Z</time>
      </trkpt>
      <trkpt lat="59.4496124673" lon="17.8114297926">
        <ele>123</ele>
        <time>2012-10-08T20:59:06Z</time>
      </trkpt>
      <trkpt lat="59.4495851423" lon="17.8115108456">
        <ele>123.6</ele>
        <time>2012-10-08T20:59:07Z</time>
      </trkpt>
      <trkpt lat="59.4495577335" lon="17.8115961733">
        <ele>124</ele>
        <time>2012-10-08T20:59:08Z</time>
      </trkpt>
      <trkpt lat="59.4495290674" lon="17.8116694311">
        <ele>124.4</ele>
        <time>2012-10-08T20:59:09Z</time>
      </trkpt>
      <trkpt lat="59.4494126428" lon="17.8119955708">
        <ele>124.4</ele>
        <time>2012-10-08T20:59:13Z</time>
      </trkpt>
      <trkpt lat="59.4492806278" lon="17.8123857483">
        <ele>124.4</ele>
        <time>2012-10-08T20:59:18Z</time>
      </trkpt>
      <trkpt lat="59.4491991558" lon="17.8126444975">
        <ele>124.8</ele>
        <time>2012-10-08T20:59:21Z</time>
      </trkpt>
      <trkpt lat="59.4491694839" lon="17.8127258858">
        <ele>125.4</ele>
        <time>2012-10-08T20:59:22Z</time>
      </trkpt>
      <trkpt lat="59.4491361239" lon="17.8128049271">
        <ele>125.8</ele>
        <time>2012-10-08T20:59:23Z</time>
      </trkpt>
      <trkpt lat="59.4491029316" lon="17.8128881594">
        <ele>126.6</ele>
        <time>2012-10-08T20:59:24Z</time>
      </trkpt>
      <trkpt lat="59.4488713397" lon="17.8133814342">
        <ele>126.6</ele>
        <time>2012-10-08T20:59:30Z</time>
      </trkpt>
      <trkpt lat="59.4487834135" lon="17.8135401874">
        <ele>126.6</ele>
        <time>2012-10-08T20:59:32Z</time>
      </trkpt>
      <trkpt lat="59.4486731077" lon="17.8137736233">
        <ele>126.6</ele>
        <time>2012-10-08T20:59:35Z</time>
      </trkpt>
      <trkpt lat="59.4484566033" lon="17.8142189536">
        <ele>126.6</ele>
        <time>2012-10-08T20:59:41Z</time>
      </trkpt>
      <trkpt lat="59.4481759772" lon="17.8147103006">
        <ele>126.6</ele>
        <time>2012-10-08T20:59:48Z</time>
      </trkpt>
      <trkpt lat="59.4479796731" lon="17.815018084">
        <ele>126.6</ele>
        <time>2012-10-08T20:59:53Z</time>
      </trkpt>
      <trkpt lat="59.4479370931" lon="17.8149914295">
        <ele>126.6</ele>
        <time>2012-10-08T20:59:54Z</time>
      </trkpt>
      <trkpt lat="59.4478919985" lon="17.8149418925">
        <ele>126.6</ele>
        <time>2012-10-08T20:59:55Z</time>
      </trkpt>
      <trkpt lat="59.44778295" lon="17.8148469256">
        <ele>126.6</ele>
        <time>2012-10-08T20:59:57Z</time>
      </trkpt>
      <trkpt lat="59.4476754102" lon="17.8147873303">
        <ele>126.6</ele>
        <time>2012-10-08T20:59:59Z</time>
      </trkpt>
      <trkpt lat="59.4473408885" lon="17.8146938721">
        <ele>126.6</ele>
        <time>2012-10-08T21:00:05Z</time>
      </trkpt>
      <trkpt lat="59.4469030181" lon="17.8145520503">
        <ele>126.6</ele>
        <time>2012-10-08T21:00:13Z</time>
      </trkpt>
      <trkpt lat="59.446548799" lon="17.8143574226">
        <ele>126.6</ele>
        <time>2012-10-08T21:00:20Z</time>
      </trkpt>
      <trkpt lat="59.4464997649" lon="17.8143585961">
        <ele>126.6</ele>
        <time>2012-10-08T21:00:21Z</time>
      </trkpt>
      <trkpt lat="59.4464171194" lon="17.8144538145">
        <ele>126.6</ele>
        <time>2012-10-08T21:00:23Z</time>
      </trkpt>
      <trkpt lat="59.4462260958" lon="17.8146108075">
        <ele>126.6</ele>
        <time>2012-10-08T21:00:27Z</time>
      </trkpt>
      <trkpt lat="59.4461719488" lon="17.8146337739">
        <ele>126.6</ele>
        <time>2012-10-08T21:00:28Z</time>
      </trkpt>
      <trkpt lat="59.4461232499" lon="17.8146689778">
        <ele>126.6</ele>
        <time>2012-10-08T21:00:29Z</time>
      </trkpt>
      <trkpt lat="59.4460453821" lon="17.8147691415">
        <ele>126.6</ele>
        <time>2012-10-08T21:00:31Z</time>
      </trkpt>
      <trkpt lat="59.4460102619" lon="17.8149244582">
        <ele>126.2</ele>
        <time>2012-10-08T21:00:33Z</time>
      </trkpt>
      <trkpt lat="59.445998192" lon="17.8149910104">
        <ele>125.6</ele>
        <time>2012-10-08T21:00:34Z</time>
      </trkpt>
      <trkpt lat="59.4459794165" lon="17.815063933">
        <ele>125.2</ele>
        <time>2012-10-08T21:00:35Z</time>
      </trkpt>
      <trkpt lat="59.4459586294" lon="17.8151462432">
        <ele>124.6</ele>
        <time>2012-10-08T21:00:36Z</time>
      </trkpt>
      <trkpt lat="59.4459215814" lon="17.8152339179">
        <ele>123.6</ele>
        <time>2012-10-08T21:00:37Z</time>
      </trkpt>
      <trkpt lat="59.4458889758" lon="17.8153432179">
        <ele>123</ele>
        <time>2012-10-08T21:00:38Z</time>
      </trkpt>
      <trkpt lat="59.4458489103" lon="17.8154507577">
        <ele>122.4</ele>
        <time>2012-10-08T21:00:39Z</time>
      </trkpt>
      <trkpt lat="59.4458094316" lon="17.815558968">
        <ele>121.8</ele>
        <time>2012-10-08T21:00:40Z</time>
      </trkpt>
      <trkpt lat="59.4456896542" lon="17.8158353192">
        <ele>121.8</ele>
        <time>2012-10-08T21:00:43Z</time>
      </trkpt>
      <trkpt lat="59.4455775044" lon="17.8160708506">
        <ele>121.4</ele>
        <time>2012-10-08T21:00:46Z</time>
      </trkpt>
      <trkpt lat="59.4455344215" lon="17.8161205553">
        <ele>121</ele>
        <time>2012-10-08T21:00:47Z</time>
      </trkpt>
      <trkpt lat="59.4454910032" lon="17.8161789771">
        <ele>120.6</ele>
        <time>2012-10-08T21:00:48Z</time>
      </trkpt>
      <trkpt lat="59.4454426397" lon="17.816235555">
        <ele>120.2</ele>
        <time>2012-10-08T21:00:49Z</time>
      </trkpt>
      <trkpt lat="59.4453968745" lon="17.8162963237">
        <ele>119.8</ele>
        <time>2012-10-08T21:00:50Z</time>
      </trkpt>
      <trkpt lat="59.4452617583" lon="17.8164675659">
        <ele>119.8</ele>
        <time>2012-10-08T21:00:53Z</time>
      </trkpt>
      <trkpt lat="59.445206773" lon="17.8165164324">
        <ele>119.8</ele>
        <time>2012-10-08T21:00:54Z</time>
      </trkpt>
      <trkpt lat="59.4448466027" lon="17.8167309252">
        <ele>119.8</ele>
        <time>2012-10-08T21:01:00Z</time>
      </trkpt>
      <trkpt lat="59.4444965746" lon="17.8169185122">
        <ele>119.8</ele>
        <time>2012-10-08T21:01:06Z</time>
      </trkpt>
      <trkpt lat="59.4441790682" lon="17.8171831287">
        <ele>119.8</ele>
        <time>2012-10-08T21:01:12Z</time>
      </trkpt>
      <trkpt lat="59.4441291959" lon="17.8172376949">
        <ele>119.8</ele>
        <time>2012-10-08T21:01:13Z</time>
      </trkpt>
      <trkpt lat="59.4439359093" lon="17.8174557081">
        <ele>119.8</ele>
        <time>2012-10-08T21:01:17Z</time>
      </trkpt>
      <trkpt lat="59.4438369191" lon="17.8175747311">
        <ele>119.8</ele>
        <time>2012-10-08T21:01:19Z</time>
      </trkpt>
      <trkpt lat="59.443687386" lon="17.8177265273">
        <ele>119.8</ele>
        <time>2012-10-08T21:01:22Z</time>
      </trkpt>
      <trkpt lat="59.443632736" lon="17.8177698617">
        <ele>119.8</ele>
        <time>2012-10-08T21:01:23Z</time>
      </trkpt>
      <trkpt lat="59.4434715521" lon="17.8179372483">
        <ele>119.8</ele>
        <time>2012-10-08T21:01:26Z</time>
      </trkpt>
      <trkpt lat="59.4431491842" lon="17.8182856839">
        <ele>119.8</ele>
        <time>2012-10-08T21:01:32Z</time>
      </trkpt>
      <trkpt lat="59.4430582406" lon="17.8183959897">
        <ele>119.8</ele>
        <time>2012-10-08T21:01:34Z</time>
      </trkpt>
      <trkpt lat="59.4429707335" lon="17.8185096482">
        <ele>119.8</ele>
        <time>2012-10-08T21:01:36Z</time>
      </trkpt>
      <trkpt lat="59.4429257227" lon="17.8185571736">
        <ele>119.8</ele>
        <time>2012-10-08T21:01:37Z</time>
      </trkpt>
      <trkpt lat="59.4427765249" lon="17.818711652">
        <ele>119.8</ele>
        <time>2012-10-08T21:01:40Z</time>
      </trkpt>
      <trkpt lat="59.4426612738" lon="17.8187763603">
        <ele>119.8</ele>
        <time>2012-10-08T21:01:42Z</time>
      </trkpt>
      <trkpt lat="59.4425423346" lon="17.8188450081">
        <ele>120.2</ele>
        <time>2012-10-08T21:01:44Z</time>
      </trkpt>
      <trkpt lat="59.4424839966" lon="17.8188784518">
        <ele>120.8</ele>
        <time>2012-10-08T21:01:45Z</time>
      </trkpt>
      <trkpt lat="59.4424304363" lon="17.8189080399">
        <ele>121.2</ele>
        <time>2012-10-08T21:01:46Z</time>
      </trkpt>
      <trkpt lat="59.4423837491" lon="17.8189473511">
        <ele>121.6</ele>
        <time>2012-10-08T21:01:47Z</time>
      </trkpt>
      <trkpt lat="59.4423355531" lon="17.8189819683">
        <ele>122</ele>
        <time>2012-10-08T21:01:48Z</time>
      </trkpt>
      <trkpt lat="59.4422917996" lon="17.8190388814">
        <ele>122</ele>
        <time>2012-10-08T21:01:49Z</time>
      </trkpt>
      <trkpt lat="59.4421459546" lon="17.8191299088">
        <ele>122</ele>
        <time>2012-10-08T21:01:52Z</time>
      </trkpt>
      <trkpt lat="59.4417809228" lon="17.8192862313">
        <ele>122</ele>
        <time>2012-10-08T21:01:59Z</time>
      </trkpt>
      <trkpt lat="59.4414655957" lon="17.819369715">
        <ele>122</ele>
        <time>2012-10-08T21:02:05Z</time>
      </trkpt>
      <trkpt lat="59.4411311579" lon="17.8194469123">
        <ele>122</ele>
        <time>2012-10-08T21:02:11Z</time>
      </trkpt>
      <trkpt lat="59.4410794416" lon="17.8194519414">
        <ele>122</ele>
        <time>2012-10-08T21:02:12Z</time>
      </trkpt>
      <trkpt lat="59.4409739135" lon="17.8194756622">
        <ele>122</ele>
        <time>2012-10-08T21:02:14Z</time>
      </trkpt>
      <trkpt lat="59.4408754262" lon="17.8195227685">
        <ele>122</ele>
        <time>2012-10-08T21:02:16Z</time>
      </trkpt>
      <trkpt lat="59.4405781202" lon="17.8197342438">
        <ele>122</ele>
        <time>2012-10-08T21:02:22Z</time>
      </trkpt>
      <trkpt lat="59.4404843267" lon="17.8198178114">
        <ele>122</ele>
        <time>2012-10-08T21:02:24Z</time>
      </trkpt>
      <trkpt lat="59.4403494619" lon="17.819977738">
        <ele>122</ele>
        <time>2012-10-08T21:02:27Z</time>
      </trkpt>
      <trkpt lat="59.4403062113" lon="17.8200290353">
        <ele>122.4</ele>
        <time>2012-10-08T21:02:28Z</time>
      </trkpt>
      <trkpt lat="59.4402587698" lon="17.8200830147">
        <ele>122.8</ele>
        <time>2012-10-08T21:02:29Z</time>
      </trkpt>
      <trkpt lat="59.4402124179" lon="17.8201343119">
        <ele>123.2</ele>
        <time>2012-10-08T21:02:30Z</time>
      </trkpt>
      <trkpt lat="59.4401696702" lon="17.8201942425">
        <ele>123.6</ele>
        <time>2012-10-08T21:02:31Z</time>
      </trkpt>
      <trkpt lat="59.4401312811" lon="17.8202499821">
        <ele>124</ele>
        <time>2012-10-08T21:02:32Z</time>
      </trkpt>
      <trkpt lat="59.4400887849" lon="17.8202933166">
        <ele>124</ele>
        <time>2012-10-08T21:02:33Z</time>
      </trkpt>
      <trkpt lat="59.4399956619" lon="17.8203732799">
        <ele>124</ele>
        <time>2012-10-08T21:02:35Z</time>
      </trkpt>
      <trkpt lat="59.4397922332" lon="17.8205047081">
        <ele>124</ele>
        <time>2012-10-08T21:02:39Z</time>
      </trkpt>
      <trkpt lat="59.4396820951" lon="17.8205409179">
        <ele>124</ele>
        <time>2012-10-08T21:02:41Z</time>
      </trkpt>
      <trkpt lat="59.4395126969" lon="17.8205857611">
        <ele>124</ele>
        <time>2012-10-08T21:02:44Z</time>
      </trkpt>
      <trkpt lat="59.4393914946" lon="17.820623312">
        <ele>124</ele>
        <time>2012-10-08T21:02:46Z</time>
      </trkpt>
      <trkpt lat="59.4391373554" lon="17.8207031077">
        <ele>124</ele>
        <time>2012-10-08T21:02:50Z</time>
      </trkpt>
      <trkpt lat="59.4389967909" lon="17.8207873457">
        <ele>124</ele>
        <time>2012-10-08T21:02:52Z</time>
      </trkpt>
      <trkpt lat="59.4388556397" lon="17.8209107273">
        <ele>123.6</ele>
        <time>2012-10-08T21:02:54Z</time>
      </trkpt>
      <trkpt lat="59.4387874111" lon="17.8209736754">
        <ele>123</ele>
        <time>2012-10-08T21:02:55Z</time>
      </trkpt>
      <trkpt lat="59.4387176736" lon="17.8210308399">
        <ele>122.6</ele>
        <time>2012-10-08T21:02:56Z</time>
      </trkpt>
      <trkpt lat="59.4386518757" lon="17.8210835621">
        <ele>122.2</ele>
        <time>2012-10-08T21:02:57Z</time>
      </trkpt>
      <trkpt lat="59.4385928672" lon="17.8211413972">
        <ele>121.6</ele>
        <time>2012-10-08T21:02:58Z</time>
      </trkpt>
      <trkpt lat="59.4384722516" lon="17.8212349392">
        <ele>121.6</ele>
        <time>2012-10-08T21:03:00Z</time>
      </trkpt>
      <trkpt lat="59.438407711" lon="17.8212639406">
        <ele>121.6</ele>
        <time>2012-10-08T21:03:01Z</time>
      </trkpt>
      <trkpt lat="59.43824703" lon="17.8214064329">
        <ele>121.6</ele>
        <time>2012-10-08T21:03:04Z</time>
      </trkpt>
      <trkpt lat="59.4380884444" lon="17.821549009">
        <ele>121.6</ele>
        <time>2012-10-08T21:03:07Z</time>
      </trkpt>
      <trkpt lat="59.4379806532" lon="17.8216562135">
        <ele>121.2</ele>
        <time>2012-10-08T21:03:09Z</time>
      </trkpt>
      <trkpt lat="59.4379332116" lon="17.8217104444">
        <ele>120.8</ele>
        <time>2012-10-08T21:03:10Z</time>
      </trkpt>
      <trkpt lat="59.4378829202" lon="17.8217658488">
        <ele>120.4</ele>
        <time>2012-10-08T21:03:11Z</time>
      </trkpt>
      <trkpt lat="59.4378286893" lon="17.8217936767">
        <ele>120</ele>
        <time>2012-10-08T21:03:12Z</time>
      </trkpt>
      <trkpt lat="59.4377716086" lon="17.8218260308">
        <ele>119.6</ele>
        <time>2012-10-08T21:03:13Z</time>
      </trkpt>
      <trkpt lat="59.4377198923" lon="17.8218717121">
        <ele>119.6</ele>
        <time>2012-10-08T21:03:14Z</time>
      </trkpt>
      <trkpt lat="59.4374773201" lon="17.8221205708">
        <ele>119.6</ele>
        <time>2012-10-08T21:03:19Z</time>
      </trkpt>
      <trkpt lat="59.4370807724" lon="17.8224216486">
        <ele>119.6</ele>
        <time>2012-10-08T21:03:26Z</time>
      </trkpt>
      <trkpt lat="59.4368330034" lon="17.8225492211">
        <ele>119.6</ele>
        <time>2012-10-08T21:03:30Z</time>
      </trkpt>
      <trkpt lat="59.4367083646" lon="17.822610409">
        <ele>119.6</ele>
        <time>2012-10-08T21:03:32Z</time>
      </trkpt>
      <trkpt lat="59.4363904391" lon="17.8227557511">
        <ele>119.6</ele>
        <time>2012-10-08T21:03:37Z</time>
      </trkpt>
      <trkpt lat="59.4361564165" lon="17.8228241474">
        <ele>119.6</ele>
        <time>2012-10-08T21:03:41Z</time>
      </trkpt>
      <trkpt lat="59.4360400757" lon="17.822851221">
        <ele>119.6</ele>
        <time>2012-10-08T21:03:43Z</time>
      </trkpt>
      <trkpt lat="59.4359790555" lon="17.8228802224">
        <ele>119.6</ele>
        <time>2012-10-08T21:03:44Z</time>
      </trkpt>
      <trkpt lat="59.4357286043" lon="17.823023469">
        <ele>119.2</ele>
        <time>2012-10-08T21:03:48Z</time>
      </trkpt>
      <trkpt lat="59.4356697634" lon="17.8230670549">
        <ele>118.8</ele>
        <time>2012-10-08T21:03:49Z</time>
      </trkpt>
      <trkpt lat="59.4356033787" lon="17.8230963077">
        <ele>118.4</ele>
        <time>2012-10-08T21:03:50Z</time>
      </trkpt>
      <trkpt lat="59.4355332222" lon="17.8231310088">
        <ele>118</ele>
        <time>2012-10-08T21:03:51Z</time>
      </trkpt>
      <trkpt lat="59.4354678434" lon="17.8231861617">
        <ele>117.6</ele>
        <time>2012-10-08T21:03:52Z</time>
      </trkpt>
      <trkpt lat="59.4354006205" lon="17.8232363693">
        <ele>117.2</ele>
        <time>2012-10-08T21:03:53Z</time>
      </trkpt>
      <trkpt lat="59.4353335653" lon="17.8232824697">
        <ele>116.2</ele>
        <time>2012-10-08T21:03:54Z</time>
      </trkpt>
      <trkpt lat="59.4352672645" lon="17.8233294922">
        <ele>115.8</ele>
        <time>2012-10-08T21:03:55Z</time>
      </trkpt>
      <trkpt lat="59.4351765724" lon="17.8233802027">
        <ele>115.4</ele>
        <time>2012-10-08T21:03:56Z</time>
      </trkpt>
      <trkpt lat="59.4350561245" lon="17.823430997">
        <ele>115.4</ele>
        <time>2012-10-08T21:03:58Z</time>
      </trkpt>
      <trkpt lat="59.4349927573" lon="17.8234221122">
        <ele>115.4</ele>
        <time>2012-10-08T21:03:59Z</time>
      </trkpt>
      <trkpt lat="59.4349339164" lon="17.8234268061">
        <ele>115.4</ele>
        <time>2012-10-08T21:04:00Z</time>
      </trkpt>
      <trkpt lat="59.4348711359" lon="17.823456478">
        <ele>114.8</ele>
        <time>2012-10-08T21:04:01Z</time>
      </trkpt>
      <trkpt lat="59.4348111215" lon="17.8234784386">
        <ele>114.4</ele>
        <time>2012-10-08T21:04:02Z</time>
      </trkpt>
      <trkpt lat="59.4347493469" lon="17.8235096192">
        <ele>114</ele>
        <time>2012-10-08T21:04:03Z</time>
      </trkpt>
      <trkpt lat="59.4346898354" lon="17.8235434821">
        <ele>113.4</ele>
        <time>2012-10-08T21:04:04Z</time>
      </trkpt>
      <trkpt lat="59.4346287314" lon="17.8235658618">
        <ele>113</ele>
        <time>2012-10-08T21:04:05Z</time>
      </trkpt>
      <trkpt lat="59.4343986482" lon="17.8236783469">
        <ele>113</ele>
        <time>2012-10-08T21:04:09Z</time>
      </trkpt>
      <trkpt lat="59.4342631129" lon="17.8235772612">
        <ele>113</ele>
        <time>2012-10-08T21:04:12Z</time>
      </trkpt>
      <trkpt lat="59.4342419067" lon="17.8233229543">
        <ele>113</ele>
        <time>2012-10-08T21:04:15Z</time>
      </trkpt>
      <trkpt lat="59.4342405656" lon="17.8232407279">
        <ele>113</ele>
        <time>2012-10-08T21:04:16Z</time>
      </trkpt>
      <trkpt lat="59.4342457624" lon="17.8228686553">
        <ele>113</ele>
        <time>2012-10-08T21:04:21Z</time>
      </trkpt>
      <trkpt lat="59.4342461815" lon="17.8227842496">
        <ele>113.4</ele>
        <time>2012-10-08T21:04:22Z</time>
      </trkpt>
      <trkpt lat="59.434248696" lon="17.82271183">
        <ele>113.8</ele>
        <time>2012-10-08T21:04:23Z</time>
      </trkpt>
      <trkpt lat="59.4342441698" lon="17.8226245744">
        <ele>114.2</ele>
        <time>2012-10-08T21:04:24Z</time>
      </trkpt>
      <trkpt lat="59.4342458462" lon="17.82254327">
        <ele>114.6</ele>
        <time>2012-10-08T21:04:25Z</time>
      </trkpt>
      <trkpt lat="59.4342523841" lon="17.8224606244">
        <ele>115.2</ele>
        <time>2012-10-08T21:04:26Z</time>
      </trkpt>
      <trkpt lat="59.4342639511" lon="17.8222948305">
        <ele>115.6</ele>
        <time>2012-10-08T21:04:28Z</time>
      </trkpt>
      <trkpt lat="59.4342642025" lon="17.8222134422">
        <ele>116</ele>
        <time>2012-10-08T21:04:29Z</time>
      </trkpt>
      <trkpt lat="59.4342599278" lon="17.8221363287">
        <ele>116.4</ele>
        <time>2012-10-08T21:04:30Z</time>
      </trkpt>
      <trkpt lat="59.4342734226" lon="17.822040356">
        <ele>116.8</ele>
        <time>2012-10-08T21:04:31Z</time>
      </trkpt>
      <trkpt lat="59.4343068664" lon="17.8219842811">
        <ele>117.2</ele>
        <time>2012-10-08T21:04:32Z</time>
      </trkpt>
      <trkpt lat="59.4343799566" lon="17.8218547807">
        <ele>118</ele>
        <time>2012-10-08T21:04:34Z</time>
      </trkpt>
      <trkpt lat="59.4344564833" lon="17.8217635856">
        <ele>118.4</ele>
        <time>2012-10-08T21:04:36Z</time>
      </trkpt>
      <trkpt lat="59.4344962135" lon="17.821704158">
        <ele>118.8</ele>
        <time>2012-10-08T21:04:37Z</time>
      </trkpt>
      <trkpt lat="59.4345386259" lon="17.8216609074">
        <ele>119.2</ele>
        <time>2012-10-08T21:04:38Z</time>
      </trkpt>
      <trkpt lat="59.4347463294" lon="17.8214047565">
        <ele>119.2</ele>
        <time>2012-10-08T21:04:43Z</time>
      </trkpt>
      <trkpt lat="59.434781701" lon="17.8213458317">
        <ele>119.2</ele>
        <time>2012-10-08T21:04:44Z</time>
      </trkpt>
      <trkpt lat="59.4348716388" lon="17.8211357813">
        <ele>119.2</ele>
        <time>2012-10-08T21:04:47Z</time>
      </trkpt>
      <trkpt lat="59.4349055855" lon="17.8209586718">
        <ele>119.2</ele>
        <time>2012-10-08T21:04:49Z</time>
      </trkpt>
      <trkpt lat="59.4349391969" lon="17.8206777943">
        <ele>119.6</ele>
        <time>2012-10-08T21:04:52Z</time>
      </trkpt>
      <trkpt lat="59.4349483332" lon="17.8205850067">
        <ele>120</ele>
        <time>2012-10-08T21:04:53Z</time>
      </trkpt>
      <trkpt lat="59.4349569666" lon="17.8204882796">
        <ele>120.4</ele>
        <time>2012-10-08T21:04:54Z</time>
      </trkpt>
      <trkpt lat="59.434964175" lon="17.820394989">
        <ele>120.8</ele>
        <time>2012-10-08T21:04:55Z</time>
      </trkpt>
      <trkpt lat="59.4349700423" lon="17.8202998544">
        <ele>121.2</ele>
        <time>2012-10-08T21:04:56Z</time>
      </trkpt>
      <trkpt lat="59.4349909133" lon="17.8200062365">
        <ele>121.2</ele>
        <time>2012-10-08T21:04:59Z</time>
      </trkpt>
      <trkpt lat="59.4349453157" lon="17.8198369221">
        <ele>121.2</ele>
        <time>2012-10-08T21:05:01Z</time>
      </trkpt>
      <trkpt lat="59.4348273824" lon="17.8198177276">
        <ele>121.2</ele>
        <time>2012-10-08T21:05:03Z</time>
      </trkpt>
      <trkpt lat="59.4347729001" lon="17.8197923304">
        <ele>120.4</ele>
        <time>2012-10-08T21:05:04Z</time>
      </trkpt>
      <trkpt lat="59.4347192559" lon="17.8197594733">
        <ele>119.6</ele>
        <time>2012-10-08T21:05:05Z</time>
      </trkpt>
      <trkpt lat="59.4346679587" lon="17.8197233474">
        <ele>118.8</ele>
        <time>2012-10-08T21:05:06Z</time>
      </trkpt>
      <trkpt lat="59.4346133087" lon="17.8197004648">
        <ele>120</ele>
        <time>2012-10-08T21:05:07Z</time>
      </trkpt>
      <trkpt lat="59.4345625982" lon="17.8196781689">
        <ele>121</ele>
        <time>2012-10-08T21:05:08Z</time>
      </trkpt>
      <trkpt lat="59.4345133126" lon="17.819654029">
        <ele>122</ele>
        <time>2012-10-08T21:05:09Z</time>
      </trkpt>
      <trkpt lat="59.4344656196" lon="17.8196334934">
        <ele>122</ele>
        <time>2012-10-08T21:05:10Z</time>
      </trkpt>
      <trkpt lat="59.4344178428" lon="17.8196163105">
        <ele>122</ele>
        <time>2012-10-08T21:05:11Z</time>
      </trkpt>
      <trkpt lat="59.4343689763" lon="17.8195978703">
        <ele>122</ele>
        <time>2012-10-08T21:05:12Z</time>
      </trkpt>
      <trkpt lat="59.4343202775" lon="17.8195775023">
        <ele>122</ele>
        <time>2012-10-08T21:05:13Z</time>
      </trkpt>
      <trkpt lat="59.4342699861" lon="17.8195559608">
        <ele>122.2</ele>
        <time>2012-10-08T21:05:14Z</time>
      </trkpt>
      <trkpt lat="59.4340644619" lon="17.8194561324">
        <ele>122.2</ele>
        <time>2012-10-08T21:05:18Z</time>
      </trkpt>
      <trkpt lat="59.4340180261" lon="17.819416486">
        <ele>122.2</ele>
        <time>2012-10-08T21:05:19Z</time>
      </trkpt>
      <trkpt lat="59.4337047945" lon="17.8191055175">
        <ele>122.2</ele>
        <time>2012-10-08T21:05:25Z</time>
      </trkpt>
      <trkpt lat="59.4334075724" lon="17.8187025996">
        <ele>122.2</ele>
        <time>2012-10-08T21:05:31Z</time>
      </trkpt>
      <trkpt lat="59.4331204923" lon="17.8182210594">
        <ele>122.2</ele>
        <time>2012-10-08T21:05:37Z</time>
      </trkpt>
      <trkpt lat="59.4330780799" lon="17.8181224045">
        <ele>122.2</ele>
        <time>2012-10-08T21:05:38Z</time>
      </trkpt>
      <trkpt lat="59.4329739767" lon="17.8177863741">
        <ele>122.2</ele>
        <time>2012-10-08T21:05:41Z</time>
      </trkpt>
      <trkpt lat="59.4329339112" lon="17.8176834444">
        <ele>122.2</ele>
        <time>2012-10-08T21:05:42Z</time>
      </trkpt>
      <trkpt lat="59.4328568815" lon="17.8174819435">
        <ele>121.6</ele>
        <time>2012-10-08T21:05:44Z</time>
      </trkpt>
      <trkpt lat="59.4328516848" lon="17.8173661056">
        <ele>121.2</ele>
        <time>2012-10-08T21:05:45Z</time>
      </trkpt>
      <trkpt lat="59.4328699573" lon="17.8172606613">
        <ele>120.8</ele>
        <time>2012-10-08T21:05:46Z</time>
      </trkpt>
      <trkpt lat="59.4329059156" lon="17.81717701">
        <ele>120.2</ele>
        <time>2012-10-08T21:05:47Z</time>
      </trkpt>
      <trkpt lat="59.4329533572" lon="17.817109368">
        <ele>119.8</ele>
        <time>2012-10-08T21:05:48Z</time>
      </trkpt>
      <trkpt lat="59.4330085101" lon="17.8170601663">
        <ele>119.8</ele>
        <time>2012-10-08T21:05:49Z</time>
      </trkpt>
      <trkpt lat="59.4330696142" lon="17.8170214419">
        <ele>119.8</ele>
        <time>2012-10-08T21:05:50Z</time>
      </trkpt>
      <trkpt lat="59.4332941653" lon="17.8168830567">
        <ele>119.8</ele>
        <time>2012-10-08T21:05:54Z</time>
      </trkpt>
      <trkpt lat="59.4333882102" lon="17.816797729">
        <ele>120.2</ele>
        <time>2012-10-08T21:05:56Z</time>
      </trkpt>
      <trkpt lat="59.4334317961" lon="17.8167586693">
        <ele>120.6</ele>
        <time>2012-10-08T21:05:57Z</time>
      </trkpt>
      <trkpt lat="59.4334753819" lon="17.8167263152">
        <ele>121</ele>
        <time>2012-10-08T21:05:58Z</time>
      </trkpt>
      <trkpt lat="59.433517962" lon="17.816689351">
        <ele>121.4</ele>
        <time>2012-10-08T21:05:59Z</time>
      </trkpt>
      <trkpt lat="59.4335554291" lon="17.8166437535">
        <ele>121.8</ele>
        <time>2012-10-08T21:06:00Z</time>
      </trkpt>
      <trkpt lat="59.4336622145" lon="17.8165419134">
        <ele>121.8</ele>
        <time>2012-10-08T21:06:03Z</time>
      </trkpt>
      <trkpt lat="59.4337353885" lon="17.8165139178">
        <ele>121.8</ele>
        <time>2012-10-08T21:06:05Z</time>
      </trkpt>
      <trkpt lat="59.4337734423" lon="17.8165321904">
        <ele>122.2</ele>
        <time>2012-10-08T21:06:06Z</time>
      </trkpt>
      <trkpt lat="59.4338131725" lon="17.8165551568">
        <ele>122.6</ele>
        <time>2012-10-08T21:06:07Z</time>
      </trkpt>
      <trkpt lat="59.4338544953" lon="17.8165720044">
        <ele>123</ele>
        <time>2012-10-08T21:06:08Z</time>
      </trkpt>
      <trkpt lat="59.433894896" lon="17.8165804701">
        <ele>123.4</ele>
        <time>2012-10-08T21:06:09Z</time>
      </trkpt>
      <trkpt lat="59.4339347939" lon="17.8165896064">
        <ele>124</ele>
        <time>2012-10-08T21:06:10Z</time>
      </trkpt>
      <trkpt lat="59.4339741888" lon="17.8166040233">
        <ele>124</ele>
        <time>2012-10-08T21:06:11Z</time>
      </trkpt>
      <trkpt lat="59.4340101472" lon="17.8166196974">
        <ele>124</ele>
        <time>2012-10-08T21:06:12Z</time>
      </trkpt>
      <trkpt lat="59.4340489553" lon="17.8166414065">
        <ele>124.4</ele>
        <time>2012-10-08T21:06:13Z</time>
      </trkpt>
      <trkpt lat="59.4340895237" lon="17.8166668037">
        <ele>124.8</ele>
        <time>2012-10-08T21:06:14Z</time>
      </trkpt>
      <trkpt lat="59.4341271585" lon="17.8166844895">
        <ele>125.4</ele>
        <time>2012-10-08T21:06:15Z</time>
      </trkpt>
      <trkpt lat="59.4341606023" lon="17.8166916979">
        <ele>125.8</ele>
        <time>2012-10-08T21:06:16Z</time>
      </trkpt>
      <trkpt lat="59.4341938784" lon="17.8166927876">
        <ele>126.8</ele>
        <time>2012-10-08T21:06:17Z</time>
      </trkpt>
      <trkpt lat="59.4342300044" lon="17.8166871717">
        <ele>127.2</ele>
        <time>2012-10-08T21:06:18Z</time>
      </trkpt>
      <trkpt lat="59.4342646216" lon="17.8166773649">
        <ele>127.8</ele>
        <time>2012-10-08T21:06:19Z</time>
      </trkpt>
      <trkpt lat="59.4342990712" lon="17.8166713299">
        <ele>128.2</ele>
        <time>2012-10-08T21:06:20Z</time>
      </trkpt>
      <trkpt lat="59.4343327665" lon="17.8166664684">
        <ele>128.6</ele>
        <time>2012-10-08T21:06:21Z</time>
      </trkpt>
      <trkpt lat="59.4344400548" lon="17.8166207871">
        <ele>128.6</ele>
        <time>2012-10-08T21:06:24Z</time>
      </trkpt>
      <trkpt lat="59.4344764322" lon="17.8166096391">
        <ele>129.2</ele>
        <time>2012-10-08T21:06:25Z</time>
      </trkpt>
      <trkpt lat="59.4345161625" lon="17.8165981559">
        <ele>129.6</ele>
        <time>2012-10-08T21:06:26Z</time>
      </trkpt>
      <trkpt lat="59.4345524561" lon="17.8165896902">
        <ele>130</ele>
        <time>2012-10-08T21:06:27Z</time>
      </trkpt>
      <trkpt lat="59.4345900908" lon="17.8165803025">
        <ele>130.4</ele>
        <time>2012-10-08T21:06:28Z</time>
      </trkpt>
      <trkpt lat="59.4346294019" lon="17.8165715853">
        <ele>130.8</ele>
        <time>2012-10-08T21:06:29Z</time>
      </trkpt>
      <trkpt lat="59.4347542084" lon="17.8165212939">
        <ele>130.8</ele>
        <time>2012-10-08T21:06:32Z</time>
      </trkpt>
      <trkpt lat="59.4348004765" lon="17.816496735">
        <ele>131.2</ele>
        <time>2012-10-08T21:06:33Z</time>
      </trkpt>
      <trkpt lat="59.4348439786" lon="17.8164775404">
        <ele>131.8</ele>
        <time>2012-10-08T21:06:34Z</time>
      </trkpt>
      <trkpt lat="59.4348846308" lon="17.8164625368">
        <ele>132.2</ele>
        <time>2012-10-08T21:06:35Z</time>
      </trkpt>
      <trkpt lat="59.434924361" lon="17.8164488743">
        <ele>132.6</ele>
        <time>2012-10-08T21:06:36Z</time>
      </trkpt>
      <trkpt lat="59.4349639236" lon="17.8164322781">
        <ele>133</ele>
        <time>2012-10-08T21:06:37Z</time>
      </trkpt>
      <trkpt lat="59.4350025641" lon="17.8164091441">
        <ele>133</ele>
        <time>2012-10-08T21:06:38Z</time>
      </trkpt>
      <trkpt lat="59.435040115" lon="17.8163766223">
        <ele>133</ele>
        <time>2012-10-08T21:06:39Z</time>
      </trkpt>
      <trkpt lat="59.4351458108" lon="17.8162115827">
        <ele>133.4</ele>
        <time>2012-10-08T21:06:42Z</time>
      </trkpt>
      <trkpt lat="59.4351755665" lon="17.8161497243">
        <ele>133.8</ele>
        <time>2012-10-08T21:06:43Z</time>
      </trkpt>
      <trkpt lat="59.4351981977" lon="17.8160825853">
        <ele>134.2</ele>
        <time>2012-10-08T21:06:44Z</time>
      </trkpt>
      <trkpt lat="59.4352178113" lon="17.8160114229">
        <ele>134.6</ele>
        <time>2012-10-08T21:06:45Z</time>
      </trkpt>
      <trkpt lat="59.4352340722" lon="17.8159286098">
        <ele>135</ele>
        <time>2012-10-08T21:06:46Z</time>
      </trkpt>
      <trkpt lat="59.4352494111" lon="17.8155183158">
        <ele>135</ele>
        <time>2012-10-08T21:06:50Z</time>
      </trkpt>
      <trkpt lat="59.435238347" lon="17.8153979517">
        <ele>135</ele>
        <time>2012-10-08T21:06:51Z</time>
      </trkpt>
      <trkpt lat="59.4351882232" lon="17.8149760068">
        <ele>135</ele>
        <time>2012-10-08T21:06:54Z</time>
      </trkpt>
      <trkpt lat="59.4351479063" lon="17.8148339336">
        <ele>134.6</ele>
        <time>2012-10-08T21:06:55Z</time>
      </trkpt>
      <trkpt lat="59.4350968605" lon="17.8146939559">
        <ele>134.2</ele>
        <time>2012-10-08T21:06:56Z</time>
      </trkpt>
      <trkpt lat="59.4350366784" lon="17.8145849074">
        <ele>133.8</ele>
        <time>2012-10-08T21:06:57Z</time>
      </trkpt>
      <trkpt lat="59.4349657676" lon="17.8145044411">
        <ele>133.4</ele>
        <time>2012-10-08T21:06:58Z</time>
      </trkpt>
      <trkpt lat="59.4348930127" lon="17.8144379727">
        <ele>133</ele>
        <time>2012-10-08T21:06:59Z</time>
      </trkpt>
      <trkpt lat="59.4348184976" lon="17.8144078817">
        <ele>133</ele>
        <time>2012-10-08T21:07:00Z</time>
      </trkpt>
      <trkpt lat="59.4347408812" lon="17.8144036069">
        <ele>133</ele>
        <time>2012-10-08T21:07:01Z</time>
      </trkpt>
      <trkpt lat="59.4346630972" lon="17.8144067082">
        <ele>132.6</ele>
        <time>2012-10-08T21:07:02Z</time>
      </trkpt>
      <trkpt lat="59.4345869057" lon="17.8144444267">
        <ele>132.2</ele>
        <time>2012-10-08T21:07:03Z</time>
      </trkpt>
      <trkpt lat="59.4345105466" lon="17.8145062013">
        <ele>131.8</ele>
        <time>2012-10-08T21:07:04Z</time>
      </trkpt>
      <trkpt lat="59.4344414797" lon="17.8145814708">
        <ele>131.2</ele>
        <time>2012-10-08T21:07:05Z</time>
      </trkpt>
      <trkpt lat="59.4343767715" lon="17.8146782817">
        <ele>130.8</ele>
        <time>2012-10-08T21:07:06Z</time>
      </trkpt>
      <trkpt lat="59.4343226244" lon="17.8148043455">
        <ele>130.4</ele>
        <time>2012-10-08T21:07:07Z</time>
      </trkpt>
      <trkpt lat="59.4342859955" lon="17.8149520346">
        <ele>130</ele>
        <time>2012-10-08T21:07:08Z</time>
      </trkpt>
      <trkpt lat="59.4342562397" lon="17.8150994722">
        <ele>129.4</ele>
        <time>2012-10-08T21:07:09Z</time>
      </trkpt>
      <trkpt lat="59.43422464" lon="17.815229224">
        <ele>129</ele>
        <time>2012-10-08T21:07:10Z</time>
      </trkpt>
      <trkpt lat="59.4341901904" lon="17.8153356742">
        <ele>128.6</ele>
        <time>2012-10-08T21:07:11Z</time>
      </trkpt>
      <trkpt lat="59.4341497058" lon="17.8154117818">
        <ele>128.2</ele>
        <time>2012-10-08T21:07:12Z</time>
      </trkpt>
      <trkpt lat="59.4341024319" lon="17.8154405317">
        <ele>127.6</ele>
        <time>2012-10-08T21:07:13Z</time>
      </trkpt>
      <trkpt lat="59.434050967" lon="17.8154169786">
        <ele>127.2</ele>
        <time>2012-10-08T21:07:14Z</time>
      </trkpt>
      <trkpt lat="59.4339974067" lon="17.8153613228">
        <ele>126.8</ele>
        <time>2012-10-08T21:07:15Z</time>
      </trkpt>
      <trkpt lat="59.4339378114" lon="17.8153024818">
        <ele>126.2</ele>
        <time>2012-10-08T21:07:16Z</time>
      </trkpt>
      <trkpt lat="59.4338741089" lon="17.8152399529">
        <ele>125.8</ele>
        <time>2012-10-08T21:07:17Z</time>
      </trkpt>
      <trkpt lat="59.4338058802" lon="17.8151656054">
        <ele>125.4</ele>
        <time>2012-10-08T21:07:18Z</time>
      </trkpt>
      <trkpt lat="59.4337317843" lon="17.815091258">
        <ele>125</ele>
        <time>2012-10-08T21:07:19Z</time>
      </trkpt>
      <trkpt lat="59.4336517371" lon="17.8150086962">
        <ele>124.6</ele>
        <time>2012-10-08T21:07:20Z</time>
      </trkpt>
      <trkpt lat="59.433579066" lon="17.8149233685">
        <ele>124</ele>
        <time>2012-10-08T21:07:21Z</time>
      </trkpt>
      <trkpt lat="59.4335101668" lon="17.8148551398">
        <ele>123.6</ele>
        <time>2012-10-08T21:07:22Z</time>
      </trkpt>
      <trkpt lat="59.4334488951" lon="17.8148052675">
        <ele>123</ele>
        <time>2012-10-08T21:07:23Z</time>
      </trkpt>
      <trkpt lat="59.4334050578" lon="17.8147405593">
        <ele>122.4</ele>
        <time>2012-10-08T21:07:24Z</time>
      </trkpt>
      <trkpt lat="59.4333869529" lon="17.8146505377">
        <ele>121.6</ele>
        <time>2012-10-08T21:07:25Z</time>
      </trkpt>
      <trkpt lat="59.4333934069" lon="17.8145331911">
        <ele>120.8</ele>
        <time>2012-10-08T21:07:26Z</time>
      </trkpt>
      <trkpt lat="59.4334152837" lon="17.8144307642">
        <ele>120.2</ele>
        <time>2012-10-08T21:07:27Z</time>
      </trkpt>
      <trkpt lat="59.433450823" lon="17.8143127471">
        <ele>119.4</ele>
        <time>2012-10-08T21:07:28Z</time>
      </trkpt>
      <trkpt lat="59.4336563472" lon="17.8136018782">
        <ele>119.4</ele>
        <time>2012-10-08T21:07:34Z</time>
      </trkpt>
      <trkpt lat="59.433686522" lon="17.8133360881">
        <ele>119.4</ele>
        <time>2012-10-08T21:07:36Z</time>
      </trkpt>
      <trkpt lat="59.4336560957" lon="17.8132209208">
        <ele>119.4</ele>
        <time>2012-10-08T21:07:37Z</time>
      </trkpt>
      <trkpt lat="59.4334968396" lon="17.8130338368">
        <ele>119.4</ele>
        <time>2012-10-08T21:07:40Z</time>
      </trkpt>
      <trkpt lat="59.4333847736" lon="17.8128760894">
        <ele>119.4</ele>
        <time>2012-10-08T21:07:42Z</time>
      </trkpt>
      <trkpt lat="59.4331917384" lon="17.8126765164">
        <ele>119.4</ele>
        <time>2012-10-08T21:07:45Z</time>
      </trkpt>
      <trkpt lat="59.4331308858" lon="17.8126009955">
        <ele>119.4</ele>
        <time>2012-10-08T21:07:46Z</time>
      </trkpt>
      <trkpt lat="59.4329548659" lon="17.812420617">
        <ele>119.4</ele>
        <time>2012-10-08T21:07:49Z</time>
      </trkpt>
      <trkpt lat="59.4326429754" lon="17.8120891967">
        <ele>119.4</ele>
        <time>2012-10-08T21:07:55Z</time>
      </trkpt>
      <trkpt lat="59.4324686319" lon="17.8121782124">
        <ele>119.4</ele>
        <time>2012-10-08T21:07:58Z</time>
      </trkpt>
      <trkpt lat="59.4324061029" lon="17.8123947169">
        <ele>119.4</ele>
        <time>2012-10-08T21:08:00Z</time>
      </trkpt>
      <trkpt lat="59.4323728268" lon="17.8125093813">
        <ele>119.4</ele>
        <time>2012-10-08T21:08:01Z</time>
      </trkpt>
      <trkpt lat="59.43213981" lon="17.8131980382">
        <ele>119.4</ele>
        <time>2012-10-08T21:08:07Z</time>
      </trkpt>
      <trkpt lat="59.4321006665" lon="17.8132990401">
        <ele>119.4</ele>
        <time>2012-10-08T21:08:08Z</time>
      </trkpt>
      <trkpt lat="59.4319287537" lon="17.813693157">
        <ele>119.4</ele>
        <time>2012-10-08T21:08:12Z</time>
      </trkpt>
      <trkpt lat="59.4318360499" lon="17.8138973401">
        <ele>119.4</ele>
        <time>2012-10-08T21:08:14Z</time>
      </trkpt>
      <trkpt lat="59.4317298513" lon="17.8140772157">
        <ele>119.4</ele>
        <time>2012-10-08T21:08:16Z</time>
      </trkpt>
      <trkpt lat="59.431592891" lon="17.8143854182">
        <ele>119.4</ele>
        <time>2012-10-08T21:08:19Z</time>
      </trkpt>
      <trkpt lat="59.4315343015" lon="17.8144740987">
        <ele>119.4</ele>
        <time>2012-10-08T21:08:20Z</time>
      </trkpt>
      <trkpt lat="59.4311858659" lon="17.814935187">
        <ele>119.4</ele>
        <time>2012-10-08T21:08:26Z</time>
      </trkpt>
      <trkpt lat="59.4310679326" lon="17.8150579818">
        <ele>119</ele>
        <time>2012-10-08T21:08:28Z</time>
      </trkpt>
      <trkpt lat="59.4310066609" lon="17.8151146435">
        <ele>118.6</ele>
        <time>2012-10-08T21:08:29Z</time>
      </trkpt>
      <trkpt lat="59.4309484905" lon="17.8151677009">
        <ele>118.2</ele>
        <time>2012-10-08T21:08:30Z</time>
      </trkpt>
      <trkpt lat="59.4308941758" lon="17.8152238596">
        <ele>117.8</ele>
        <time>2012-10-08T21:08:31Z</time>
      </trkpt>
      <trkpt lat="59.4308462314" lon="17.8152879812">
        <ele>117.4</ele>
        <time>2012-10-08T21:08:32Z</time>
      </trkpt>
      <trkpt lat="59.4307386078" lon="17.8153379373">
        <ele>117.4</ele>
        <time>2012-10-08T21:08:34Z</time>
      </trkpt>
      <trkpt lat="59.4306384441" lon="17.8152117897">
        <ele>117.4</ele>
        <time>2012-10-08T21:08:36Z</time>
      </trkpt>
      <trkpt lat="59.4305604924" lon="17.8150351831">
        <ele>117.4</ele>
        <time>2012-10-08T21:08:38Z</time>
      </trkpt>
      <trkpt lat="59.4304794394" lon="17.8148807046">
        <ele>117.4</ele>
        <time>2012-10-08T21:08:40Z</time>
      </trkpt>
      <trkpt lat="59.4304336742" lon="17.8148245459">
        <ele>117.4</ele>
        <time>2012-10-08T21:08:41Z</time>
      </trkpt>
      <trkpt lat="59.4303433174" lon="17.8147250528">
        <ele>117.4</ele>
        <time>2012-10-08T21:08:43Z</time>
      </trkpt>
      <trkpt lat="59.4302589116" lon="17.8146192732">
        <ele>117.4</ele>
        <time>2012-10-08T21:08:45Z</time>
      </trkpt>
      <trkpt lat="59.4302164154" lon="17.8145655452">
        <ele>117.4</ele>
        <time>2012-10-08T21:08:46Z</time>
      </trkpt>
      <trkpt lat="59.4301762661" lon="17.8145004178">
        <ele>117.8</ele>
        <time>2012-10-08T21:08:47Z</time>
      </trkpt>
      <trkpt lat="59.4301354462" lon="17.8144360448">
        <ele>118.2</ele>
        <time>2012-10-08T21:08:48Z</time>
      </trkpt>
      <trkpt lat="59.4300907707" lon="17.8143786288">
        <ele>118.6</ele>
        <time>2012-10-08T21:08:49Z</time>
      </trkpt>
      <trkpt lat="59.4300439159" lon="17.8143218834">
        <ele>119</ele>
        <time>2012-10-08T21:08:50Z</time>
      </trkpt>
      <trkpt lat="59.4299977316" lon="17.8142684907">
        <ele>119.4</ele>
        <time>2012-10-08T21:08:51Z</time>
      </trkpt>
      <trkpt lat="59.4299108951" lon="17.8141749487">
        <ele>119.8</ele>
        <time>2012-10-08T21:08:53Z</time>
      </trkpt>
      <trkpt lat="59.4298673093" lon="17.8141345479">
        <ele>120.4</ele>
        <time>2012-10-08T21:08:54Z</time>
      </trkpt>
      <trkpt lat="59.429822969" lon="17.8140918002">
        <ele>120.8</ele>
        <time>2012-10-08T21:08:55Z</time>
      </trkpt>
      <trkpt lat="59.4297814786" lon="17.8140353062">
        <ele>121.2</ele>
        <time>2012-10-08T21:08:56Z</time>
      </trkpt>
      <trkpt lat="59.4297417484" lon="17.8139751242">
        <ele>121.6</ele>
        <time>2012-10-08T21:08:57Z</time>
      </trkpt>
      <trkpt lat="59.4295652256" lon="17.8137552669">
        <ele>121.6</ele>
        <time>2012-10-08T21:09:01Z</time>
      </trkpt>
      <trkpt lat="59.4294782215" lon="17.8136344837">
        <ele>121.6</ele>
        <time>2012-10-08T21:09:03Z</time>
      </trkpt>
      <trkpt lat="59.4293837574" lon="17.8135453003">
        <ele>122</ele>
        <time>2012-10-08T21:09:05Z</time>
      </trkpt>
      <trkpt lat="59.4293369026" lon="17.8135026365">
        <ele>122.6</ele>
        <time>2012-10-08T21:09:06Z</time>
      </trkpt>
      <trkpt lat="59.4292928977" lon="17.8134473997">
        <ele>123</ele>
        <time>2012-10-08T21:09:07Z</time>
      </trkpt>
      <trkpt lat="59.4292567717" lon="17.8133844517">
        <ele>123.4</ele>
        <time>2012-10-08T21:09:08Z</time>
      </trkpt>
      <trkpt lat="59.4292332185" lon="17.8133057456">
        <ele>123.8</ele>
        <time>2012-10-08T21:09:09Z</time>
      </trkpt>
      <trkpt lat="59.4292308716" lon="17.8131314021">
        <ele>123.8</ele>
        <time>2012-10-08T21:09:11Z</time>
      </trkpt>
      <trkpt lat="59.4292833423" lon="17.8129029115">
        <ele>123.8</ele>
        <time>2012-10-08T21:09:14Z</time>
      </trkpt>
      <trkpt lat="59.4293395848" lon="17.8127381234">
        <ele>123.8</ele>
        <time>2012-10-08T21:09:16Z</time>
      </trkpt>
      <trkpt lat="59.4294012756" lon="17.8125641151">
        <ele>123.8</ele>
        <time>2012-10-08T21:09:18Z</time>
      </trkpt>
      <trkpt lat="59.4294786406" lon="17.8122969001">
        <ele>123.8</ele>
        <time>2012-10-08T21:09:21Z</time>
      </trkpt>
      <trkpt lat="59.4296144273" lon="17.8118270946">
        <ele>123.8</ele>
        <time>2012-10-08T21:09:26Z</time>
      </trkpt>
      <trkpt lat="59.4297860886" lon="17.8112461452">
        <ele>123.8</ele>
        <time>2012-10-08T21:09:32Z</time>
      </trkpt>
      <trkpt lat="59.4299488651" lon="17.8107076081">
        <ele>123.8</ele>
        <time>2012-10-08T21:09:38Z</time>
      </trkpt>
      <trkpt lat="59.4299998271" lon="17.8105326778">
        <ele>123.8</ele>
        <time>2012-10-08T21:09:40Z</time>
      </trkpt>
      <trkpt lat="59.4300362884" lon="17.8103557359">
        <ele>123.8</ele>
        <time>2012-10-08T21:09:42Z</time>
      </trkpt>
      <trkpt lat="59.4300441673" lon="17.810266804">
        <ele>123.8</ele>
        <time>2012-10-08T21:09:43Z</time>
      </trkpt>
      <trkpt lat="59.4299882601" lon="17.8100095634">
        <ele>123.8</ele>
        <time>2012-10-08T21:09:46Z</time>
      </trkpt>
      <trkpt lat="59.4298498749" lon="17.8098735252">
        <ele>123.8</ele>
        <time>2012-10-08T21:09:49Z</time>
      </trkpt>
      <trkpt lat="59.429796566" lon="17.8098358067">
        <ele>123.8</ele>
        <time>2012-10-08T21:09:50Z</time>
      </trkpt>
      <trkpt lat="59.4297474481" lon="17.80978518">
        <ele>123.8</ele>
        <time>2012-10-08T21:09:51Z</time>
      </trkpt>
      <trkpt lat="59.4297026887" lon="17.809723573">
        <ele>124.2</ele>
        <time>2012-10-08T21:09:52Z</time>
      </trkpt>
      <trkpt lat="59.429659019" lon="17.8096657379">
        <ele>124.8</ele>
        <time>2012-10-08T21:09:53Z</time>
      </trkpt>
      <trkpt lat="59.4296169419" lon="17.8096232417">
        <ele>125.2</ele>
        <time>2012-10-08T21:09:54Z</time>
      </trkpt>
      <trkpt lat="59.4295752839" lon="17.8095840144">
        <ele>125.8</ele>
        <time>2012-10-08T21:09:55Z</time>
      </trkpt>
      <trkpt lat="59.4295322847" lon="17.80954068">
        <ele>126.2</ele>
        <time>2012-10-08T21:09:56Z</time>
      </trkpt>
      <trkpt lat="59.4293408421" lon="17.8093330603">
        <ele>126.2</ele>
        <time>2012-10-08T21:10:00Z</time>
      </trkpt>
      <trkpt lat="59.4290179713" lon="17.8089908273">
        <ele>126.2</ele>
        <time>2012-10-08T21:10:06Z</time>
      </trkpt>
      <trkpt lat="59.4287356689" lon="17.8086832954">
        <ele>126.2</ele>
        <time>2012-10-08T21:10:12Z</time>
      </trkpt>
      <trkpt lat="59.4286940109" lon="17.8086350995">
        <ele>126.2</ele>
        <time>2012-10-08T21:10:13Z</time>
      </trkpt>
      <trkpt lat="59.428559649" lon="17.8084781065">
        <ele>126.2</ele>
        <time>2012-10-08T21:10:16Z</time>
      </trkpt>
      <trkpt lat="59.4285151411" lon="17.8084335148">
        <ele>126.2</ele>
        <time>2012-10-08T21:10:17Z</time>
      </trkpt>
      <trkpt lat="59.4284340044" lon="17.8083442476">
        <ele>126.6</ele>
        <time>2012-10-08T21:10:19Z</time>
      </trkpt>
      <trkpt lat="59.4283918434" lon="17.8083002426">
        <ele>127.2</ele>
        <time>2012-10-08T21:10:20Z</time>
      </trkpt>
      <trkpt lat="59.428348509" lon="17.8082776115">
        <ele>127.6</ele>
        <time>2012-10-08T21:10:21Z</time>
      </trkpt>
      <trkpt lat="59.4283040011" lon="17.8082802937">
        <ele>128</ele>
        <time>2012-10-08T21:10:22Z</time>
      </trkpt>
      <trkpt lat="59.4282587388" lon="17.8083062776">
        <ele>128.4</ele>
        <time>2012-10-08T21:10:23Z</time>
      </trkpt>
      <trkpt lat="59.4282134766" lon="17.8083520427">
        <ele>128.8</ele>
        <time>2012-10-08T21:10:24Z</time>
      </trkpt>
      <trkpt lat="59.4281796975" lon="17.8084253005">
        <ele>129.2</ele>
        <time>2012-10-08T21:10:25Z</time>
      </trkpt>
      <trkpt lat="59.4281540489" lon="17.8085184234">
        <ele>129.8</ele>
        <time>2012-10-08T21:10:26Z</time>
      </trkpt>
      <trkpt lat="59.4281285679" lon="17.8086191739">
        <ele>130.2</ele>
        <time>2012-10-08T21:10:27Z</time>
      </trkpt>
      <trkpt lat="59.4281004886" lon="17.8087174097">
        <ele>130.6</ele>
        <time>2012-10-08T21:10:28Z</time>
      </trkpt>
      <trkpt lat="59.4280719901" lon="17.8088098621">
        <ele>130.6</ele>
        <time>2012-10-08T21:10:29Z</time>
      </trkpt>
      <trkpt lat="59.4278720818" lon="17.8094357386">
        <ele>130.6</ele>
        <time>2012-10-08T21:10:36Z</time>
      </trkpt>
      <trkpt lat="59.4277220458" lon="17.8096213138">
        <ele>130.6</ele>
        <time>2012-10-08T21:10:39Z</time>
      </trkpt>
      <trkpt lat="59.4275486243" lon="17.8095063142">
        <ele>130.6</ele>
        <time>2012-10-08T21:10:42Z</time>
      </trkpt>
      <trkpt lat="59.427494561" lon="17.8094329725">
        <ele>130.6</ele>
        <time>2012-10-08T21:10:43Z</time>
      </trkpt>
      <trkpt lat="59.4273909607" lon="17.8092767339">
        <ele>131</ele>
        <time>2012-10-08T21:10:45Z</time>
      </trkpt>
      <trkpt lat="59.4273405017" lon="17.8092023865">
        <ele>131.4</ele>
        <time>2012-10-08T21:10:46Z</time>
      </trkpt>
      <trkpt lat="59.4272938983" lon="17.8091370077">
        <ele>132</ele>
        <time>2012-10-08T21:10:47Z</time>
      </trkpt>
      <trkpt lat="59.4272494742" lon="17.809073892">
        <ele>132.8</ele>
        <time>2012-10-08T21:10:48Z</time>
      </trkpt>
      <trkpt lat="59.4272044634" lon="17.8090179009">
        <ele>132.8</ele>
        <time>2012-10-08T21:10:49Z</time>
      </trkpt>
      <trkpt lat="59.4270571935" lon="17.8088708823">
        <ele>132.8</ele>
        <time>2012-10-08T21:10:52Z</time>
      </trkpt>
      <trkpt lat="59.4269492346" lon="17.8089490855">
        <ele>132.8</ele>
        <time>2012-10-08T21:10:54Z</time>
      </trkpt>
      <trkpt lat="59.4268724564" lon="17.8091392708">
        <ele>132.8</ele>
        <time>2012-10-08T21:10:56Z</time>
      </trkpt>
      <trkpt lat="59.4268000368" lon="17.8093382571">
        <ele>132.8</ele>
        <time>2012-10-08T21:10:58Z</time>
      </trkpt>
      <trkpt lat="59.4266717099" lon="17.8097863535">
        <ele>132.8</ele>
        <time>2012-10-08T21:11:02Z</time>
      </trkpt>
      <trkpt lat="59.4266399425" lon="17.8099025266">
        <ele>132.8</ele>
        <time>2012-10-08T21:11:03Z</time>
      </trkpt>
      <trkpt lat="59.4265950155" lon="17.8099974935">
        <ele>132.4</ele>
        <time>2012-10-08T21:11:04Z</time>
      </trkpt>
      <trkpt lat="59.4265530222" lon="17.8101015967">
        <ele>132</ele>
        <time>2012-10-08T21:11:05Z</time>
      </trkpt>
      <trkpt lat="59.4265258648" lon="17.8102253136">
        <ele>131.6</ele>
        <time>2012-10-08T21:11:06Z</time>
      </trkpt>
      <trkpt lat="59.4264976178" lon="17.8103471026">
        <ele>131.2</ele>
        <time>2012-10-08T21:11:07Z</time>
      </trkpt>
      <trkpt lat="59.426454451" lon="17.8104483559">
        <ele>130.8</ele>
        <time>2012-10-08T21:11:08Z</time>
      </trkpt>
      <trkpt lat="59.4264093564" lon="17.8105462565">
        <ele>130.8</ele>
        <time>2012-10-08T21:11:09Z</time>
      </trkpt>
      <trkpt lat="59.4263038283" lon="17.8108675347">
        <ele>130.8</ele>
        <time>2012-10-08T21:11:12Z</time>
      </trkpt>
      <trkpt lat="59.426261835" lon="17.8109260404">
        <ele>130.4</ele>
        <time>2012-10-08T21:11:13Z</time>
      </trkpt>
      <trkpt lat="59.4262146449" lon="17.8109566343">
        <ele>130</ele>
        <time>2012-10-08T21:11:14Z</time>
      </trkpt>
      <trkpt lat="59.4261669519" lon="17.8109444806">
        <ele>129.6</ele>
        <time>2012-10-08T21:11:15Z</time>
      </trkpt>
      <trkpt lat="59.4261204323" lon="17.8109060915">
        <ele>129.2</ele>
        <time>2012-10-08T21:11:16Z</time>
      </trkpt>
      <trkpt lat="59.4260717335" lon="17.8108580632">
        <ele>128.8</ele>
        <time>2012-10-08T21:11:17Z</time>
      </trkpt>
      <trkpt lat="59.426022867" lon="17.810822943">
        <ele>128.8</ele>
        <time>2012-10-08T21:11:18Z</time>
      </trkpt>
      <trkpt lat="59.4259824662" lon="17.8108222725">
        <ele>128.8</ele>
        <time>2012-10-08T21:11:19Z</time>
      </trkpt>
      <trkpt lat="59.4258996531" lon="17.8109952749">
        <ele>128.8</ele>
        <time>2012-10-08T21:11:22Z</time>
      </trkpt>
      <trkpt lat="59.4258733339" lon="17.8111005516">
        <ele>128.8</ele>
        <time>2012-10-08T21:11:23Z</time>
      </trkpt>
      <trkpt lat="59.4258479368" lon="17.811217982">
        <ele>128.8</ele>
        <time>2012-10-08T21:11:24Z</time>
      </trkpt>
      <trkpt lat="59.425798735" lon="17.8114770665">
        <ele>128.4</ele>
        <time>2012-10-08T21:11:26Z</time>
      </trkpt>
      <trkpt lat="59.4257703204" lon="17.8116077403">
        <ele>128</ele>
        <time>2012-10-08T21:11:27Z</time>
      </trkpt>
      <trkpt lat="59.4257369604" lon="17.8117386656">
        <ele>127.6</ele>
        <time>2012-10-08T21:11:28Z</time>
      </trkpt>
      <trkpt lat="59.4256976493" lon="17.8118643103">
        <ele>127</ele>
        <time>2012-10-08T21:11:29Z</time>
      </trkpt>
      <trkpt lat="59.4256546501" lon="17.8119865184">
        <ele>126.6</ele>
        <time>2012-10-08T21:11:30Z</time>
      </trkpt>
      <trkpt lat="59.4254096472" lon="17.8127269754">
        <ele>126.2</ele>
        <time>2012-10-08T21:11:36Z</time>
      </trkpt>
      <trkpt lat="59.4253767902" lon="17.8128490159">
        <ele>125.4</ele>
        <time>2012-10-08T21:11:37Z</time>
      </trkpt>
      <trkpt lat="59.4253450228" lon="17.8129724813">
        <ele>125</ele>
        <time>2012-10-08T21:11:38Z</time>
      </trkpt>
      <trkpt lat="59.4253161052" lon="17.8131012273">
        <ele>124.6</ele>
        <time>2012-10-08T21:11:39Z</time>
      </trkpt>
      <trkpt lat="59.4252462001" lon="17.8135184782">
        <ele>124.6</ele>
        <time>2012-10-08T21:11:42Z</time>
      </trkpt>
      <trkpt lat="59.4251467908" lon="17.8141009365">
        <ele>124.6</ele>
        <time>2012-10-08T21:11:47Z</time>
      </trkpt>
      <trkpt lat="59.4249832599" lon="17.8146449218">
        <ele>124.6</ele>
        <time>2012-10-08T21:11:54Z</time>
      </trkpt>
      <trkpt lat="59.4249569408" lon="17.8147240469">
        <ele>125</ele>
        <time>2012-10-08T21:11:55Z</time>
      </trkpt>
      <trkpt lat="59.4249300349" lon="17.8147966342">
        <ele>125.6</ele>
        <time>2012-10-08T21:11:56Z</time>
      </trkpt>
      <trkpt lat="59.424906817" lon="17.8148700596">
        <ele>126</ele>
        <time>2012-10-08T21:11:57Z</time>
      </trkpt>
      <trkpt lat="59.4248831801" lon="17.8149453291">
        <ele>126.4</ele>
        <time>2012-10-08T21:11:58Z</time>
      </trkpt>
      <trkpt lat="59.4248582858" lon="17.8150223587">
        <ele>126.8</ele>
        <time>2012-10-08T21:11:59Z</time>
      </trkpt>
      <trkpt lat="59.4248313799" lon="17.8150946945">
        <ele>126.8</ele>
        <time>2012-10-08T21:12:00Z</time>
      </trkpt>
      <trkpt lat="59.4248014565" lon="17.8151609116">
        <ele>126.8</ele>
        <time>2012-10-08T21:12:01Z</time>
      </trkpt>
      <trkpt lat="59.4247680128" lon="17.8152293079">
        <ele>127.4</ele>
        <time>2012-10-08T21:12:02Z</time>
      </trkpt>
      <trkpt lat="59.4247318868" lon="17.81529871">
        <ele>127.8</ele>
        <time>2012-10-08T21:12:03Z</time>
      </trkpt>
      <trkpt lat="59.4246987783" lon="17.815369537">
        <ele>128.2</ele>
        <time>2012-10-08T21:12:04Z</time>
      </trkpt>
      <trkpt lat="59.4246653345" lon="17.8154407832">
        <ele>128.8</ele>
        <time>2012-10-08T21:12:05Z</time>
      </trkpt>
      <trkpt lat="59.4246328127" lon="17.8155097662">
        <ele>129.2</ele>
        <time>2012-10-08T21:12:06Z</time>
      </trkpt>
      <trkpt lat="59.4245319785" lon="17.8157980198">
        <ele>129.2</ele>
        <time>2012-10-08T21:12:10Z</time>
      </trkpt>
      <trkpt lat="59.4245286257" lon="17.8161596988">
        <ele>129.2</ele>
        <time>2012-10-08T21:12:14Z</time>
      </trkpt>
      <trkpt lat="59.424606745" lon="17.8163714255">
        <ele>129.2</ele>
        <time>2012-10-08T21:12:17Z</time>
      </trkpt>
      <trkpt lat="59.4246413622" lon="17.8164199567">
        <ele>129.2</ele>
        <time>2012-10-08T21:12:18Z</time>
      </trkpt>
      <trkpt lat="59.4247851118" lon="17.8166968947">
        <ele>128.8</ele>
        <time>2012-10-08T21:12:23Z</time>
      </trkpt>
      <trkpt lat="59.4248058151" lon="17.8167813843">
        <ele>128.4</ele>
        <time>2012-10-08T21:12:24Z</time>
      </trkpt>
      <trkpt lat="59.4248158734" lon="17.8168681369">
        <ele>127.8</ele>
        <time>2012-10-08T21:12:25Z</time>
      </trkpt>
      <trkpt lat="59.4248231657" lon="17.816952878">
        <ele>127.4</ele>
        <time>2012-10-08T21:12:26Z</time>
      </trkpt>
      <trkpt lat="59.4248246744" lon="17.8170435701">
        <ele>127</ele>
        <time>2012-10-08T21:12:27Z</time>
      </trkpt>
      <trkpt lat="59.4247616425" lon="17.8174458175">
        <ele>127</ele>
        <time>2012-10-08T21:12:31Z</time>
      </trkpt>
      <trkpt lat="59.4247003708" lon="17.8176779123">
        <ele>126.6</ele>
        <time>2012-10-08T21:12:33Z</time>
      </trkpt>
      <trkpt lat="59.424669274" lon="17.8177930796">
        <ele>126.2</ele>
        <time>2012-10-08T21:12:34Z</time>
      </trkpt>
      <trkpt lat="59.4246385124" lon="17.8179012061">
        <ele>125.6</ele>
        <time>2012-10-08T21:12:35Z</time>
      </trkpt>
      <trkpt lat="59.4246062421" lon="17.8180046388">
        <ele>125.2</ele>
        <time>2012-10-08T21:12:36Z</time>
      </trkpt>
      <trkpt lat="59.4245744747" lon="17.8181068141">
        <ele>124.6</ele>
        <time>2012-10-08T21:12:37Z</time>
      </trkpt>
      <trkpt lat="59.4245453057" lon="17.8181997694">
        <ele>124.2</ele>
        <time>2012-10-08T21:12:38Z</time>
      </trkpt>
      <trkpt lat="59.4245214173" lon="17.8182991787">
        <ele>123.6</ele>
        <time>2012-10-08T21:12:39Z</time>
      </trkpt>
      <trkpt lat="59.4244989538" lon="17.8184141784">
        <ele>123</ele>
        <time>2012-10-08T21:12:40Z</time>
      </trkpt>
      <trkpt lat="59.4244723831" lon="17.8185264959">
        <ele>122.6</ele>
        <time>2012-10-08T21:12:41Z</time>
      </trkpt>
      <trkpt lat="59.4244434656" lon="17.8186449321">
        <ele>122</ele>
        <time>2012-10-08T21:12:42Z</time>
      </trkpt>
      <trkpt lat="59.4244132907" lon="17.8187642065">
        <ele>121.4</ele>
        <time>2012-10-08T21:12:43Z</time>
      </trkpt>
      <trkpt lat="59.4243817748" lon="17.8188870014">
        <ele>120.8</ele>
        <time>2012-10-08T21:12:44Z</time>
      </trkpt>
      <trkpt lat="59.4243499236" lon="17.8190106344">
        <ele>120.4</ele>
        <time>2012-10-08T21:12:45Z</time>
      </trkpt>
      <trkpt lat="59.4242350077" lon="17.8193977944">
        <ele>120.4</ele>
        <time>2012-10-08T21:12:48Z</time>
      </trkpt>
      <trkpt lat="59.4241937688" lon="17.819528552">
        <ele>119.8</ele>
        <time>2012-10-08T21:12:49Z</time>
      </trkpt>
      <trkpt lat="59.4241486742" lon="17.8196567113">
        <ele>119.4</ele>
        <time>2012-10-08T21:12:50Z</time>
      </trkpt>
      <trkpt lat="59.4241045854" lon="17.8197635805">
        <ele>118.8</ele>
        <time>2012-10-08T21:12:51Z</time>
      </trkpt>
      <trkpt lat="59.4240569762" lon="17.8198403587">
        <ele>117.8</ele>
        <time>2012-10-08T21:12:52Z</time>
      </trkpt>
      <trkpt lat="59.4240001469" lon="17.8198864591">
        <ele>117.2</ele>
        <time>2012-10-08T21:12:53Z</time>
      </trkpt>
      <trkpt lat="59.4239382885" lon="17.8198915721">
        <ele>116.6</ele>
        <time>2012-10-08T21:12:54Z</time>
      </trkpt>
      <trkpt lat="59.423870898" lon="17.8198732996">
        <ele>116</ele>
        <time>2012-10-08T21:12:55Z</time>
      </trkpt>
      <trkpt lat="59.4238033399" lon="17.8198530154">
        <ele>115.6</ele>
        <time>2012-10-08T21:12:56Z</time>
      </trkpt>
      <trkpt lat="59.4236478556" lon="17.8197960184">
        <ele>115</ele>
        <time>2012-10-08T21:12:59Z</time>
      </trkpt>
      <trkpt lat="59.4236268171" lon="17.8198087589">
        <ele>114.6</ele>
        <time>2012-10-08T21:13:00Z</time>
      </trkpt>
      <trkpt lat="59.4236235481" lon="17.8198457231">
        <ele>114</ele>
        <time>2012-10-08T21:13:01Z</time>
      </trkpt>
      <trkpt lat="59.4236369592" lon="17.8198944219">
        <ele>113.6</ele>
        <time>2012-10-08T21:13:02Z</time>
      </trkpt>
      <trkpt lat="59.4236636136" lon="17.8199299612">
        <ele>113</ele>
        <time>2012-10-08T21:13:03Z</time>
      </trkpt>
      <trkpt lat="59.423697225" lon="17.8199649137">
        <ele>113</ele>
        <time>2012-10-08T21:13:04Z</time>
      </trkpt>
      <trkpt lat="59.4238138173" lon="17.8200919833">
        <ele>112.6</ele>
        <time>2012-10-08T21:13:07Z</time>
      </trkpt>
      <trkpt lat="59.4238380409" lon="17.8201474715">
        <ele>112.2</ele>
        <time>2012-10-08T21:13:08Z</time>
      </trkpt>
      <trkpt lat="59.4238440759" lon="17.8202150296">
        <ele>111.8</ele>
        <time>2012-10-08T21:13:09Z</time>
      </trkpt>
      <trkpt lat="59.4238340176" lon="17.8202923946">
        <ele>111.4</ele>
        <time>2012-10-08T21:13:10Z</time>
      </trkpt>
      <trkpt lat="59.423820439" lon="17.8203671611">
        <ele>111</ele>
        <time>2012-10-08T21:13:11Z</time>
      </trkpt>
      <trkpt lat="59.4237923596" lon="17.8205222262">
        <ele>111</ele>
        <time>2012-10-08T21:13:13Z</time>
      </trkpt>
      <trkpt lat="59.4237663757" lon="17.820699252">
        <ele>111</ele>
        <time>2012-10-08T21:13:15Z</time>
      </trkpt>
      <trkpt lat="59.4238087043" lon="17.8208442588">
        <ele>111</ele>
        <time>2012-10-08T21:13:17Z</time>
      </trkpt>
      <trkpt lat="59.4238829679" lon="17.8209366274">
        <ele>111</ele>
        <time>2012-10-08T21:13:19Z</time>
      </trkpt>
      <trkpt lat="59.4239184234" lon="17.8209949654">
        <ele>111</ele>
        <time>2012-10-08T21:13:20Z</time>
      </trkpt>
      <trkpt lat="59.4239484306" lon="17.8210510403">
        <ele>111</ele>
        <time>2012-10-08T21:13:21Z</time>
      </trkpt>
      <trkpt lat="59.4239999793" lon="17.8213102925">
        <ele>111</ele>
        <time>2012-10-08T21:13:24Z</time>
      </trkpt>
      <trkpt lat="59.4240034158" lon="17.8214055947">
        <ele>111</ele>
        <time>2012-10-08T21:13:25Z</time>
      </trkpt>
      <trkpt lat="59.4239636018" lon="17.8216156451">
        <ele>111</ele>
        <time>2012-10-08T21:13:27Z</time>
      </trkpt>
      <trkpt lat="59.42385514" lon="17.8217362606">
        <ele>111</ele>
        <time>2012-10-08T21:13:29Z</time>
      </trkpt>
      <trkpt lat="59.4237187665" lon="17.8216697084">
        <ele>111</ele>
        <time>2012-10-08T21:13:31Z</time>
      </trkpt>
      <trkpt lat="59.4235894338" lon="17.8215291439">
        <ele>111</ele>
        <time>2012-10-08T21:13:33Z</time>
      </trkpt>
      <trkpt lat="59.4233395694" lon="17.8212569836">
        <ele>111</ele>
        <time>2012-10-08T21:13:37Z</time>
      </trkpt>
      <trkpt lat="59.4228379965" lon="17.8206958992">
        <ele>111</ele>
        <time>2012-10-08T21:13:45Z</time>
      </trkpt>
      <trkpt lat="59.4226623957" lon="17.8204847592">
        <ele>111</ele>
        <time>2012-10-08T21:13:48Z</time>
      </trkpt>
      <trkpt lat="59.4225453005" lon="17.8204095735">
        <ele>111</ele>
        <time>2012-10-08T21:13:50Z</time>
      </trkpt>
      <trkpt lat="59.4223696997" lon="17.8205909578">
        <ele>111</ele>
        <time>2012-10-08T21:13:53Z</time>
      </trkpt>
      <trkpt lat="59.4222878085" lon="17.8208217954">
        <ele>111</ele>
        <time>2012-10-08T21:13:55Z</time>
      </trkpt>
      <trkpt lat="59.4222101083" lon="17.8210784491">
        <ele>111</ele>
        <time>2012-10-08T21:13:57Z</time>
      </trkpt>
      <trkpt lat="59.4220077693" lon="17.8217697044">
        <ele>111</ele>
        <time>2012-10-08T21:14:03Z</time>
      </trkpt>
      <trkpt lat="59.4218353536" lon="17.8223832595">
        <ele>110.4</ele>
        <time>2012-10-08T21:14:09Z</time>
      </trkpt>
      <trkpt lat="59.4218028318" lon="17.822486776">
        <ele>110</ele>
        <time>2012-10-08T21:14:10Z</time>
      </trkpt>
      <trkpt lat="59.4217721541" lon="17.8225927232">
        <ele>109.6</ele>
        <time>2012-10-08T21:14:11Z</time>
      </trkpt>
      <trkpt lat="59.4217425659" lon="17.8227056274">
        <ele>109.2</ele>
        <time>2012-10-08T21:14:12Z</time>
      </trkpt>
      <trkpt lat="59.4217157439" lon="17.8228151788">
        <ele>108.8</ele>
        <time>2012-10-08T21:14:13Z</time>
      </trkpt>
      <trkpt lat="59.4216243812" lon="17.8231385525">
        <ele>108.8</ele>
        <time>2012-10-08T21:14:16Z</time>
      </trkpt>
      <trkpt lat="59.4215978105" lon="17.8232597548">
        <ele>108.8</ele>
        <time>2012-10-08T21:14:17Z</time>
      </trkpt>
      <trkpt lat="59.4215991516" lon="17.823546751">
        <ele>108.8</ele>
        <time>2012-10-08T21:14:19Z</time>
      </trkpt>
      <trkpt lat="59.4216525443" lon="17.8237956097">
        <ele>108.8</ele>
        <time>2012-10-08T21:14:21Z</time>
      </trkpt>
      <trkpt lat="59.4217144866" lon="17.8240650877">
        <ele>108.8</ele>
        <time>2012-10-08T21:14:23Z</time>
      </trkpt>
      <trkpt lat="59.4218506086" lon="17.8246006911">
        <ele>108.4</ele>
        <time>2012-10-08T21:14:27Z</time>
      </trkpt>
      <trkpt lat="59.4218834657" lon="17.8247316164">
        <ele>108</ele>
        <time>2012-10-08T21:14:28Z</time>
      </trkpt>
      <trkpt lat="59.4219123832" lon="17.8248432633">
        <ele>107.6</ele>
        <time>2012-10-08T21:14:29Z</time>
      </trkpt>
      <trkpt lat="59.421936104" lon="17.824932782">
        <ele>107.2</ele>
        <time>2012-10-08T21:14:30Z</time>
      </trkpt>
      <trkpt lat="59.4219542089" lon="17.8250080515">
        <ele>106.8</ele>
        <time>2012-10-08T21:14:31Z</time>
      </trkpt>
      <trkpt lat="59.4219891614" lon="17.8251956384">
        <ele>106.4</ele>
        <time>2012-10-08T21:14:34Z</time>
      </trkpt>
      <trkpt lat="59.4220014828" lon="17.8252209518">
        <ele>106</ele>
        <time>2012-10-08T21:14:35Z</time>
      </trkpt>
      <trkpt lat="59.4220235272" lon="17.8252210356">
        <ele>105.4</ele>
        <time>2012-10-08T21:14:36Z</time>
      </trkpt>
      <trkpt lat="59.4220516066" lon="17.8251964766">
        <ele>105</ele>
        <time>2012-10-08T21:14:37Z</time>
      </trkpt>
      <trkpt lat="59.4220818653" lon="17.8251714985">
        <ele>104.6</ele>
        <time>2012-10-08T21:14:38Z</time>
      </trkpt>
      <trkpt lat="59.4221827833" lon="17.824990701">
        <ele>104.6</ele>
        <time>2012-10-08T21:14:41Z</time>
      </trkpt>
      <trkpt lat="59.422287138" lon="17.8248778806">
        <ele>104.6</ele>
        <time>2012-10-08T21:14:43Z</time>
      </trkpt>
      <trkpt lat="59.422395013" lon="17.824766066">
        <ele>104.6</ele>
        <time>2012-10-08T21:14:45Z</time>
      </trkpt>
      <trkpt lat="59.4226090868" lon="17.8245305346">
        <ele>104.6</ele>
        <time>2012-10-08T21:14:49Z</time>
      </trkpt>
      <trkpt lat="59.4226647426" lon="17.8244696821">
        <ele>104.6</ele>
        <time>2012-10-08T21:14:50Z</time>
      </trkpt>
      <trkpt lat="59.4229548401" lon="17.8241943366">
        <ele>104.6</ele>
        <time>2012-10-08T21:14:56Z</time>
      </trkpt>
      <trkpt lat="59.423237394" lon="17.8238912471">
        <ele>104.6</ele>
        <time>2012-10-08T21:15:02Z</time>
      </trkpt>
      <trkpt lat="59.4232774595" lon="17.8238331606">
        <ele>104.6</ele>
        <time>2012-10-08T21:15:03Z</time>
      </trkpt>
      <trkpt lat="59.423347616" lon="17.8237110363">
        <ele>104.6</ele>
        <time>2012-10-08T21:15:05Z</time>
      </trkpt>
      <trkpt lat="59.4234108993" lon="17.8236214338">
        <ele>104.6</ele>
        <time>2012-10-08T21:15:07Z</time>
      </trkpt>
      <trkpt lat="59.423522211" lon="17.8237439772">
        <ele>104.6</ele>
        <time>2012-10-08T21:15:10Z</time>
      </trkpt>
      <trkpt lat="59.4235673056" lon="17.8240360864">
        <ele>104.6</ele>
        <time>2012-10-08T21:15:13Z</time>
      </trkpt>
      <trkpt lat="59.4236133222" lon="17.8242473941">
        <ele>104.6</ele>
        <time>2012-10-08T21:15:15Z</time>
      </trkpt>
      <trkpt lat="59.4236622725" lon="17.824467838">
        <ele>104.6</ele>
        <time>2012-10-08T21:15:17Z</time>
      </trkpt>
      <trkpt lat="59.4236816347" lon="17.8245788144">
        <ele>104.6</ele>
        <time>2012-10-08T21:15:18Z</time>
      </trkpt>
      <trkpt lat="59.4237267293" lon="17.8248490468">
        <ele>104.6</ele>
        <time>2012-10-08T21:15:21Z</time>
      </trkpt>
      <trkpt lat="59.4237409785" lon="17.8249401581">
        <ele>104.6</ele>
        <time>2012-10-08T21:15:24Z</time>
      </trkpt>
      <trkpt lat="59.423743996" lon="17.8249405772">
        <ele>104.6</ele>
        <time>2012-10-08T21:15:25Z</time>
      </trkpt>
      <trkpt lat="59.4237791162" lon="17.8251263201">
        <ele>104.6</ele>
        <time>2012-10-08T21:15:28Z</time>
      </trkpt>
      <trkpt lat="59.4238350235" lon="17.825641304">
        <ele>104.6</ele>
        <time>2012-10-08T21:15:34Z</time>
      </trkpt>
      <trkpt lat="59.4238936968" lon="17.826223427">
        <ele>104.6</ele>
        <time>2012-10-08T21:15:40Z</time>
      </trkpt>
      <trkpt lat="59.4238964628" lon="17.8265203977">
        <ele>104.6</ele>
        <time>2012-10-08T21:15:43Z</time>
      </trkpt>
      <trkpt lat="59.423883387" lon="17.826788367">
        <ele>104.6</ele>
        <time>2012-10-08T21:15:46Z</time>
      </trkpt>
      <trkpt lat="59.4238890867" lon="17.8268389099">
        <ele>104.6</ele>
        <time>2012-10-08T21:15:47Z</time>
      </trkpt>
      <trkpt lat="59.4239078622" lon="17.8268960745">
        <ele>104.6</ele>
        <time>2012-10-08T21:15:49Z</time>
      </trkpt>
      <trkpt lat="59.423869976" lon="17.8269953162">
        <ele>104.6</ele>
        <time>2012-10-08T21:15:52Z</time>
      </trkpt>
      <trkpt lat="59.4236853227" lon="17.8269829948">
        <ele>104.6</ele>
        <time>2012-10-08T21:15:56Z</time>
      </trkpt>
      <trkpt lat="59.4236316786" lon="17.8269905385">
        <ele>104.6</ele>
        <time>2012-10-08T21:15:57Z</time>
      </trkpt>
      <trkpt lat="59.4235802137" lon="17.8269873534">
        <ele>104.6</ele>
        <time>2012-10-08T21:15:58Z</time>
      </trkpt>
      <trkpt lat="59.423428166" lon="17.8270566717">
        <ele>104.6</ele>
        <time>2012-10-08T21:16:01Z</time>
      </trkpt>
      <trkpt lat="59.4232884398" lon="17.8274365394">
        <ele>104.6</ele>
        <time>2012-10-08T21:16:05Z</time>
      </trkpt>
      <trkpt lat="59.4232712569" lon="17.8275470128">
        <ele>104.6</ele>
        <time>2012-10-08T21:16:06Z</time>
      </trkpt>
      <trkpt lat="59.4232660601" lon="17.827668718">
        <ele>104.6</ele>
        <time>2012-10-08T21:16:07Z</time>
      </trkpt>
      <trkpt lat="59.4232645514" lon="17.8278947779">
        <ele>104.6</ele>
        <time>2012-10-08T21:16:09Z</time>
      </trkpt>
      <trkpt lat="59.4232446862" lon="17.828678737">
        <ele>104.6</ele>
        <time>2012-10-08T21:16:16Z</time>
      </trkpt>
      <trkpt lat="59.4232472008" lon="17.8292017675">
        <ele>104.6</ele>
        <time>2012-10-08T21:16:21Z</time>
      </trkpt>
      <trkpt lat="59.4232414173" lon="17.8292934655">
        <ele>104.6</ele>
        <time>2012-10-08T21:16:22Z</time>
      </trkpt>
      <trkpt lat="59.4231321173" lon="17.8294470219">
        <ele>104.6</ele>
        <time>2012-10-08T21:16:25Z</time>
      </trkpt>
      <trkpt lat="59.4230283494" lon="17.8294818906">
        <ele>104.6</ele>
        <time>2012-10-08T21:16:27Z</time>
      </trkpt>
      <trkpt lat="59.4229721069" lon="17.8294791246">
        <ele>104.6</ele>
        <time>2012-10-08T21:16:28Z</time>
      </trkpt>
      <trkpt lat="59.4229126792" lon="17.8294783702">
        <ele>104.6</ele>
        <time>2012-10-08T21:16:29Z</time>
      </trkpt>
      <trkpt lat="59.4225471445" lon="17.8294924518">
        <ele>104.6</ele>
        <time>2012-10-08T21:16:36Z</time>
      </trkpt>
      <trkpt lat="59.4221396166" lon="17.8294848243">
        <ele>104.6</ele>
        <time>2012-10-08T21:16:44Z</time>
      </trkpt>
      <trkpt lat="59.4220409616" lon="17.829703089">
        <ele>104.6</ele>
        <time>2012-10-08T21:16:47Z</time>
      </trkpt>
      <trkpt lat="59.4220176599" lon="17.8300237805">
        <ele>104.6</ele>
        <time>2012-10-08T21:16:50Z</time>
      </trkpt>
      <trkpt lat="59.4220194201" lon="17.8301312364">
        <ele>104.6</ele>
        <time>2012-10-08T21:16:51Z</time>
      </trkpt>
      <trkpt lat="59.4220413807" lon="17.8305800033">
        <ele>104.6</ele>
        <time>2012-10-08T21:16:55Z</time>
      </trkpt>
      <trkpt lat="59.4220391176" lon="17.8311374835">
        <ele>104.6</ele>
        <time>2012-10-08T21:17:00Z</time>
      </trkpt>
      <trkpt lat="59.4220433085" lon="17.8312575961">
        <ele>104.6</ele>
        <time>2012-10-08T21:17:01Z</time>
      </trkpt>
      <trkpt lat="59.4220362677" lon="17.8313686563">
        <ele>104.6</ele>
        <time>2012-10-08T21:17:02Z</time>
      </trkpt>
      <trkpt lat="59.4219785164" lon="17.8315099751">
        <ele>104.6</ele>
        <time>2012-10-08T21:17:04Z</time>
      </trkpt>
      <trkpt lat="59.4218954518" lon="17.8315724203">
        <ele>104.6</ele>
        <time>2012-10-08T21:17:06Z</time>
      </trkpt>
      <trkpt lat="59.421848597" lon="17.8315922016">
        <ele>104.6</ele>
        <time>2012-10-08T21:17:07Z</time>
      </trkpt>
      <trkpt lat="59.4216251355" lon="17.8315603504">
        <ele>104.6</ele>
        <time>2012-10-08T21:17:11Z</time>
      </trkpt>
      <trkpt lat="59.4215104711" lon="17.8315164292">
        <ele>104.6</ele>
        <time>2012-10-08T21:17:13Z</time>
      </trkpt>
      <trkpt lat="59.4212813938" lon="17.8314049499">
        <ele>104.6</ele>
        <time>2012-10-08T21:17:17Z</time>
      </trkpt>
      <trkpt lat="59.4210212196" lon="17.8312036167">
        <ele>104.6</ele>
        <time>2012-10-08T21:17:22Z</time>
      </trkpt>
      <trkpt lat="59.4208124265" lon="17.8309907164">
        <ele>104.6</ele>
        <time>2012-10-08T21:17:26Z</time>
      </trkpt>
      <trkpt lat="59.4207612131" lon="17.8309366532">
        <ele>104.6</ele>
        <time>2012-10-08T21:17:27Z</time>
      </trkpt>
      <trkpt lat="59.4203856202" lon="17.8306748864">
        <ele>104.6</ele>
        <time>2012-10-08T21:17:34Z</time>
      </trkpt>
      <trkpt lat="59.4200492545" lon="17.830450503">
        <ele>104.6</ele>
        <time>2012-10-08T21:17:40Z</time>
      </trkpt>
      <trkpt lat="59.4196330932" lon="17.8302148878">
        <ele>104.6</ele>
        <time>2012-10-08T21:17:47Z</time>
      </trkpt>
      <trkpt lat="59.4192781197" lon="17.8300186675">
        <ele>104.6</ele>
        <time>2012-10-08T21:17:53Z</time>
      </trkpt>
      <trkpt lat="59.418942257" lon="17.8297890873">
        <ele>104.6</ele>
        <time>2012-10-08T21:17:59Z</time>
      </trkpt>
      <trkpt lat="59.4187814083" lon="17.8296310884">
        <ele>104.6</ele>
        <time>2012-10-08T21:18:02Z</time>
      </trkpt>
      <trkpt lat="59.4186815799" lon="17.8294683119">
        <ele>104.6</ele>
        <time>2012-10-08T21:18:04Z</time>
      </trkpt>
      <trkpt lat="59.4185651553" lon="17.8293041105">
        <ele>104.2</ele>
        <time>2012-10-08T21:18:06Z</time>
      </trkpt>
      <trkpt lat="59.4185096671" lon="17.8292228899">
        <ele>103.6</ele>
        <time>2012-10-08T21:18:07Z</time>
      </trkpt>
      <trkpt lat="59.4184591243" lon="17.8291337065">
        <ele>103.2</ele>
        <time>2012-10-08T21:18:08Z</time>
      </trkpt>
      <trkpt lat="59.4184330566" lon="17.8290101573">
        <ele>102.8</ele>
        <time>2012-10-08T21:18:09Z</time>
      </trkpt>
      <trkpt lat="59.4184230821" lon="17.8289031204">
        <ele>102.2</ele>
        <time>2012-10-08T21:18:10Z</time>
      </trkpt>
      <trkpt lat="59.4184121856" lon="17.8287835945">
        <ele>101.8</ele>
        <time>2012-10-08T21:18:11Z</time>
      </trkpt>
      <trkpt lat="59.4183879619" lon="17.8286685949">
        <ele>101.2</ele>
        <time>2012-10-08T21:18:12Z</time>
      </trkpt>
      <trkpt lat="59.4183657499" lon="17.8285675091">
        <ele>100.8</ele>
        <time>2012-10-08T21:18:13Z</time>
      </trkpt>
      <trkpt lat="59.4183495728" lon="17.8284542697">
        <ele>100.2</ele>
        <time>2012-10-08T21:18:14Z</time>
      </trkpt>
      <trkpt lat="59.4183561945" lon="17.8282070036">
        <ele>100.2</ele>
        <time>2012-10-08T21:18:16Z</time>
      </trkpt>
      <trkpt lat="59.4183842739" lon="17.8279806923">
        <ele>100.2</ele>
        <time>2012-10-08T21:18:18Z</time>
      </trkpt>
      <trkpt lat="59.4184288656" lon="17.8276233719">
        <ele>100.2</ele>
        <time>2012-10-08T21:18:21Z</time>
      </trkpt>
      <trkpt lat="59.4184856949" lon="17.8268943981">
        <ele>100.2</ele>
        <time>2012-10-08T21:18:27Z</time>
      </trkpt>
      <trkpt lat="59.4185021234" lon="17.8266439469">
        <ele>100.2</ele>
        <time>2012-10-08T21:18:29Z</time>
      </trkpt>
      <trkpt lat="59.4185326335" lon="17.8262717067">
        <ele>100.2</ele>
        <time>2012-10-08T21:18:32Z</time>
      </trkpt>
      <trkpt lat="59.4185725314" lon="17.8257884902">
        <ele>100.2</ele>
        <time>2012-10-08T21:18:36Z</time>
      </trkpt>
      <trkpt lat="59.4186150276" lon="17.8255509472">
        <ele>100.2</ele>
        <time>2012-10-08T21:18:38Z</time>
      </trkpt>
      <trkpt lat="59.418595414" lon="17.8253082073">
        <ele>100.2</ele>
        <time>2012-10-08T21:18:40Z</time>
      </trkpt>
      <trkpt lat="59.4185973418" lon="17.8251843228">
        <ele>100.2</ele>
        <time>2012-10-08T21:18:41Z</time>
      </trkpt>
      <trkpt lat="59.4186448672" lon="17.8246037086">
        <ele>100.2</ele>
        <time>2012-10-08T21:18:46Z</time>
      </trkpt>
      <trkpt lat="59.4187734455" lon="17.8245006113">
        <ele>100.2</ele>
        <time>2012-10-08T21:18:49Z</time>
      </trkpt>
      <trkpt lat="59.4188763752" lon="17.8245477175">
        <ele>100.2</ele>
        <time>2012-10-08T21:18:51Z</time>
      </trkpt>
      <trkpt lat="59.4189797241" lon="17.8245958296">
        <ele>100.2</ele>
        <time>2012-10-08T21:18:53Z</time>
      </trkpt>
      <trkpt lat="59.4190810612" lon="17.824621143">
        <ele>100.2</ele>
        <time>2012-10-08T21:18:55Z</time>
      </trkpt>
      <trkpt lat="59.4191699932" lon="17.8245466279">
        <ele>100.2</ele>
        <time>2012-10-08T21:18:57Z</time>
      </trkpt>
      <trkpt lat="59.4192616074" lon="17.8242851126">
        <ele>100.2</ele>
        <time>2012-10-08T21:19:00Z</time>
      </trkpt>
      <trkpt lat="59.4194067819" lon="17.8238065899">
        <ele>100.2</ele>
        <time>2012-10-08T21:19:05Z</time>
      </trkpt>
      <trkpt lat="59.4194486914" lon="17.8237202564">
        <ele>100.2</ele>
        <time>2012-10-08T21:19:06Z</time>
      </trkpt>
      <trkpt lat="59.4195930277" lon="17.8234952024">
        <ele>100.2</ele>
        <time>2012-10-08T21:19:09Z</time>
      </trkpt>
      <trkpt lat="59.4196954545" lon="17.8233690548">
        <ele>100.2</ele>
        <time>2012-10-08T21:19:11Z</time>
      </trkpt>
      <trkpt lat="59.419871223" lon="17.8233491058">
        <ele>100.2</ele>
        <time>2012-10-08T21:19:14Z</time>
      </trkpt>
      <trkpt lat="59.4199310697" lon="17.823363858">
        <ele>100.2</ele>
        <time>2012-10-08T21:19:15Z</time>
      </trkpt>
      <trkpt lat="59.4200509309" lon="17.8233859024">
        <ele>100.2</ele>
        <time>2012-10-08T21:19:17Z</time>
      </trkpt>
      <trkpt lat="59.4202306388" lon="17.8234032529">
        <ele>100.2</ele>
        <time>2012-10-08T21:19:20Z</time>
      </trkpt>
      <trkpt lat="59.4206327186" lon="17.8234074439">
        <ele>100.2</ele>
        <time>2012-10-08T21:19:27Z</time>
      </trkpt>
      <trkpt lat="59.4208360635" lon="17.8233924403">
        <ele>100.2</ele>
        <time>2012-10-08T21:19:31Z</time>
      </trkpt>
      <trkpt lat="59.4208577726" lon="17.8233279835">
        <ele>100.2</ele>
        <time>2012-10-08T21:19:32Z</time>
      </trkpt>
      <trkpt lat="59.4208360635" lon="17.823047106">
        <ele>100.2</ele>
        <time>2012-10-08T21:19:35Z</time>
      </trkpt>
      <trkpt lat="59.4208285198" lon="17.822936884">
        <ele>100.2</ele>
        <time>2012-10-08T21:19:36Z</time>
      </trkpt>
      <trkpt lat="59.4208176233" lon="17.8225970818">
        <ele>100.2</ele>
        <time>2012-10-08T21:19:39Z</time>
      </trkpt>
      <trkpt lat="59.4208187129" lon="17.822484429">
        <ele>100.2</ele>
        <time>2012-10-08T21:19:40Z</time>
      </trkpt>
      <trkpt lat="59.4208575211" lon="17.8217932576">
        <ele>100.6</ele>
        <time>2012-10-08T21:19:46Z</time>
      </trkpt>
      <trkpt lat="59.4208628017" lon="17.8216753242">
        <ele>101</ele>
        <time>2012-10-08T21:19:47Z</time>
      </trkpt>
      <trkpt lat="59.4208671603" lon="17.8215531161">
        <ele>101.4</ele>
        <time>2012-10-08T21:19:48Z</time>
      </trkpt>
      <trkpt lat="59.4208696749" lon="17.8214252922">
        <ele>101.8</ele>
        <time>2012-10-08T21:19:49Z</time>
      </trkpt>
      <trkpt lat="59.4208672441" lon="17.8212950374">
        <ele>102.2</ele>
        <time>2012-10-08T21:19:50Z</time>
      </trkpt>
      <trkpt lat="59.4208490554" lon="17.8211666267">
        <ele>102.2</ele>
        <time>2012-10-08T21:19:51Z</time>
      </trkpt>
      <trkpt lat="59.4206937388" lon="17.820910895">
        <ele>102.2</ele>
        <time>2012-10-08T21:19:54Z</time>
      </trkpt>
      <trkpt lat="59.4206297849" lon="17.8208417443">
        <ele>102.2</ele>
        <time>2012-10-08T21:19:55Z</time>
      </trkpt>
      <trkpt lat="59.4204113526" lon="17.8205884433">
        <ele>102.2</ele>
        <time>2012-10-08T21:19:58Z</time>
      </trkpt>
      <trkpt lat="59.4203385977" lon="17.8205184544">
        <ele>101.8</ele>
        <time>2012-10-08T21:19:59Z</time>
      </trkpt>
      <trkpt lat="59.4202645855" lon="17.8204526565">
        <ele>101.4</ele>
        <time>2012-10-08T21:20:00Z</time>
      </trkpt>
      <trkpt lat="59.4201935908" lon="17.8203883673">
        <ele>101</ele>
        <time>2012-10-08T21:20:01Z</time>
      </trkpt>
      <trkpt lat="59.4201224285" lon="17.820330616">
        <ele>100.6</ele>
        <time>2012-10-08T21:20:02Z</time>
      </trkpt>
      <trkpt lat="59.4200546189" lon="17.820274122">
        <ele>100.2</ele>
        <time>2012-10-08T21:20:03Z</time>
      </trkpt>
      <trkpt lat="59.4199877314" lon="17.8202246688">
        <ele>100.2</ele>
        <time>2012-10-08T21:20:04Z</time>
      </trkpt>
      <trkpt lat="59.4194339392" lon="17.819831893">
        <ele>100.2</ele>
        <time>2012-10-08T21:20:12Z</time>
      </trkpt>
      <trkpt lat="59.4190658062" lon="17.819417408">
        <ele>100.2</ele>
        <time>2012-10-08T21:20:18Z</time>
      </trkpt>
      <trkpt lat="59.4186751258" lon="17.8189104707">
        <ele>100.2</ele>
        <time>2012-10-08T21:20:25Z</time>
      </trkpt>
      <trkpt lat="59.4184955017" lon="17.8185522283">
        <ele>99.8</ele>
        <time>2012-10-08T21:20:29Z</time>
      </trkpt>
      <trkpt lat="59.4184878742" lon="17.8184277571">
        <ele>99.4</ele>
        <time>2012-10-08T21:20:30Z</time>
      </trkpt>
      <trkpt lat="59.418508326" lon="17.8183061357">
        <ele>99</ele>
        <time>2012-10-08T21:20:31Z</time>
      </trkpt>
      <trkpt lat="59.418548643" lon="17.8182210594">
        <ele>98.6</ele>
        <time>2012-10-08T21:20:32Z</time>
      </trkpt>
      <trkpt lat="59.4185874512" lon="17.8181347259">
        <ele>98</ele>
        <time>2012-10-08T21:20:33Z</time>
      </trkpt>
      <trkpt lat="59.4188665684" lon="17.8175084303">
        <ele>98</ele>
        <time>2012-10-08T21:20:40Z</time>
      </trkpt>
      <trkpt lat="59.4191042791" lon="17.8168276524">
        <ele>98</ele>
        <time>2012-10-08T21:20:47Z</time>
      </trkpt>
      <trkpt lat="59.4192525549" lon="17.8162997603">
        <ele>98</ele>
        <time>2012-10-08T21:20:53Z</time>
      </trkpt>
      <trkpt lat="59.4192685643" lon="17.8160201401">
        <ele>98</ele>
        <time>2012-10-08T21:20:56Z</time>
      </trkpt>
      <trkpt lat="59.4192449274" lon="17.8159276878">
        <ele>98</ele>
        <time>2012-10-08T21:20:57Z</time>
      </trkpt>
      <trkpt lat="59.4190984118" lon="17.8157152904">
        <ele>98</ele>
        <time>2012-10-08T21:21:00Z</time>
      </trkpt>
      <trkpt lat="59.4190509702" lon="17.8156359976">
        <ele>98</ele>
        <time>2012-10-08T21:21:01Z</time>
      </trkpt>
      <trkpt lat="59.418767662" lon="17.8151998036">
        <ele>98</ele>
        <time>2012-10-08T21:21:07Z</time>
      </trkpt>
      <trkpt lat="59.4185334717" lon="17.8148258032">
        <ele>98</ele>
        <time>2012-10-08T21:21:12Z</time>
      </trkpt>
      <trkpt lat="59.418443031" lon="17.8146750966">
        <ele>98</ele>
        <time>2012-10-08T21:21:14Z</time>
      </trkpt>
      <trkpt lat="59.4180769934" lon="17.8141035349">
        <ele>98</ele>
        <time>2012-10-08T21:21:22Z</time>
      </trkpt>
      <trkpt lat="59.4179992094" lon="17.8139322926">
        <ele>98</ele>
        <time>2012-10-08T21:21:24Z</time>
      </trkpt>
      <trkpt lat="59.4179258678" lon="17.8137554346">
        <ele>98</ele>
        <time>2012-10-08T21:21:26Z</time>
      </trkpt>
      <trkpt lat="59.4178793482" lon="17.8136655806">
        <ele>98.6</ele>
        <time>2012-10-08T21:21:27Z</time>
      </trkpt>
      <trkpt lat="59.4178402048" lon="17.8135991121">
        <ele>99</ele>
        <time>2012-10-08T21:21:28Z</time>
      </trkpt>
      <trkpt lat="59.41779796" lon="17.8135372537">
        <ele>99.4</ele>
        <time>2012-10-08T21:21:29Z</time>
      </trkpt>
      <trkpt lat="59.4177625046" lon="17.8134712043">
        <ele>99.8</ele>
        <time>2012-10-08T21:21:30Z</time>
      </trkpt>
      <trkpt lat="59.4177277197" lon="17.8134056579">
        <ele>100.2</ele>
        <time>2012-10-08T21:21:31Z</time>
      </trkpt>
      <trkpt lat="59.4176879056" lon="17.8133489124">
        <ele>100.2</ele>
        <time>2012-10-08T21:21:32Z</time>
      </trkpt>
      <trkpt lat="59.4176121333" lon="17.8132556219">
        <ele>100.2</ele>
        <time>2012-10-08T21:21:34Z</time>
      </trkpt>
      <trkpt lat="59.4175713134" lon="17.8132344995">
        <ele>100.2</ele>
        <time>2012-10-08T21:21:35Z</time>
      </trkpt>
      <trkpt lat="59.4174903443" lon="17.8132047437">
        <ele>100.6</ele>
        <time>2012-10-08T21:21:37Z</time>
      </trkpt>
      <trkpt lat="59.4174539668" lon="17.8131951045">
        <ele>101</ele>
        <time>2012-10-08T21:21:38Z</time>
      </trkpt>
      <trkpt lat="59.4174175055" lon="17.8132026483">
        <ele>101.4</ele>
        <time>2012-10-08T21:21:39Z</time>
      </trkpt>
      <trkpt lat="59.4173753446" lon="17.8132179871">
        <ele>101.8</ele>
        <time>2012-10-08T21:21:40Z</time>
      </trkpt>
      <trkpt lat="59.4173341056" lon="17.81321849">
        <ele>102.2</ele>
        <time>2012-10-08T21:21:41Z</time>
      </trkpt>
      <trkpt lat="59.4172595906" lon="17.8131071784">
        <ele>102.2</ele>
        <time>2012-10-08T21:21:43Z</time>
      </trkpt>
      <trkpt lat="59.4170442595" lon="17.812755893">
        <ele>102.2</ele>
        <time>2012-10-08T21:21:48Z</time>
      </trkpt>
      <trkpt lat="59.4168368075" lon="17.8127195994">
        <ele>102.2</ele>
        <time>2012-10-08T21:21:52Z</time>
      </trkpt>
      <trkpt lat="59.4167823252" lon="17.8127227007">
        <ele>102.2</ele>
        <time>2012-10-08T21:21:53Z</time>
      </trkpt>
      <trkpt lat="59.4165259228" lon="17.8127574855">
        <ele>102.2</ele>
        <time>2012-10-08T21:21:58Z</time>
      </trkpt>
      <trkpt lat="59.4163663315" lon="17.8129407139">
        <ele>102.6</ele>
        <time>2012-10-08T21:22:02Z</time>
      </trkpt>
      <trkpt lat="59.4163286129" lon="17.8129962859">
        <ele>103</ele>
        <time>2012-10-08T21:22:03Z</time>
      </trkpt>
      <trkpt lat="59.416299863" lon="17.8130463258">
        <ele>103.4</ele>
        <time>2012-10-08T21:22:04Z</time>
      </trkpt>
      <trkpt lat="59.4162690176" lon="17.813098126">
        <ele>103.8</ele>
        <time>2012-10-08T21:22:05Z</time>
      </trkpt>
      <trkpt lat="59.4162385913" lon="17.8131552067">
        <ele>104.2</ele>
        <time>2012-10-08T21:22:06Z</time>
      </trkpt>
      <trkpt lat="59.4161735478" lon="17.8132677756">
        <ele>104.6</ele>
        <time>2012-10-08T21:22:08Z</time>
      </trkpt>
      <trkpt lat="59.4161414451" lon="17.8133246887">
        <ele>105.2</ele>
        <time>2012-10-08T21:22:09Z</time>
      </trkpt>
      <trkpt lat="59.4161115217" lon="17.8133753154">
        <ele>105.6</ele>
        <time>2012-10-08T21:22:10Z</time>
      </trkpt>
      <trkpt lat="59.4160827718" lon="17.8134336534">
        <ele>106</ele>
        <time>2012-10-08T21:22:11Z</time>
      </trkpt>
      <trkpt lat="59.4160633258" lon="17.8134846992">
        <ele>106.4</ele>
        <time>2012-10-08T21:22:12Z</time>
      </trkpt>
      <trkpt lat="59.4160244338" lon="17.8135648302">
        <ele>106.4</ele>
        <time>2012-10-08T21:22:14Z</time>
      </trkpt>
      <trkpt lat="59.415985877" lon="17.8136447935">
        <ele>106.8</ele>
        <time>2012-10-08T21:22:16Z</time>
      </trkpt>
      <trkpt lat="59.4159685265" lon="17.8136905587">
        <ele>107.2</ele>
        <time>2012-10-08T21:22:17Z</time>
      </trkpt>
      <trkpt lat="59.4159531038" lon="17.8137290316">
        <ele>107.6</ele>
        <time>2012-10-08T21:22:18Z</time>
      </trkpt>
      <trkpt lat="59.4159337416" lon="17.8137576977">
        <ele>108</ele>
        <time>2012-10-08T21:22:19Z</time>
      </trkpt>
      <trkpt lat="59.4159191571" lon="17.813791812">
        <ele>108.4</ele>
        <time>2012-10-08T21:22:20Z</time>
      </trkpt>
      <trkpt lat="59.4158674408" lon="17.813909913">
        <ele>108.8</ele>
        <time>2012-10-08T21:22:23Z</time>
      </trkpt>
      <trkpt lat="59.4158471566" lon="17.8139500623">
        <ele>109.2</ele>
        <time>2012-10-08T21:22:24Z</time>
      </trkpt>
      <trkpt lat="59.4158249445" lon="17.813994654">
        <ele>109.6</ele>
        <time>2012-10-08T21:22:25Z</time>
      </trkpt>
      <trkpt lat="59.4158090189" lon="17.8140504774">
        <ele>110.2</ele>
        <time>2012-10-08T21:22:26Z</time>
      </trkpt>
      <trkpt lat="59.4157955241" lon="17.8141056303">
        <ele>110.6</ele>
        <time>2012-10-08T21:22:27Z</time>
      </trkpt>
      <trkpt lat="59.4157542851" lon="17.8142621204">
        <ele>111</ele>
        <time>2012-10-08T21:22:30Z</time>
      </trkpt>
      <trkpt lat="59.4157398683" lon="17.8143100649">
        <ele>111.4</ele>
        <time>2012-10-08T21:22:31Z</time>
      </trkpt>
      <trkpt lat="59.4157179915" lon="17.8143731806">
        <ele>111.8</ele>
        <time>2012-10-08T21:22:32Z</time>
      </trkpt>
      <trkpt lat="59.4156956118" lon="17.8144360448">
        <ele>112.2</ele>
        <time>2012-10-08T21:22:33Z</time>
      </trkpt>
      <trkpt lat="59.415670969" lon="17.8144937961">
        <ele>112.6</ele>
        <time>2012-10-08T21:22:34Z</time>
      </trkpt>
      <trkpt lat="59.4156473321" lon="17.8145555707">
        <ele>112.6</ele>
        <time>2012-10-08T21:22:35Z</time>
      </trkpt>
      <trkpt lat="59.4155243696" lon="17.8147929461">
        <ele>113</ele>
        <time>2012-10-08T21:22:39Z</time>
      </trkpt>
      <trkpt lat="59.4154909258" lon="17.814841645">
        <ele>113.4</ele>
        <time>2012-10-08T21:22:40Z</time>
      </trkpt>
      <trkpt lat="59.4154535426" lon="17.8148843927">
        <ele>113.8</ele>
        <time>2012-10-08T21:22:41Z</time>
      </trkpt>
      <trkpt lat="59.4154257985" lon="17.8149145675">
        <ele>114.2</ele>
        <time>2012-10-08T21:22:42Z</time>
      </trkpt>
      <trkpt lat="59.4153926061" lon="17.8149479275">
        <ele>114.6</ele>
        <time>2012-10-08T21:22:43Z</time>
      </trkpt>
      <trkpt lat="59.4152649498" lon="17.8150214367">
        <ele>114.6</ele>
        <time>2012-10-08T21:22:46Z</time>
      </trkpt>
      <trkpt lat="59.4151730004" lon="17.815094024">
        <ele>115.2</ele>
        <time>2012-10-08T21:22:48Z</time>
      </trkpt>
      <trkpt lat="59.4151360362" lon="17.8151229415">
        <ele>115.6</ele>
        <time>2012-10-08T21:22:49Z</time>
      </trkpt>
      <trkpt lat="59.4151024248" lon="17.8151399568">
        <ele>116</ele>
        <time>2012-10-08T21:22:50Z</time>
      </trkpt>
      <trkpt lat="59.4150712441" lon="17.8151661083">
        <ele>116.6</ele>
        <time>2012-10-08T21:22:51Z</time>
      </trkpt>
      <trkpt lat="59.415034699" lon="17.8151908349">
        <ele>117</ele>
        <time>2012-10-08T21:22:52Z</time>
      </trkpt>
      <trkpt lat="59.4148856688" lon="17.81529871">
        <ele>117</ele>
        <time>2012-10-08T21:22:56Z</time>
      </trkpt>
      <trkpt lat="59.4148469445" lon="17.8153323214">
        <ele>117.4</ele>
        <time>2012-10-08T21:22:57Z</time>
      </trkpt>
      <trkpt lat="59.4148109861" lon="17.8153660166">
        <ele>117.8</ele>
        <time>2012-10-08T21:22:58Z</time>
      </trkpt>
      <trkpt lat="59.4147761174" lon="17.8154044896">
        <ele>118.4</ele>
        <time>2012-10-08T21:22:59Z</time>
      </trkpt>
      <trkpt lat="59.414737393" lon="17.8154363408">
        <ele>118.8</ele>
        <time>2012-10-08T21:23:00Z</time>
      </trkpt>
      <trkpt lat="59.414699423" lon="17.8154686111">
        <ele>119.2</ele>
        <time>2012-10-08T21:23:01Z</time>
      </trkpt>
      <trkpt lat="59.414623483" lon="17.8155386838">
        <ele>119.2</ele>
        <time>2012-10-08T21:23:03Z</time>
      </trkpt>
      <trkpt lat="59.4143591179" lon="17.8158224111">
        <ele>119.2</ele>
        <time>2012-10-08T21:23:10Z</time>
      </trkpt>
      <trkpt lat="59.414123335" lon="17.8160819147">
        <ele>119.2</ele>
        <time>2012-10-08T21:23:17Z</time>
      </trkpt>
      <trkpt lat="59.4141835171" lon="17.8162875227">
        <ele>119.2</ele>
        <time>2012-10-08T21:23:20Z</time>
      </trkpt>
      <trkpt lat="59.4143754626" lon="17.8167310091">
        <ele>119.2</ele>
        <time>2012-10-08T21:23:25Z</time>
      </trkpt>
      <trkpt lat="59.4146332898" lon="17.8172693785">
        <ele>118.8</ele>
        <time>2012-10-08T21:23:31Z</time>
      </trkpt>
      <trkpt lat="59.4146800608" lon="17.8173712186">
        <ele>118.4</ele>
        <time>2012-10-08T21:23:32Z</time>
      </trkpt>
      <trkpt lat="59.4147242334" lon="17.81747616">
        <ele>118</ele>
        <time>2012-10-08T21:23:33Z</time>
      </trkpt>
      <trkpt lat="59.414769831" lon="17.8175808499">
        <ele>117.4</ele>
        <time>2012-10-08T21:23:34Z</time>
      </trkpt>
      <trkpt lat="59.4148171887" lon="17.8176885573">
        <ele>117</ele>
        <time>2012-10-08T21:23:35Z</time>
      </trkpt>
      <trkpt lat="59.4149341162" lon="17.8179577001">
        <ele>117</ele>
        <time>2012-10-08T21:23:38Z</time>
      </trkpt>
      <trkpt lat="59.4149943821" lon="17.818131876">
        <ele>117</ele>
        <time>2012-10-08T21:23:40Z</time>
      </trkpt>
      <trkpt lat="59.4149925381" lon="17.8183263361">
        <ele>117</ele>
        <time>2012-10-08T21:23:42Z</time>
      </trkpt>
      <trkpt lat="59.4148782928" lon="17.8185599396">
        <ele>117</ele>
        <time>2012-10-08T21:23:45Z</time>
      </trkpt>
      <trkpt lat="59.4148316894" lon="17.8186438425">
        <ele>117</ele>
        <time>2012-10-08T21:23:46Z</time>
      </trkpt>
      <trkpt lat="59.4146506404" lon="17.8190374565">
        <ele>116.2</ele>
        <time>2012-10-08T21:23:50Z</time>
      </trkpt>
      <trkpt lat="59.4146029473" lon="17.8191521209">
        <ele>115.8</ele>
        <time>2012-10-08T21:23:51Z</time>
      </trkpt>
      <trkpt lat="59.4145524045" lon="17.8192695513">
        <ele>115.4</ele>
        <time>2012-10-08T21:23:52Z</time>
      </trkpt>
      <trkpt lat="59.4145034542" lon="17.8193977944">
        <ele>115</ele>
        <time>2012-10-08T21:23:53Z</time>
      </trkpt>
      <trkpt lat="59.4143995186" lon="17.8196869699">
        <ele>114.4</ele>
        <time>2012-10-08T21:23:55Z</time>
      </trkpt>
      <trkpt lat="59.4143462098" lon="17.8198478186">
        <ele>114</ele>
        <time>2012-10-08T21:23:56Z</time>
      </trkpt>
      <trkpt lat="59.4142889614" lon="17.8200111818">
        <ele>113.4</ele>
        <time>2012-10-08T21:23:57Z</time>
      </trkpt>
      <trkpt lat="59.414228947" lon="17.8201848548">
        <ele>112.8</ele>
        <time>2012-10-08T21:23:58Z</time>
      </trkpt>
      <trkpt lat="59.4141720339" lon="17.8203547559">
        <ele>112.2</ele>
        <time>2012-10-08T21:23:59Z</time>
      </trkpt>
      <trkpt lat="59.4141150369" lon="17.8205233159">
        <ele>111.6</ele>
        <time>2012-10-08T21:24:00Z</time>
      </trkpt>
      <trkpt lat="59.414056196" lon="17.82068626">
        <ele>111</ele>
        <time>2012-10-08T21:24:01Z</time>
      </trkpt>
      <trkpt lat="59.4140000373" lon="17.820846522">
        <ele>110.4</ele>
        <time>2012-10-08T21:24:02Z</time>
      </trkpt>
      <trkpt lat="59.4139506679" lon="17.8210089632">
        <ele>109.8</ele>
        <time>2012-10-08T21:24:03Z</time>
      </trkpt>
      <trkpt lat="59.4139023043" lon="17.8211673811">
        <ele>109.4</ele>
        <time>2012-10-08T21:24:04Z</time>
      </trkpt>
      <trkpt lat="59.4138494984" lon="17.8213149025">
        <ele>109</ele>
        <time>2012-10-08T21:24:05Z</time>
      </trkpt>
      <trkpt lat="59.4137952675" lon="17.8214663635">
        <ele>108.6</ele>
        <time>2012-10-08T21:24:06Z</time>
      </trkpt>
      <trkpt lat="59.4137438026" lon="17.821609191">
        <ele>108.2</ele>
        <time>2012-10-08T21:24:07Z</time>
      </trkpt>
      <trkpt lat="59.4136991271" lon="17.8217407869">
        <ele>107.6</ele>
        <time>2012-10-08T21:24:08Z</time>
      </trkpt>
      <trkpt lat="59.4136612409" lon="17.8218784177">
        <ele>107.6</ele>
        <time>2012-10-08T21:24:09Z</time>
      </trkpt>
      <trkpt lat="59.4136300602" lon="17.8220171381">
        <ele>107.2</ele>
        <time>2012-10-08T21:24:10Z</time>
      </trkpt>
      <trkpt lat="59.4135935151" lon="17.8221521705">
        <ele>106.8</ele>
        <time>2012-10-08T21:24:11Z</time>
      </trkpt>
      <trkpt lat="59.4135519409" lon="17.8222786534">
        <ele>106.4</ele>
        <time>2012-10-08T21:24:12Z</time>
      </trkpt>
      <trkpt lat="59.4135041641" lon="17.8224093272">
        <ele>106</ele>
        <time>2012-10-08T21:24:13Z</time>
      </trkpt>
      <trkpt lat="59.4134633442" lon="17.8225495564">
        <ele>105.6</ele>
        <time>2012-10-08T21:24:14Z</time>
      </trkpt>
      <trkpt lat="59.4134248713" lon="17.8226816551">
        <ele>104.8</ele>
        <time>2012-10-08T21:24:15Z</time>
      </trkpt>
      <trkpt lat="59.4133764239" lon="17.8227949784">
        <ele>104.4</ele>
        <time>2012-10-08T21:24:16Z</time>
      </trkpt>
      <trkpt lat="59.4133056807" lon="17.8228560825">
        <ele>103.8</ele>
        <time>2012-10-08T21:24:17Z</time>
      </trkpt>
      <trkpt lat="59.4132243763" lon="17.8228592676">
        <ele>103.2</ele>
        <time>2012-10-08T21:24:18Z</time>
      </trkpt>
      <trkpt lat="59.4131459217" lon="17.8227939726">
        <ele>102.6</ele>
        <time>2012-10-08T21:24:19Z</time>
      </trkpt>
      <trkpt lat="59.4130769386" lon="17.8227254925">
        <ele>102</ele>
        <time>2012-10-08T21:24:20Z</time>
      </trkpt>
      <trkpt lat="59.4130013339" lon="17.8226685794">
        <ele>101.2</ele>
        <time>2012-10-08T21:24:21Z</time>
      </trkpt>
      <trkpt lat="59.4128091369" lon="17.8225380732">
        <ele>101.2</ele>
        <time>2012-10-08T21:24:24Z</time>
      </trkpt>
      <trkpt lat="59.4127489549" lon="17.822472862">
        <ele>101.2</ele>
        <time>2012-10-08T21:24:25Z</time>
      </trkpt>
      <trkpt lat="59.4123509823" lon="17.8221010409">
        <ele>101.2</ele>
        <time>2012-10-08T21:24:31Z</time>
      </trkpt>
      <trkpt lat="59.4121074043" lon="17.8218805131">
        <ele>101.2</ele>
        <time>2012-10-08T21:24:35Z</time>
      </trkpt>
      <trkpt lat="59.4119956735" lon="17.8217519348">
        <ele>101.2</ele>
        <time>2012-10-08T21:24:37Z</time>
      </trkpt>
      <trkpt lat="59.4119421132" lon="17.821712456">
        <ele>101.2</ele>
        <time>2012-10-08T21:24:38Z</time>
      </trkpt>
      <trkpt lat="59.4117800911" lon="17.8216565488">
        <ele>101.2</ele>
        <time>2012-10-08T21:24:42Z</time>
      </trkpt>
      <trkpt lat="59.411738433" lon="17.8218566247">
        <ele>101.2</ele>
        <time>2012-10-08T21:24:45Z</time>
      </trkpt>
      <trkpt lat="59.4116687794" lon="17.8222227461">
        <ele>101.2</ele>
        <time>2012-10-08T21:24:49Z</time>
      </trkpt>
      <trkpt lat="59.4116484114" lon="17.8223269331">
        <ele>101.2</ele>
        <time>2012-10-08T21:24:50Z</time>
      </trkpt>
      <trkpt lat="59.4115239402" lon="17.8224926433">
        <ele>101.2</ele>
        <time>2012-10-08T21:24:53Z</time>
      </trkpt>
      <trkpt lat="59.4113387002" lon="17.8224859378">
        <ele>101.2</ele>
        <time>2012-10-08T21:24:56Z</time>
      </trkpt>
      <trkpt lat="59.4112721479" lon="17.8225004385">
        <ele>101.2</ele>
        <time>2012-10-08T21:24:57Z</time>
      </trkpt>
      <trkpt lat="59.4109408114" lon="17.822512676">
        <ele>101.2</ele>
        <time>2012-10-08T21:25:02Z</time>
      </trkpt>
      <trkpt lat="59.4104966545" lon="17.8223653222">
        <ele>101.2</ele>
        <time>2012-10-08T21:25:08Z</time>
      </trkpt>
      <trkpt lat="59.4103995921" lon="17.8221603848">
        <ele>101.2</ele>
        <time>2012-10-08T21:25:10Z</time>
      </trkpt>
      <trkpt lat="59.4102175373" lon="17.8217035712">
        <ele>101.2</ele>
        <time>2012-10-08T21:25:15Z</time>
      </trkpt>
      <trkpt lat="59.4101781423" lon="17.8216384439">
        <ele>101.2</ele>
        <time>2012-10-08T21:25:16Z</time>
      </trkpt>
      <trkpt lat="59.4100366559" lon="17.8215265455">
        <ele>101.2</ele>
        <time>2012-10-08T21:25:19Z</time>
      </trkpt>
      <trkpt lat="59.4099849395" lon="17.8215048364">
        <ele>101.2</ele>
        <time>2012-10-08T21:25:20Z</time>
      </trkpt>
      <trkpt lat="59.4097486538" lon="17.8214603285">
        <ele>101.2</ele>
        <time>2012-10-08T21:25:24Z</time>
      </trkpt>
      <trkpt lat="59.4096833588" lon="17.8214495997">
        <ele>101.2</ele>
        <time>2012-10-08T21:25:25Z</time>
      </trkpt>
      <trkpt lat="59.4093688699" lon="17.8212848953">
        <ele>101.2</ele>
        <time>2012-10-08T21:25:30Z</time>
      </trkpt>
      <trkpt lat="59.4093153934" lon="17.8212263897">
        <ele>101.2</ele>
        <time>2012-10-08T21:25:31Z</time>
      </trkpt>
      <trkpt lat="59.4089076139" lon="17.820753902">
        <ele>101.2</ele>
        <time>2012-10-08T21:25:39Z</time>
      </trkpt>
      <trkpt lat="59.4086496191" lon="17.8205400797">
        <ele>101.2</ele>
        <time>2012-10-08T21:25:44Z</time>
      </trkpt>
      <trkpt lat="59.4086205339" lon="17.8204861841">
        <ele>101.2</ele>
        <time>2012-10-08T21:25:45Z</time>
      </trkpt>
      <trkpt lat="59.4086289996" lon="17.8203068114">
        <ele>101.2</ele>
        <time>2012-10-08T21:25:48Z</time>
      </trkpt>
      <trkpt lat="59.4087364555" lon="17.8201677557">
        <ele>101.2</ele>
        <time>2012-10-08T21:25:52Z</time>
      </trkpt>
      <trkpt lat="59.4087937877" lon="17.8200978507">
        <ele>101.6</ele>
        <time>2012-10-08T21:25:55Z</time>
      </trkpt>
      <trkpt lat="59.4088118926" lon="17.8200681787">
        <ele>102</ele>
        <time>2012-10-08T21:25:56Z</time>
      </trkpt>
      <trkpt lat="59.4088356134" lon="17.8200418596">
        <ele>102.4</ele>
        <time>2012-10-08T21:25:57Z</time>
      </trkpt>
      <trkpt lat="59.4088610106" lon="17.8200142831">
        <ele>102.8</ele>
        <time>2012-10-08T21:25:58Z</time>
      </trkpt>
      <trkpt lat="59.4088817139" lon="17.8199854494">
        <ele>103.2</ele>
        <time>2012-10-08T21:25:59Z</time>
      </trkpt>
      <trkpt lat="59.408943237" lon="17.819883274">
        <ele>103.8</ele>
        <time>2012-10-08T21:26:02Z</time>
      </trkpt>
      <trkpt lat="59.408958073" lon="17.8198357486">
        <ele>104.2</ele>
        <time>2012-10-08T21:26:03Z</time>
      </trkpt>
      <trkpt lat="59.4089689694" lon="17.8197848705">
        <ele>104.6</ele>
        <time>2012-10-08T21:26:04Z</time>
      </trkpt>
      <trkpt lat="59.4089762617" lon="17.8197305558">
        <ele>105</ele>
        <time>2012-10-08T21:26:05Z</time>
      </trkpt>
      <trkpt lat="59.4089802012" lon="17.8196749">
        <ele>105.4</ele>
        <time>2012-10-08T21:26:06Z</time>
      </trkpt>
      <trkpt lat="59.4089834701" lon="17.8196243571">
        <ele>106</ele>
        <time>2012-10-08T21:26:07Z</time>
      </trkpt>
      <trkpt lat="59.4089891698" lon="17.8195571343">
        <ele>106.4</ele>
        <time>2012-10-08T21:26:08Z</time>
      </trkpt>
      <trkpt lat="59.4089923549" lon="17.8194961979">
        <ele>106.8</ele>
        <time>2012-10-08T21:26:09Z</time>
      </trkpt>
      <trkpt lat="59.409005766" lon="17.8194423861">
        <ele>107.2</ele>
        <time>2012-10-08T21:26:10Z</time>
      </trkpt>
      <trkpt lat="59.4090268046" lon="17.8193992193">
        <ele>107.6</ele>
        <time>2012-10-08T21:26:11Z</time>
      </trkpt>
      <trkpt lat="59.4090555545" lon="17.8193778454">
        <ele>108</ele>
        <time>2012-10-08T21:26:12Z</time>
      </trkpt>
      <trkpt lat="59.4090823766" lon="17.8193474191">
        <ele>108.4</ele>
        <time>2012-10-08T21:26:13Z</time>
      </trkpt>
      <trkpt lat="59.4091072708" lon="17.8193128857">
        <ele>108.8</ele>
        <time>2012-10-08T21:26:14Z</time>
      </trkpt>
      <trkpt lat="59.409127555" lon="17.8192762568">
        <ele>109.2</ele>
        <time>2012-10-08T21:26:15Z</time>
      </trkpt>
      <trkpt lat="59.4091506052" lon="17.8192463334">
        <ele>109.6</ele>
        <time>2012-10-08T21:26:16Z</time>
      </trkpt>
      <trkpt lat="59.4092137209" lon="17.8191573177">
        <ele>110.2</ele>
        <time>2012-10-08T21:26:19Z</time>
      </trkpt>
      <trkpt lat="59.4092334184" lon="17.8191278134">
        <ele>110.6</ele>
        <time>2012-10-08T21:26:20Z</time>
      </trkpt>
      <trkpt lat="59.4092547084" lon="17.8190884184">
        <ele>111</ele>
        <time>2012-10-08T21:26:21Z</time>
      </trkpt>
      <trkpt lat="59.4092772557" lon="17.8190253027">
        <ele>111.4</ele>
        <time>2012-10-08T21:26:22Z</time>
      </trkpt>
      <trkpt lat="59.4092990487" lon="17.8189527155">
        <ele>112</ele>
        <time>2012-10-08T21:26:23Z</time>
      </trkpt>
      <trkpt lat="59.4093879806" lon="17.8186501289">
        <ele>112</ele>
        <time>2012-10-08T21:26:28Z</time>
      </trkpt>
      <trkpt lat="59.4095285451" lon="17.8182559281">
        <ele>112.4</ele>
        <time>2012-10-08T21:26:34Z</time>
      </trkpt>
      <trkpt lat="59.4095510086" lon="17.8181873642">
        <ele>112.8</ele>
        <time>2012-10-08T21:26:35Z</time>
      </trkpt>
      <trkpt lat="59.409579507" lon="17.8181265954">
        <ele>113.2</ele>
        <time>2012-10-08T21:26:36Z</time>
      </trkpt>
      <trkpt lat="59.4096054071" lon="17.8180727836">
        <ele>113.6</ele>
        <time>2012-10-08T21:26:37Z</time>
      </trkpt>
      <trkpt lat="59.4096344923" lon="17.8180229951">
        <ele>114</ele>
        <time>2012-10-08T21:26:38Z</time>
      </trkpt>
      <trkpt lat="59.4096670979" lon="17.8178862025">
        <ele>114</ele>
        <time>2012-10-08T21:26:40Z</time>
      </trkpt>
      <trkpt lat="59.4097705305" lon="17.8175526029">
        <ele>114</ele>
        <time>2012-10-08T21:26:45Z</time>
      </trkpt>
      <trkpt lat="59.4098950856" lon="17.8172053408">
        <ele>114</ele>
        <time>2012-10-08T21:26:50Z</time>
      </trkpt>
      <trkpt lat="59.4099312954" lon="17.817146416">
        <ele>114</ele>
        <time>2012-10-08T21:26:51Z</time>
      </trkpt>
      <trkpt lat="59.4100167069" lon="17.8171040036">
        <ele>114.4</ele>
        <time>2012-10-08T21:26:53Z</time>
      </trkpt>
      <trkpt lat="59.410066244" lon="17.8171409678">
        <ele>114.8</ele>
        <time>2012-10-08T21:26:54Z</time>
      </trkpt>
      <trkpt lat="59.4101045493" lon="17.8171859786">
        <ele>115.2</ele>
        <time>2012-10-08T21:26:55Z</time>
      </trkpt>
      <trkpt lat="59.4101390827" lon="17.8172447357">
        <ele>115.6</ele>
        <time>2012-10-08T21:26:56Z</time>
      </trkpt>
      <trkpt lat="59.4101727779" lon="17.8172972902">
        <ele>116</ele>
        <time>2012-10-08T21:26:57Z</time>
      </trkpt>
      <trkpt lat="59.4102082334" lon="17.8173396188">
        <ele>116</ele>
        <time>2012-10-08T21:26:58Z</time>
      </trkpt>
      <trkpt lat="59.4102828323" lon="17.8174111164">
        <ele>116</ele>
        <time>2012-10-08T21:27:00Z</time>
      </trkpt>
      <trkpt lat="59.4103246579" lon="17.8174307301">
        <ele>116.4</ele>
        <time>2012-10-08T21:27:01Z</time>
      </trkpt>
      <trkpt lat="59.4103731892" lon="17.817409943">
        <ele>117</ele>
        <time>2012-10-08T21:27:02Z</time>
      </trkpt>
      <trkpt lat="59.4104137575" lon="17.8173630881">
        <ele>117.4</ele>
        <time>2012-10-08T21:27:03Z</time>
      </trkpt>
      <trkpt lat="59.4104522305" lon="17.8173074323">
        <ele>117.8</ele>
        <time>2012-10-08T21:27:04Z</time>
      </trkpt>
      <trkpt lat="59.4104847522" lon="17.8172387007">
        <ele>118.2</ele>
        <time>2012-10-08T21:27:05Z</time>
      </trkpt>
      <trkpt lat="59.4105124125" lon="17.817174663">
        <ele>118.2</ele>
        <time>2012-10-08T21:27:06Z</time>
      </trkpt>
      <trkpt lat="59.4105388155" lon="17.8171110444">
        <ele>118.2</ele>
        <time>2012-10-08T21:27:07Z</time>
      </trkpt>
      <trkpt lat="59.4106494566" lon="17.8167937895">
        <ele>118.2</ele>
        <time>2012-10-08T21:27:12Z</time>
      </trkpt>
      <trkpt lat="59.4106794638" lon="17.8167189391">
        <ele>118.6</ele>
        <time>2012-10-08T21:27:13Z</time>
      </trkpt>
      <trkpt lat="59.4107095548" lon="17.8166286661">
        <ele>119.2</ele>
        <time>2012-10-08T21:27:14Z</time>
      </trkpt>
      <trkpt lat="59.4107324374" lon="17.8165409914">
        <ele>119.6</ele>
        <time>2012-10-08T21:27:15Z</time>
      </trkpt>
      <trkpt lat="59.4107595947" lon="17.8164473656">
        <ele>120</ele>
        <time>2012-10-08T21:27:16Z</time>
      </trkpt>
      <trkpt lat="59.4107910269" lon="17.8163497164">
        <ele>120.6</ele>
        <time>2012-10-08T21:27:17Z</time>
      </trkpt>
      <trkpt lat="59.4108491134" lon="17.8161997642">
        <ele>121</ele>
        <time>2012-10-08T21:27:19Z</time>
      </trkpt>
      <trkpt lat="59.4108673022" lon="17.8161431026">
        <ele>121.4</ele>
        <time>2012-10-08T21:27:20Z</time>
      </trkpt>
      <trkpt lat="59.4108883407" lon="17.8160802383">
        <ele>121.8</ele>
        <time>2012-10-08T21:27:21Z</time>
      </trkpt>
      <trkpt lat="59.410909044" lon="17.8160156977">
        <ele>122.2</ele>
        <time>2012-10-08T21:27:22Z</time>
      </trkpt>
      <trkpt lat="59.4109346926" lon="17.8159421885">
        <ele>122.8</ele>
        <time>2012-10-08T21:27:23Z</time>
      </trkpt>
      <trkpt lat="59.4110195175" lon="17.8156965988">
        <ele>122.8</ele>
        <time>2012-10-08T21:27:26Z</time>
      </trkpt>
      <trkpt lat="59.4110533803" lon="17.8156192338">
        <ele>123.2</ele>
        <time>2012-10-08T21:27:27Z</time>
      </trkpt>
      <trkpt lat="59.4110776878" lon="17.8155427909">
        <ele>123.6</ele>
        <time>2012-10-08T21:27:28Z</time>
      </trkpt>
      <trkpt lat="59.4111000675" lon="17.8154711257">
        <ele>124</ele>
        <time>2012-10-08T21:27:29Z</time>
      </trkpt>
      <trkpt lat="59.4111231177" lon="17.8153961077">
        <ele>124.4</ele>
        <time>2012-10-08T21:27:30Z</time>
      </trkpt>
      <trkpt lat="59.4111521191" lon="17.8153319023">
        <ele>125</ele>
        <time>2012-10-08T21:27:31Z</time>
      </trkpt>
      <trkpt lat="59.4111893348" lon="17.8152697086">
        <ele>125</ele>
        <time>2012-10-08T21:27:32Z</time>
      </trkpt>
      <trkpt lat="59.4113324976" lon="17.8150268012">
        <ele>125</ele>
        <time>2012-10-08T21:27:36Z</time>
      </trkpt>
      <trkpt lat="59.4113738204" lon="17.8149761745">
        <ele>125.4</ele>
        <time>2012-10-08T21:27:37Z</time>
      </trkpt>
      <trkpt lat="59.4114132153" lon="17.8149267213">
        <ele>125.8</ele>
        <time>2012-10-08T21:27:38Z</time>
      </trkpt>
      <trkpt lat="59.4114548733" lon="17.8148860691">
        <ele>126.2</ele>
        <time>2012-10-08T21:27:39Z</time>
      </trkpt>
      <trkpt lat="59.4114994651" lon="17.8148496078">
        <ele>126.6</ele>
        <time>2012-10-08T21:27:40Z</time>
      </trkpt>
      <trkpt lat="59.4115448111" lon="17.8148133142">
        <ele>127</ele>
        <time>2012-10-08T21:27:41Z</time>
      </trkpt>
      <trkpt lat="59.4116827772" lon="17.8147203589">
        <ele>127</ele>
        <time>2012-10-08T21:27:44Z</time>
      </trkpt>
      <trkpt lat="59.4117312246" lon="17.8147032598">
        <ele>127</ele>
        <time>2012-10-08T21:27:45Z</time>
      </trkpt>
      <trkpt lat="59.4118251857" lon="17.8146392221">
        <ele>127</ele>
        <time>2012-10-08T21:27:47Z</time>
      </trkpt>
      <trkpt lat="59.4119136986" lon="17.814540651">
        <ele>127</ele>
        <time>2012-10-08T21:27:49Z</time>
      </trkpt>
      <trkpt lat="59.4120172988" lon="17.8144944667">
        <ele>127</ele>
        <time>2012-10-08T21:27:51Z</time>
      </trkpt>
      <trkpt lat="59.4121271855" lon="17.8144229691">
        <ele>127</ele>
        <time>2012-10-08T21:27:53Z</time>
      </trkpt>
      <trkpt lat="59.4123714341" lon="17.8142584324">
        <ele>126.6</ele>
        <time>2012-10-08T21:27:57Z</time>
      </trkpt>
      <trkpt lat="59.4124348013" lon="17.8141990047">
        <ele>126</ele>
        <time>2012-10-08T21:27:58Z</time>
      </trkpt>
      <trkpt lat="59.4124972464" lon="17.8141301055">
        <ele>125.6</ele>
        <time>2012-10-08T21:27:59Z</time>
      </trkpt>
      <trkpt lat="59.4125602783" lon="17.8140430175">
        <ele>125</ele>
        <time>2012-10-08T21:28:00Z</time>
      </trkpt>
      <trkpt lat="59.4126200413" lon="17.8139415966">
        <ele>124.6</ele>
        <time>2012-10-08T21:28:01Z</time>
      </trkpt>
      <trkpt lat="59.4126745236" lon="17.8138248367">
        <ele>124.6</ele>
        <time>2012-10-08T21:28:02Z</time>
      </trkpt>
      <trkpt lat="59.4127331131" lon="17.8136923189">
        <ele>124.2</ele>
        <time>2012-10-08T21:28:03Z</time>
      </trkpt>
      <trkpt lat="59.4127814767" lon="17.8135508324">
        <ele>123.6</ele>
        <time>2012-10-08T21:28:04Z</time>
      </trkpt>
      <trkpt lat="59.412816513" lon="17.813383362">
        <ele>123.2</ele>
        <time>2012-10-08T21:28:05Z</time>
      </trkpt>
      <trkpt lat="59.4128604342" lon="17.8132158078">
        <ele>122.8</ele>
        <time>2012-10-08T21:28:06Z</time>
      </trkpt>
      <trkpt lat="59.4129088815" lon="17.8130518579">
        <ele>122.2</ele>
        <time>2012-10-08T21:28:07Z</time>
      </trkpt>
      <trkpt lat="59.4129627772" lon="17.8128879917">
        <ele>121.8</ele>
        <time>2012-10-08T21:28:08Z</time>
      </trkpt>
      <trkpt lat="59.4130233783" lon="17.8127288194">
        <ele>121.2</ele>
        <time>2012-10-08T21:28:09Z</time>
      </trkpt>
      <trkpt lat="59.4130882542" lon="17.8125593374">
        <ele>120.6</ele>
        <time>2012-10-08T21:28:10Z</time>
      </trkpt>
      <trkpt lat="59.4131646133" lon="17.8123937949">
        <ele>120</ele>
        <time>2012-10-08T21:28:11Z</time>
      </trkpt>
      <trkpt lat="59.4132500249" lon="17.8122639593">
        <ele>119.4</ele>
        <time>2012-10-08T21:28:12Z</time>
      </trkpt>
      <trkpt lat="59.4133462491" lon="17.8121617839">
        <ele>118.6</ele>
        <time>2012-10-08T21:28:13Z</time>
      </trkpt>
      <trkpt lat="59.4134508552" lon="17.8121019371">
        <ele>118</ele>
        <time>2012-10-08T21:28:14Z</time>
      </trkpt>
      <trkpt lat="59.4135612448" lon="17.8120400787">
        <ele>117.2</ele>
        <time>2012-10-08T21:28:15Z</time>
      </trkpt>
      <trkpt lat="59.413669539" lon="17.8119728559">
        <ele>116.6</ele>
        <time>2012-10-08T21:28:16Z</time>
      </trkpt>
      <trkpt lat="59.4137770787" lon="17.8119040405">
        <ele>116</ele>
        <time>2012-10-08T21:28:17Z</time>
      </trkpt>
      <trkpt lat="59.4138891447" lon="17.8118271785">
        <ele>115.2</ele>
        <time>2012-10-08T21:28:18Z</time>
      </trkpt>
      <trkpt lat="59.4139933318" lon="17.8117431918">
        <ele>114.6</ele>
        <time>2012-10-08T21:28:19Z</time>
      </trkpt>
      <trkpt lat="59.4140909809" lon="17.811647722">
        <ele>113</ele>
        <time>2012-10-08T21:28:20Z</time>
      </trkpt>
      <trkpt lat="59.4141869537" lon="17.8115535094">
        <ele>112.4</ele>
        <time>2012-10-08T21:28:21Z</time>
      </trkpt>
      <trkpt lat="59.4142836808" lon="17.8114599674">
        <ele>111.8</ele>
        <time>2012-10-08T21:28:22Z</time>
      </trkpt>
      <trkpt lat="59.4143742053" lon="17.811361061">
        <ele>111.2</ele>
        <time>2012-10-08T21:28:23Z</time>
      </trkpt>
      <trkpt lat="59.4144588625" lon="17.811261484">
        <ele>110.6</ele>
        <time>2012-10-08T21:28:24Z</time>
      </trkpt>
      <trkpt lat="59.4145393287" lon="17.8111407009">
        <ele>109.8</ele>
        <time>2012-10-08T21:28:25Z</time>
      </trkpt>
      <trkpt lat="59.4146261652" lon="17.8110408724">
        <ele>109.8</ele>
        <time>2012-10-08T21:28:26Z</time>
      </trkpt>
      <trkpt lat="59.4147088946" lon="17.8109467437">
        <ele>109.4</ele>
        <time>2012-10-08T21:28:27Z</time>
      </trkpt>
      <trkpt lat="59.4147893608" lon="17.8108349291">
        <ele>109</ele>
        <time>2012-10-08T21:28:28Z</time>
      </trkpt>
      <trkpt lat="59.414865217" lon="17.8107177502">
        <ele>108.6</ele>
        <time>2012-10-08T21:28:29Z</time>
      </trkpt>
      <trkpt lat="59.4149399835" lon="17.8106004036">
        <ele>108.2</ele>
        <time>2012-10-08T21:28:30Z</time>
      </trkpt>
      <trkpt lat="59.4150099724" lon="17.8104820512">
        <ele>107.8</ele>
        <time>2012-10-08T21:28:31Z</time>
      </trkpt>
      <trkpt lat="59.415077782" lon="17.8103627767">
        <ele>107.8</ele>
        <time>2012-10-08T21:28:32Z</time>
      </trkpt>
      <trkpt lat="59.4152144908" lon="17.8101336994">
        <ele>107.4</ele>
        <time>2012-10-08T21:28:34Z</time>
      </trkpt>
      <trkpt lat="59.4152789476" lon="17.8100233098">
        <ele>107</ele>
        <time>2012-10-08T21:28:35Z</time>
      </trkpt>
      <trkpt lat="59.41534265" lon="17.8099161891">
        <ele>106.6</ele>
        <time>2012-10-08T21:28:36Z</time>
      </trkpt>
      <trkpt lat="59.4153987249" lon="17.8097988425">
        <ele>106</ele>
        <time>2012-10-08T21:28:37Z</time>
      </trkpt>
      <trkpt lat="59.415449184" lon="17.8096811606">
        <ele>105.6</ele>
        <time>2012-10-08T21:28:38Z</time>
      </trkpt>
      <trkpt lat="59.4154979666" lon="17.8095576952">
        <ele>105.6</ele>
        <time>2012-10-08T21:28:39Z</time>
      </trkpt>
      <trkpt lat="59.4155632616" lon="17.8092976887">
        <ele>105.6</ele>
        <time>2012-10-08T21:28:41Z</time>
      </trkpt>
      <trkpt lat="59.4155909219" lon="17.8090122012">
        <ele>105.6</ele>
        <time>2012-10-08T21:28:43Z</time>
      </trkpt>
      <trkpt lat="59.41567977" lon="17.8081608516">
        <ele>105.2</ele>
        <time>2012-10-08T21:28:49Z</time>
      </trkpt>
      <trkpt lat="59.4156962824" lon="17.8080246457">
        <ele>104.8</ele>
        <time>2012-10-08T21:28:50Z</time>
      </trkpt>
      <trkpt lat="59.415707095" lon="17.8078888589">
        <ele>104.4</ele>
        <time>2012-10-08T21:28:51Z</time>
      </trkpt>
      <trkpt lat="59.4157193326" lon="17.807751731">
        <ele>104</ele>
        <time>2012-10-08T21:28:52Z</time>
      </trkpt>
      <trkpt lat="59.4157308996" lon="17.8076229012">
        <ele>103.6</ele>
        <time>2012-10-08T21:28:53Z</time>
      </trkpt>
      <trkpt lat="59.4157490045" lon="17.8072767288">
        <ele>103.6</ele>
        <time>2012-10-08T21:28:56Z</time>
      </trkpt>
      <trkpt lat="59.4157667742" lon="17.8071583763">
        <ele>103.6</ele>
        <time>2012-10-08T21:28:57Z</time>
      </trkpt>
      <trkpt lat="59.4158211727" lon="17.8069704541">
        <ele>103.6</ele>
        <time>2012-10-08T21:28:59Z</time>
      </trkpt>
      <trkpt lat="59.415873811" lon="17.8069313945">
        <ele>103.6</ele>
        <time>2012-10-08T21:29:00Z</time>
      </trkpt>
      <trkpt lat="59.4159829434" lon="17.8070044008">
        <ele>103.6</ele>
        <time>2012-10-08T21:29:02Z</time>
      </trkpt>
      <trkpt lat="59.4162101767" lon="17.8070454722">
        <ele>103.6</ele>
        <time>2012-10-08T21:29:06Z</time>
      </trkpt>
      <trkpt lat="59.416267006" lon="17.8070389343">
        <ele>103.6</ele>
        <time>2012-10-08T21:29:07Z</time>
      </trkpt>
      <trkpt lat="59.4165194688" lon="17.8069907383">
        <ele>103.6</ele>
        <time>2012-10-08T21:29:12Z</time>
      </trkpt>
      <trkpt lat="59.4166733605" lon="17.8070102682">
        <ele>103.6</ele>
        <time>2012-10-08T21:29:16Z</time>
      </trkpt>
      <trkpt lat="59.4167133421" lon="17.8069933367">
        <ele>103.6</ele>
        <time>2012-10-08T21:29:17Z</time>
      </trkpt>
      <trkpt lat="59.4168301858" lon="17.8069684425">
        <ele>104</ele>
        <time>2012-10-08T21:29:20Z</time>
      </trkpt>
      <trkpt lat="59.4168698322" lon="17.8069640839">
        <ele>104.6</ele>
        <time>2012-10-08T21:29:21Z</time>
      </trkpt>
      <trkpt lat="59.4169074669" lon="17.8069748127">
        <ele>105</ele>
        <time>2012-10-08T21:29:22Z</time>
      </trkpt>
      <trkpt lat="59.4169450178" lon="17.8069674367">
        <ele>105.4</ele>
        <time>2012-10-08T21:29:23Z</time>
      </trkpt>
      <trkpt lat="59.416985251" lon="17.8069627428">
        <ele>106</ele>
        <time>2012-10-08T21:29:24Z</time>
      </trkpt>
      <trkpt lat="59.4171733408" lon="17.8069634134">
        <ele>106.4</ele>
        <time>2012-10-08T21:29:28Z</time>
      </trkpt>
      <trkpt lat="59.4172267335" lon="17.8069720467">
        <ele>106.8</ele>
        <time>2012-10-08T21:29:29Z</time>
      </trkpt>
      <trkpt lat="59.4172692297" lon="17.8069755671">
        <ele>107.2</ele>
        <time>2012-10-08T21:29:30Z</time>
      </trkpt>
      <trkpt lat="59.4173144082" lon="17.8069935882">
        <ele>107.6</ele>
        <time>2012-10-08T21:29:31Z</time>
      </trkpt>
      <trkpt lat="59.4173576588" lon="17.8070129504">
        <ele>108.2</ele>
        <time>2012-10-08T21:29:32Z</time>
      </trkpt>
      <trkpt lat="59.4173991492" lon="17.807034911">
        <ele>108.2</ele>
        <time>2012-10-08T21:29:33Z</time>
      </trkpt>
      <trkpt lat="59.4176420567" lon="17.8071401038">
        <ele>108.6</ele>
        <time>2012-10-08T21:29:38Z</time>
      </trkpt>
      <trkpt lat="59.4176905879" lon="17.8071662553">
        <ele>109</ele>
        <time>2012-10-08T21:29:39Z</time>
      </trkpt>
      <trkpt lat="59.4177379456" lon="17.8071986095">
        <ele>109.4</ele>
        <time>2012-10-08T21:29:40Z</time>
      </trkpt>
      <trkpt lat="59.4177868959" lon="17.8072288681">
        <ele>109.8</ele>
        <time>2012-10-08T21:29:41Z</time>
      </trkpt>
      <trkpt lat="59.4178366844" lon="17.8072573666">
        <ele>110.2</ele>
        <time>2012-10-08T21:29:42Z</time>
      </trkpt>
      <trkpt lat="59.4180504228" lon="17.8073512439">
        <ele>110.2</ele>
        <time>2012-10-08T21:29:46Z</time>
      </trkpt>
      <trkpt lat="59.4184588728" lon="17.8076412576">
        <ele>110.2</ele>
        <time>2012-10-08T21:29:53Z</time>
      </trkpt>
      <trkpt lat="59.4185733696" lon="17.8080024337">
        <ele>110.2</ele>
        <time>2012-10-08T21:29:56Z</time>
      </trkpt>
      <trkpt lat="59.4185944919" lon="17.80814677">
        <ele>109.8</ele>
        <time>2012-10-08T21:29:57Z</time>
      </trkpt>
      <trkpt lat="59.4185956654" lon="17.808307451">
        <ele>109.2</ele>
        <time>2012-10-08T21:29:58Z</time>
      </trkpt>
      <trkpt lat="59.4185919774" lon="17.8084668748">
        <ele>108.8</ele>
        <time>2012-10-08T21:29:59Z</time>
      </trkpt>
      <trkpt lat="59.418588457" lon="17.8086328364">
        <ele>108.4</ele>
        <time>2012-10-08T21:30:00Z</time>
      </trkpt>
      <trkpt lat="59.4185965874" lon="17.8087919248">
        <ele>108</ele>
        <time>2012-10-08T21:30:01Z</time>
      </trkpt>
      <trkpt lat="59.4186006946" lon="17.8089447269">
        <ele>107.6</ele>
        <time>2012-10-08T21:30:02Z</time>
      </trkpt>
      <trkpt lat="59.4186052208" lon="17.8090993729">
        <ele>107.2</ele>
        <time>2012-10-08T21:30:03Z</time>
      </trkpt>
      <trkpt lat="59.4186073163" lon="17.8092458885">
        <ele>106.8</ele>
        <time>2012-10-08T21:30:04Z</time>
      </trkpt>
      <trkpt lat="59.4186048855" lon="17.8093917336">
        <ele>106.2</ele>
        <time>2012-10-08T21:30:05Z</time>
      </trkpt>
      <trkpt lat="59.4186048855" lon="17.8095400932">
        <ele>105.8</ele>
        <time>2012-10-08T21:30:06Z</time>
      </trkpt>
      <trkpt lat="59.4186035444" lon="17.8100689911">
        <ele>105.8</ele>
        <time>2012-10-08T21:30:10Z</time>
      </trkpt>
      <trkpt lat="59.4186258403" lon="17.8110519365">
        <ele>105.4</ele>
        <time>2012-10-08T21:30:18Z</time>
      </trkpt>
      <trkpt lat="59.4186339707" lon="17.8111665171">
        <ele>105</ele>
        <time>2012-10-08T21:30:19Z</time>
      </trkpt>
      <trkpt lat="59.4186399218" lon="17.8112697821">
        <ele>104.6</ele>
        <time>2012-10-08T21:30:20Z</time>
      </trkpt>
      <trkpt lat="59.418651405" lon="17.8113681856">
        <ele>104.2</ele>
        <time>2012-10-08T21:30:21Z</time>
      </trkpt>
      <trkpt lat="59.4186615471" lon="17.8114696066">
        <ele>103.8</ele>
        <time>2012-10-08T21:30:22Z</time>
      </trkpt>
      <trkpt lat="59.418663475" lon="17.8115593768">
        <ele>103.8</ele>
        <time>2012-10-08T21:30:23Z</time>
      </trkpt>
      <trkpt lat="59.4186498963" lon="17.811672281">
        <ele>103.2</ele>
        <time>2012-10-08T21:30:24Z</time>
      </trkpt>
      <trkpt lat="59.4186016166" lon="17.8117631407">
        <ele>102.8</ele>
        <time>2012-10-08T21:30:25Z</time>
      </trkpt>
      <trkpt lat="59.41854814" lon="17.8118103308">
        <ele>102.4</ele>
        <time>2012-10-08T21:30:26Z</time>
      </trkpt>
      <trkpt lat="59.4184890476" lon="17.8118354765">
        <ele>102</ele>
        <time>2012-10-08T21:30:27Z</time>
      </trkpt>
      <trkpt lat="59.4184312125" lon="17.8118613766">
        <ele>101.6</ele>
        <time>2012-10-08T21:30:28Z</time>
      </trkpt>
      <trkpt lat="59.4183729583" lon="17.8118699262">
        <ele>101.6</ele>
        <time>2012-10-08T21:30:29Z</time>
      </trkpt>
      <trkpt lat="59.4180361736" lon="17.8118722731">
        <ele>101.6</ele>
        <time>2012-10-08T21:30:35Z</time>
      </trkpt>
      <trkpt lat="59.4176086967" lon="17.8119428487">
        <ele>101.6</ele>
        <time>2012-10-08T21:30:43Z</time>
      </trkpt>
      <trkpt lat="59.4175038391" lon="17.8121493787">
        <ele>101.6</ele>
        <time>2012-10-08T21:30:46Z</time>
      </trkpt>
      <trkpt lat="59.4174904281" lon="17.8122345388">
        <ele>101</ele>
        <time>2012-10-08T21:30:47Z</time>
      </trkpt>
      <trkpt lat="59.4175060184" lon="17.8123272426">
        <ele>100.6</ele>
        <time>2012-10-08T21:30:48Z</time>
      </trkpt>
      <trkpt lat="59.4175273084" lon="17.8124050267">
        <ele>100</ele>
        <time>2012-10-08T21:30:49Z</time>
      </trkpt>
      <trkpt lat="59.4175448266" lon="17.8124597605">
        <ele>99.6</ele>
        <time>2012-10-08T21:30:50Z</time>
      </trkpt>
      <trkpt lat="59.4175475088" lon="17.8125305037">
        <ele>99</ele>
        <time>2012-10-08T21:30:51Z</time>
      </trkpt>
      <trkpt lat="59.4175590758" lon="17.8126812941">
        <ele>99</ele>
        <time>2012-10-08T21:30:53Z</time>
      </trkpt>
      <trkpt lat="59.4176627599" lon="17.8128995588">
        <ele>99</ele>
        <time>2012-10-08T21:30:56Z</time>
      </trkpt>
      <trkpt lat="59.4177516081" lon="17.8130287238">
        <ele>99</ele>
        <time>2012-10-08T21:30:58Z</time>
      </trkpt>
      <trkpt lat="59.4179426316" lon="17.813324102">
        <ele>99</ele>
        <time>2012-10-08T21:31:02Z</time>
      </trkpt>
      <trkpt lat="59.4182246825" lon="17.8136644909">
        <ele>99</ele>
        <time>2012-10-08T21:31:07Z</time>
      </trkpt>
      <trkpt lat="59.4182857028" lon="17.813720482">
        <ele>99</ele>
        <time>2012-10-08T21:31:08Z</time>
      </trkpt>
      <trkpt lat="59.4186089088" lon="17.8141674888">
        <ele>99</ele>
        <time>2012-10-08T21:31:14Z</time>
      </trkpt>
      <trkpt lat="59.4187090725" lon="17.8143194526">
        <ele>98.6</ele>
        <time>2012-10-08T21:31:16Z</time>
      </trkpt>
      <trkpt lat="59.4187620461" lon="17.8143996674">
        <ele>98.2</ele>
        <time>2012-10-08T21:31:17Z</time>
      </trkpt>
      <trkpt lat="59.4188140139" lon="17.8144769485">
        <ele>97.6</ele>
        <time>2012-10-08T21:31:18Z</time>
      </trkpt>
      <trkpt lat="59.4188684124" lon="17.8145565766">
        <ele>97.2</ele>
        <time>2012-10-08T21:31:19Z</time>
      </trkpt>
      <trkpt lat="59.4189228948" lon="17.8146376295">
        <ele>96.8</ele>
        <time>2012-10-08T21:31:20Z</time>
      </trkpt>
      <trkpt lat="59.4192264872" lon="17.8151043337">
        <ele>96.8</ele>
        <time>2012-10-08T21:31:26Z</time>
      </trkpt>
      <trkpt lat="59.4192725877" lon="17.8151732329">
        <ele>96.8</ele>
        <time>2012-10-08T21:31:27Z</time>
      </trkpt>
      <trkpt lat="59.4193257289" lon="17.8152024858">
        <ele>96.8</ele>
        <time>2012-10-08T21:31:28Z</time>
      </trkpt>
      <trkpt lat="59.4194177622" lon="17.8150754162">
        <ele>96.8</ele>
        <time>2012-10-08T21:31:30Z</time>
      </trkpt>
      <trkpt lat="59.4194626053" lon="17.8148568162">
        <ele>96.8</ele>
        <time>2012-10-08T21:31:32Z</time>
      </trkpt>
      <trkpt lat="59.4195058559" lon="17.8147603406">
        <ele>96.8</ele>
        <time>2012-10-08T21:31:33Z</time>
      </trkpt>
      <trkpt lat="59.4197014057" lon="17.814473931">
        <ele>96.8</ele>
        <time>2012-10-08T21:31:37Z</time>
      </trkpt>
      <trkpt lat="59.4199056726" lon="17.8142275032">
        <ele>96.8</ele>
        <time>2012-10-08T21:31:41Z</time>
      </trkpt>
      <trkpt lat="59.4199459057" lon="17.8141339612">
        <ele>96.8</ele>
        <time>2012-10-08T21:31:42Z</time>
      </trkpt>
      <trkpt lat="59.4201282958" lon="17.8136240064">
        <ele>96.8</ele>
        <time>2012-10-08T21:31:47Z</time>
      </trkpt>
      <trkpt lat="59.4203946726" lon="17.8127900073">
        <ele>96.8</ele>
        <time>2012-10-08T21:31:55Z</time>
      </trkpt>
      <trkpt lat="59.4206893802" lon="17.8118633883">
        <ele>96.8</ele>
        <time>2012-10-08T21:32:04Z</time>
      </trkpt>
      <trkpt lat="59.4208068106" lon="17.8114504121">
        <ele>96.8</ele>
        <time>2012-10-08T21:32:08Z</time>
      </trkpt>
      <trkpt lat="59.4208644781" lon="17.8112466481">
        <ele>96.8</ele>
        <time>2012-10-08T21:32:10Z</time>
      </trkpt>
      <trkpt lat="59.4209377359" lon="17.8110659343">
        <ele>96.8</ele>
        <time>2012-10-08T21:32:12Z</time>
      </trkpt>
      <trkpt lat="59.420981238" lon="17.8109865577">
        <ele>96.8</ele>
        <time>2012-10-08T21:32:13Z</time>
      </trkpt>
      <trkpt lat="59.421035888" lon="17.8109437262">
        <ele>96.8</ele>
        <time>2012-10-08T21:32:14Z</time>
      </trkpt>
      <trkpt lat="59.4211538213" lon="17.8110025671">
        <ele>96.8</ele>
        <time>2012-10-08T21:32:16Z</time>
      </trkpt>
      <trkpt lat="59.4213321043" lon="17.8111576323">
        <ele>96.8</ele>
        <time>2012-10-08T21:32:19Z</time>
      </trkpt>
      <trkpt lat="59.4214481098" lon="17.8112673514">
        <ele>96.8</ele>
        <time>2012-10-08T21:32:21Z</time>
      </trkpt>
      <trkpt lat="59.4215676357" lon="17.811361061">
        <ele>96.8</ele>
        <time>2012-10-08T21:32:23Z</time>
      </trkpt>
      <trkpt lat="59.421680959" lon="17.8114704448">
        <ele>96.8</ele>
        <time>2012-10-08T21:32:25Z</time>
      </trkpt>
      <trkpt lat="59.4217366148" lon="17.8115198142">
        <ele>96.8</ele>
        <time>2012-10-08T21:32:26Z</time>
      </trkpt>
      <trkpt lat="59.4221053346" lon="17.8119003525">
        <ele>96.8</ele>
        <time>2012-10-08T21:32:33Z</time>
      </trkpt>
      <trkpt lat="59.4222024808" lon="17.8119838362">
        <ele>96.8</ele>
        <time>2012-10-08T21:32:35Z</time>
      </trkpt>
      <trkpt lat="59.4223327355" lon="17.8121050384">
        <ele>96.8</ele>
        <time>2012-10-08T21:32:38Z</time>
      </trkpt>
      <trkpt lat="59.4225339849" lon="17.8122623667">
        <ele>96.8</ele>
        <time>2012-10-08T21:32:44Z</time>
      </trkpt>
      <trkpt lat="59.4225618967" lon="17.8122944694">
        <ele>97.2</ele>
        <time>2012-10-08T21:32:45Z</time>
      </trkpt>
      <trkpt lat="59.422589976" lon="17.8123326909">
        <ele>97.6</ele>
        <time>2012-10-08T21:32:46Z</time>
      </trkpt>
      <trkpt lat="59.4226230845" lon="17.812366889">
        <ele>98</ele>
        <time>2012-10-08T21:32:47Z</time>
      </trkpt>
      <trkpt lat="59.422664994" lon="17.8123506281">
        <ele>98.4</ele>
        <time>2012-10-08T21:32:48Z</time>
      </trkpt>
      <trkpt lat="59.4227052272" lon="17.8123351216">
        <ele>98.8</ele>
        <time>2012-10-08T21:32:49Z</time>
      </trkpt>
      <trkpt lat="59.4227707736" lon="17.8122354608">
        <ele>99.2</ele>
        <time>2012-10-08T21:32:51Z</time>
      </trkpt>
      <trkpt lat="59.4227965061" lon="17.812164047">
        <ele>99.6</ele>
        <time>2012-10-08T21:32:52Z</time>
      </trkpt>
      <trkpt lat="59.4228170417" lon="17.8120845866">
        <ele>100</ele>
        <time>2012-10-08T21:32:53Z</time>
      </trkpt>
      <trkpt lat="59.4228395052" lon="17.8120107421">
        <ele>100.4</ele>
        <time>2012-10-08T21:32:54Z</time>
      </trkpt>
      <trkpt lat="59.4228584483" lon="17.8119332933">
        <ele>100.8</ele>
        <time>2012-10-08T21:32:55Z</time>
      </trkpt>
      <trkpt lat="59.4229131821" lon="17.8117668288">
        <ele>100.8</ele>
        <time>2012-10-08T21:32:57Z</time>
      </trkpt>
      <trkpt lat="59.4229664072" lon="17.8116065669">
        <ele>100.8</ele>
        <time>2012-10-08T21:32:59Z</time>
      </trkpt>
      <trkpt lat="59.4230689178" lon="17.8112441335">
        <ele>100.8</ele>
        <time>2012-10-08T21:33:03Z</time>
      </trkpt>
      <trkpt lat="59.4232259946" lon="17.8106846417">
        <ele>100.8</ele>
        <time>2012-10-08T21:33:09Z</time>
      </trkpt>
      <trkpt lat="59.4233492924" lon="17.8102484476">
        <ele>100.8</ele>
        <time>2012-10-08T21:33:14Z</time>
      </trkpt>
      <trkpt lat="59.4233935488" lon="17.8101960607">
        <ele>100.8</ele>
        <time>2012-10-08T21:33:15Z</time>
      </trkpt>
      <trkpt lat="59.4235313472" lon="17.8102594279">
        <ele>100.8</ele>
        <time>2012-10-08T21:33:18Z</time>
      </trkpt>
      <trkpt lat="59.4236076225" lon="17.810364956">
        <ele>100.8</ele>
        <time>2012-10-08T21:33:20Z</time>
      </trkpt>
      <trkpt lat="59.4236764379" lon="17.8104365374">
        <ele>101.2</ele>
        <time>2012-10-08T21:33:22Z</time>
      </trkpt>
      <trkpt lat="59.4237035953" lon="17.8104843981">
        <ele>101.6</ele>
        <time>2012-10-08T21:33:23Z</time>
      </trkpt>
      <trkpt lat="59.4237357818" lon="17.8105371202">
        <ele>102</ele>
        <time>2012-10-08T21:33:24Z</time>
      </trkpt>
      <trkpt lat="59.4237662919" lon="17.8105778563">
        <ele>102.6</ele>
        <time>2012-10-08T21:33:25Z</time>
      </trkpt>
      <trkpt lat="59.4238048486" lon="17.8106262198">
        <ele>103</ele>
        <time>2012-10-08T21:33:26Z</time>
      </trkpt>
      <trkpt lat="59.42383385" lon="17.810684977">
        <ele>103.4</ele>
        <time>2012-10-08T21:33:27Z</time>
      </trkpt>
      <trkpt lat="59.4238680482" lon="17.8107426444">
        <ele>103.8</ele>
        <time>2012-10-08T21:33:28Z</time>
      </trkpt>
      <trkpt lat="59.4238941997" lon="17.8107674548">
        <ele>104.2</ele>
        <time>2012-10-08T21:33:29Z</time>
      </trkpt>
      <trkpt lat="59.4239218599" lon="17.8108028265">
        <ele>104.6</ele>
        <time>2012-10-08T21:33:30Z</time>
      </trkpt>
      <trkpt lat="59.4239522862" lon="17.8108390363">
        <ele>105</ele>
        <time>2012-10-08T21:33:31Z</time>
      </trkpt>
      <trkpt lat="59.4239835507" lon="17.8108633438">
        <ele>105</ele>
        <time>2012-10-08T21:33:32Z</time>
      </trkpt>
      <trkpt lat="59.4240159887" lon="17.8109068458">
        <ele>105.4</ele>
        <time>2012-10-08T21:33:33Z</time>
      </trkpt>
      <trkpt lat="59.4240478399" lon="17.8109402058">
        <ele>105.8</ele>
        <time>2012-10-08T21:33:34Z</time>
      </trkpt>
      <trkpt lat="59.4240748296" lon="17.8109664412">
        <ele>106.2</ele>
        <time>2012-10-08T21:33:35Z</time>
      </trkpt>
      <trkpt lat="59.4240972931" lon="17.8109920898">
        <ele>106.6</ele>
        <time>2012-10-08T21:33:36Z</time>
      </trkpt>
      <trkpt lat="59.4241212654" lon="17.811016984">
        <ele>107</ele>
        <time>2012-10-08T21:33:37Z</time>
      </trkpt>
      <trkpt lat="59.4242181601" lon="17.8111362584">
        <ele>107.4</ele>
        <time>2012-10-08T21:33:41Z</time>
      </trkpt>
      <trkpt lat="59.4242394501" lon="17.8111764916">
        <ele>107.8</ele>
        <time>2012-10-08T21:33:42Z</time>
      </trkpt>
      <trkpt lat="59.4242624165" lon="17.8112042357">
        <ele>108.2</ele>
        <time>2012-10-08T21:33:43Z</time>
      </trkpt>
      <trkpt lat="59.4242883166" lon="17.8112272859">
        <ele>108.6</ele>
        <time>2012-10-08T21:33:44Z</time>
      </trkpt>
      <trkpt lat="59.4243101096" lon="17.8112565387">
        <ele>109</ele>
        <time>2012-10-08T21:33:45Z</time>
      </trkpt>
      <trkpt lat="59.4244386879" lon="17.8113879669">
        <ele>109.4</ele>
        <time>2012-10-08T21:33:50Z</time>
      </trkpt>
      <trkpt lat="59.4244626601" lon="17.8114127773">
        <ele>109.8</ele>
        <time>2012-10-08T21:33:51Z</time>
      </trkpt>
      <trkpt lat="59.4244906557" lon="17.8114400185">
        <ele>110.2</ele>
        <time>2012-10-08T21:33:52Z</time>
      </trkpt>
      <trkpt lat="59.4245153823" lon="17.8114796649">
        <ele>110.6</ele>
        <time>2012-10-08T21:33:53Z</time>
      </trkpt>
      <trkpt lat="59.4245415338" lon="17.8115136116">
        <ele>111</ele>
        <time>2012-10-08T21:33:54Z</time>
      </trkpt>
      <trkpt lat="59.424615546" lon="17.8116072374">
        <ele>111</ele>
        <time>2012-10-08T21:33:57Z</time>
      </trkpt>
      <trkpt lat="59.4247745506" lon="17.811795914">
        <ele>111.4</ele>
        <time>2012-10-08T21:34:02Z</time>
      </trkpt>
      <trkpt lat="59.4248042226" lon="17.8118368176">
        <ele>112.4</ele>
        <time>2012-10-08T21:34:03Z</time>
      </trkpt>
      <trkpt lat="59.4248316314" lon="17.811880655">
        <ele>112.8</ele>
        <time>2012-10-08T21:34:04Z</time>
      </trkpt>
      <trkpt lat="59.4248602975" lon="17.8119229836">
        <ele>113.2</ele>
        <time>2012-10-08T21:34:05Z</time>
      </trkpt>
      <trkpt lat="59.4249488103" lon="17.812018202">
        <ele>113.2</ele>
        <time>2012-10-08T21:34:08Z</time>
      </trkpt>
      <trkpt lat="59.4249785661" lon="17.8120569263">
        <ele>113.6</ele>
        <time>2012-10-08T21:34:09Z</time>
      </trkpt>
      <trkpt lat="59.4250110879" lon="17.8120885261">
        <ele>114</ele>
        <time>2012-10-08T21:34:10Z</time>
      </trkpt>
      <trkpt lat="59.4250431905" lon="17.8121149291">
        <ele>114.4</ele>
        <time>2012-10-08T21:34:11Z</time>
      </trkpt>
      <trkpt lat="59.425071689" lon="17.8121523124">
        <ele>114.8</ele>
        <time>2012-10-08T21:34:12Z</time>
      </trkpt>
      <trkpt lat="59.4251016124" lon="17.8121972393">
        <ele>115.2</ele>
        <time>2012-10-08T21:34:13Z</time>
      </trkpt>
      <trkpt lat="59.4251285183" lon="17.8122274142">
        <ele>115.2</ele>
        <time>2012-10-08T21:34:14Z</time>
      </trkpt>
      <trkpt lat="59.4252693342" lon="17.8124317649">
        <ele>115.2</ele>
        <time>2012-10-08T21:34:19Z</time>
      </trkpt>
      <trkpt lat="59.4254052886" lon="17.8126424859">
        <ele>115.6</ele>
        <time>2012-10-08T21:34:24Z</time>
      </trkpt>
      <trkpt lat="59.4254289256" lon="17.8126824675">
        <ele>116.2</ele>
        <time>2012-10-08T21:34:25Z</time>
      </trkpt>
      <trkpt lat="59.4254488745" lon="17.8127378719">
        <ele>116.6</ele>
        <time>2012-10-08T21:34:26Z</time>
      </trkpt>
      <trkpt lat="59.4254679014" lon="17.8127947012">
        <ele>117</ele>
        <time>2012-10-08T21:34:27Z</time>
      </trkpt>
      <trkpt lat="59.4254848328" lon="17.8128532907">
        <ele>117.4</ele>
        <time>2012-10-08T21:34:28Z</time>
      </trkpt>
      <trkpt lat="59.4255357948" lon="17.8130254549">
        <ele>117.4</ele>
        <time>2012-10-08T21:34:31Z</time>
      </trkpt>
      <trkpt lat="59.425600084" lon="17.8132723018">
        <ele>117.8</ele>
        <time>2012-10-08T21:34:35Z</time>
      </trkpt>
      <trkpt lat="59.4256167639" lon="17.8133177317">
        <ele>118.2</ele>
        <time>2012-10-08T21:34:36Z</time>
      </trkpt>
      <trkpt lat="59.4256313485" lon="17.8133774947">
        <ele>118.6</ele>
        <time>2012-10-08T21:34:37Z</time>
      </trkpt>
      <trkpt lat="59.4256436698" lon="17.8134349107">
        <ele>119</ele>
        <time>2012-10-08T21:34:38Z</time>
      </trkpt>
      <trkpt lat="59.4256581705" lon="17.8134923267">
        <ele>119.4</ele>
        <time>2012-10-08T21:34:39Z</time>
      </trkpt>
      <trkpt lat="59.4257425763" lon="17.8137703543">
        <ele>119.4</ele>
        <time>2012-10-08T21:34:44Z</time>
      </trkpt>
      <trkpt lat="59.4257852401" lon="17.8138772236">
        <ele>119.8</ele>
        <time>2012-10-08T21:34:46Z</time>
      </trkpt>
      <trkpt lat="59.425803848" lon="17.8139379085">
        <ele>120.2</ele>
        <time>2012-10-08T21:34:47Z</time>
      </trkpt>
      <trkpt lat="59.425821869" lon="17.8140068916">
        <ele>120.6</ele>
        <time>2012-10-08T21:34:48Z</time>
      </trkpt>
      <trkpt lat="59.4258424047" lon="17.8140749526">
        <ele>121</ele>
        <time>2012-10-08T21:34:49Z</time>
      </trkpt>
      <trkpt lat="59.4258613478" lon="17.8141476237">
        <ele>121.4</ele>
        <time>2012-10-08T21:34:50Z</time>
      </trkpt>
      <trkpt lat="59.425970983" lon="17.8144938799">
        <ele>121.8</ele>
        <time>2012-10-08T21:34:56Z</time>
      </trkpt>
      <trkpt lat="59.4259923569" lon="17.81455314">
        <ele>122.2</ele>
        <time>2012-10-08T21:34:57Z</time>
      </trkpt>
      <trkpt lat="59.4260123896" lon="17.8146077062">
        <ele>122.6</ele>
        <time>2012-10-08T21:34:58Z</time>
      </trkpt>
      <trkpt lat="59.4260329253" lon="17.8146568241">
        <ele>123</ele>
        <time>2012-10-08T21:34:59Z</time>
      </trkpt>
      <trkpt lat="59.4260504435" lon="17.8147098815">
        <ele>123.4</ele>
        <time>2012-10-08T21:35:00Z</time>
      </trkpt>
      <trkpt lat="59.4260964601" lon="17.8148400524">
        <ele>123.4</ele>
        <time>2012-10-08T21:35:03Z</time>
      </trkpt>
      <trkpt lat="59.4261459971" lon="17.8150357698">
        <ele>123.8</ele>
        <time>2012-10-08T21:35:06Z</time>
      </trkpt>
      <trkpt lat="59.4261617551" lon="17.8151034955">
        <ele>124.4</ele>
        <time>2012-10-08T21:35:07Z</time>
      </trkpt>
      <trkpt lat="59.4261717295" lon="17.8151752446">
        <ele>124.8</ele>
        <time>2012-10-08T21:35:08Z</time>
      </trkpt>
      <trkpt lat="59.4261884933" lon="17.8152407072">
        <ele>125.2</ele>
        <time>2012-10-08T21:35:09Z</time>
      </trkpt>
      <trkpt lat="59.4262045866" lon="17.8153076786">
        <ele>125.6</ele>
        <time>2012-10-08T21:35:10Z</time>
      </trkpt>
      <trkpt lat="59.426265523" lon="17.8155448026">
        <ele>125.6</ele>
        <time>2012-10-08T21:35:14Z</time>
      </trkpt>
      <trkpt lat="59.4263505155" lon="17.8158994408">
        <ele>126</ele>
        <time>2012-10-08T21:35:20Z</time>
      </trkpt>
      <trkpt lat="59.4263657705" lon="17.8159466309">
        <ele>126.4</ele>
        <time>2012-10-08T21:35:21Z</time>
      </trkpt>
      <trkpt lat="59.4263825343" lon="17.8159954973">
        <ele>126.8</ele>
        <time>2012-10-08T21:35:22Z</time>
      </trkpt>
      <trkpt lat="59.4263957777" lon="17.8160421007">
        <ele>127.2</ele>
        <time>2012-10-08T21:35:23Z</time>
      </trkpt>
      <trkpt lat="59.4264132959" lon="17.8160984271">
        <ele>127.8</ele>
        <time>2012-10-08T21:35:24Z</time>
      </trkpt>
      <trkpt lat="59.4264754058" lon="17.8162439369">
        <ele>127.8</ele>
        <time>2012-10-08T21:35:26Z</time>
      </trkpt>
      <trkpt lat="59.4264997133" lon="17.8162956532">
        <ele>127.8</ele>
        <time>2012-10-08T21:35:27Z</time>
      </trkpt>
      <trkpt lat="59.4265768268" lon="17.8164404086">
        <ele>127.8</ele>
        <time>2012-10-08T21:35:29Z</time>
      </trkpt>
      <trkpt lat="59.4266956821" lon="17.816645849">
        <ele>127.2</ele>
        <time>2012-10-08T21:35:32Z</time>
      </trkpt>
      <trkpt lat="59.4267541878" lon="17.8167124851">
        <ele>126.8</ele>
        <time>2012-10-08T21:35:33Z</time>
      </trkpt>
      <trkpt lat="59.4268125258" lon="17.8168015847">
        <ele>126.4</ele>
        <time>2012-10-08T21:35:34Z</time>
      </trkpt>
      <trkpt lat="59.4268743004" lon="17.8169297439">
        <ele>126</ele>
        <time>2012-10-08T21:35:35Z</time>
      </trkpt>
      <trkpt lat="59.4269266035" lon="17.8170631838">
        <ele>125.4</ele>
        <time>2012-10-08T21:35:36Z</time>
      </trkpt>
      <trkpt lat="59.4269830136" lon="17.8171961207">
        <ele>125</ele>
        <time>2012-10-08T21:35:37Z</time>
      </trkpt>
      <trkpt lat="59.4270400944" lon="17.8173277165">
        <ele>124.4</ele>
        <time>2012-10-08T21:35:38Z</time>
      </trkpt>
      <trkpt lat="59.4270944929" lon="17.8174541156">
        <ele>123.8</ele>
        <time>2012-10-08T21:35:39Z</time>
      </trkpt>
      <trkpt lat="59.4271500649" lon="17.8175642537">
        <ele>123.4</ele>
        <time>2012-10-08T21:35:40Z</time>
      </trkpt>
      <trkpt lat="59.4272010269" lon="17.8176507549">
        <ele>122.8</ele>
        <time>2012-10-08T21:35:41Z</time>
      </trkpt>
      <trkpt lat="59.4272427687" lon="17.8177273655">
        <ele>122</ele>
        <time>2012-10-08T21:35:42Z</time>
      </trkpt>
      <trkpt lat="59.4272746199" lon="17.8178014615">
        <ele>121.6</ele>
        <time>2012-10-08T21:35:43Z</time>
      </trkpt>
      <trkpt lat="59.4273115003" lon="17.8178856996">
        <ele>121</ele>
        <time>2012-10-08T21:35:44Z</time>
      </trkpt>
      <trkpt lat="59.4273484645" lon="17.8179792416">
        <ele>120.6</ele>
        <time>2012-10-08T21:35:45Z</time>
      </trkpt>
      <trkpt lat="59.427386686" lon="17.8180912238">
        <ele>120</ele>
        <time>2012-10-08T21:35:46Z</time>
      </trkpt>
      <trkpt lat="59.4274368097" lon="17.8181939859">
        <ele>119.6</ele>
        <time>2012-10-08T21:35:47Z</time>
      </trkpt>
      <trkpt lat="59.4274946448" lon="17.8183104943">
        <ele>119</ele>
        <time>2012-10-08T21:35:48Z</time>
      </trkpt>
      <trkpt lat="59.4275639631" lon="17.8184498015">
        <ele>118.4</ele>
        <time>2012-10-08T21:35:49Z</time>
      </trkpt>
      <trkpt lat="59.4276312698" lon="17.8185821517">
        <ele>118</ele>
        <time>2012-10-08T21:35:50Z</time>
      </trkpt>
      <trkpt lat="59.4276978221" lon="17.8187229676">
        <ele>117.4</ele>
        <time>2012-10-08T21:35:51Z</time>
      </trkpt>
      <trkpt lat="59.4277665537" lon="17.8188691479">
        <ele>116.8</ele>
        <time>2012-10-08T21:35:52Z</time>
      </trkpt>
      <trkpt lat="59.4278445053" lon="17.8190064435">
        <ele>116</ele>
        <time>2012-10-08T21:35:53Z</time>
      </trkpt>
      <trkpt lat="59.4279123149" lon="17.8191584073">
        <ele>115.4</ele>
        <time>2012-10-08T21:35:54Z</time>
      </trkpt>
      <trkpt lat="59.4279776099" lon="17.8193026598">
        <ele>114.6</ele>
        <time>2012-10-08T21:35:55Z</time>
      </trkpt>
      <trkpt lat="59.4280449166" lon="17.8194424699">
        <ele>113.8</ele>
        <time>2012-10-08T21:35:56Z</time>
      </trkpt>
      <trkpt lat="59.4281020811" lon="17.8195816094">
        <ele>113</ele>
        <time>2012-10-08T21:35:57Z</time>
      </trkpt>
      <trkpt lat="59.4281543842" lon="17.8197211681">
        <ele>112.4</ele>
        <time>2012-10-08T21:35:58Z</time>
      </trkpt>
      <trkpt lat="59.4282059329" lon="17.8198409454">
        <ele>111.6</ele>
        <time>2012-10-08T21:35:59Z</time>
      </trkpt>
      <trkpt lat="59.4282838845" lon="17.8199917358">
        <ele>111.6</ele>
        <time>2012-10-08T21:36:01Z</time>
      </trkpt>
      <trkpt lat="59.4283179989" lon="17.8200009559">
        <ele>111</ele>
        <time>2012-10-08T21:36:02Z</time>
      </trkpt>
      <trkpt lat="59.4283465811" lon="17.8199835215">
        <ele>110.6</ele>
        <time>2012-10-08T21:36:03Z</time>
      </trkpt>
      <trkpt lat="59.4283817013" lon="17.8199614771">
        <ele>110</ele>
        <time>2012-10-08T21:36:04Z</time>
      </trkpt>
      <trkpt lat="59.4284169891" lon="17.8199187294">
        <ele>109.6</ele>
        <time>2012-10-08T21:36:05Z</time>
      </trkpt>
      <trkpt lat="59.4284452361" lon="17.8198650853">
        <ele>109.2</ele>
        <time>2012-10-08T21:36:06Z</time>
      </trkpt>
      <trkpt lat="59.4284727287" lon="17.8198041489">
        <ele>109.2</ele>
        <time>2012-10-08T21:36:07Z</time>
      </trkpt>
      <trkpt lat="59.4285010596" lon="17.8197239341">
        <ele>109.2</ele>
        <time>2012-10-08T21:36:08Z</time>
      </trkpt>
      <trkpt lat="59.4287125349" lon="17.8192407176">
        <ele>109.2</ele>
        <time>2012-10-08T21:36:14Z</time>
      </trkpt>
      <trkpt lat="59.4289503294" lon="17.8186220495">
        <ele>109.2</ele>
        <time>2012-10-08T21:36:21Z</time>
      </trkpt>
      <trkpt lat="59.4289883832" lon="17.8185420862">
        <ele>109.2</ele>
        <time>2012-10-08T21:36:22Z</time>
      </trkpt>
      <trkpt lat="59.4290622278" lon="17.8183643061">
        <ele>109.2</ele>
        <time>2012-10-08T21:36:24Z</time>
      </trkpt>
      <trkpt lat="59.429169097" lon="17.818084183">
        <ele>109.2</ele>
        <time>2012-10-08T21:36:27Z</time>
      </trkpt>
      <trkpt lat="59.4292071508" lon="17.8180026271">
        <ele>109.2</ele>
        <time>2012-10-08T21:36:28Z</time>
      </trkpt>
      <trkpt lat="59.4292893773" lon="17.8178721209">
        <ele>109.2</ele>
        <time>2012-10-08T21:36:30Z</time>
      </trkpt>
      <trkpt lat="59.4293361483" lon="17.8178447121">
        <ele>109.2</ele>
        <time>2012-10-08T21:36:31Z</time>
      </trkpt>
      <trkpt lat="59.4293843442" lon="17.8179047265">
        <ele>109.2</ele>
        <time>2012-10-08T21:36:32Z</time>
      </trkpt>
      <trkpt lat="59.4294225656" lon="17.8179886293">
        <ele>109.2</ele>
        <time>2012-10-08T21:36:33Z</time>
      </trkpt>
      <trkpt lat="59.4294917163" lon="17.8182872764">
        <ele>109.2</ele>
        <time>2012-10-08T21:36:36Z</time>
      </trkpt>
      <trkpt lat="59.4295875214" lon="17.8187379712">
        <ele>109.6</ele>
        <time>2012-10-08T21:36:41Z</time>
      </trkpt>
      <trkpt lat="59.4296086438" lon="17.8188226284">
        <ele>110</ele>
        <time>2012-10-08T21:36:42Z</time>
      </trkpt>
      <trkpt lat="59.4296293471" lon="17.8189077047">
        <ele>110.4</ele>
        <time>2012-10-08T21:36:43Z</time>
      </trkpt>
      <trkpt lat="59.4296493799" lon="17.8189942897">
        <ele>110.8</ele>
        <time>2012-10-08T21:36:44Z</time>
      </trkpt>
      <trkpt lat="59.42966782" lon="17.8190752589">
        <ele>111.2</ele>
        <time>2012-10-08T21:36:45Z</time>
      </trkpt>
      <trkpt lat="59.4296822369" lon="17.819158072">
        <ele>111.2</ele>
        <time>2012-10-08T21:36:46Z</time>
      </trkpt>
      <trkpt lat="59.4297225538" lon="17.8194000575">
        <ele>111.2</ele>
        <time>2012-10-08T21:36:49Z</time>
      </trkpt>
      <trkpt lat="59.42975583" lon="17.8196149694">
        <ele>111.2</ele>
        <time>2012-10-08T21:36:52Z</time>
      </trkpt>
      <trkpt lat="59.4297757789" lon="17.8196951842">
        <ele>111.8</ele>
        <time>2012-10-08T21:36:53Z</time>
      </trkpt>
      <trkpt lat="59.4298000864" lon="17.8197845352">
        <ele>112.2</ele>
        <time>2012-10-08T21:36:54Z</time>
      </trkpt>
      <trkpt lat="59.429820203" lon="17.8198720423">
        <ele>113</ele>
        <time>2012-10-08T21:36:55Z</time>
      </trkpt>
      <trkpt lat="59.4298394813" lon="17.8199558613">
        <ele>113.4</ele>
        <time>2012-10-08T21:36:56Z</time>
      </trkpt>
      <trkpt lat="59.429900753" lon="17.8202882036">
        <ele>113.4</ele>
        <time>2012-10-08T21:37:00Z</time>
      </trkpt>
      <trkpt lat="59.4298630345" lon="17.8204433526">
        <ele>113.4</ele>
        <time>2012-10-08T21:37:02Z</time>
      </trkpt>
      <trkpt lat="59.4296447698" lon="17.8208252319">
        <ele>113.4</ele>
        <time>2012-10-08T21:37:08Z</time>
      </trkpt>
      <trkpt lat="59.429606716" lon="17.8208935444">
        <ele>113.4</ele>
        <time>2012-10-08T21:37:09Z</time>
      </trkpt>
      <trkpt lat="59.4292870303" lon="17.8213976319">
        <ele>113.4</ele>
        <time>2012-10-08T21:37:17Z</time>
      </trkpt>
      <trkpt lat="59.429132971" lon="17.8216353426">
        <ele>113.4</ele>
        <time>2012-10-08T21:37:21Z</time>
      </trkpt>
      <trkpt lat="59.429061641" lon="17.8217593109">
        <ele>113.8</ele>
        <time>2012-10-08T21:37:23Z</time>
      </trkpt>
      <trkpt lat="59.4290263532" lon="17.8218219237">
        <ele>114.2</ele>
        <time>2012-10-08T21:37:24Z</time>
      </trkpt>
      <trkpt lat="59.428991736" lon="17.8218836144">
        <ele>114.6</ele>
        <time>2012-10-08T21:37:25Z</time>
      </trkpt>
      <trkpt lat="59.428957454" lon="17.821941701">
        <ele>115</ele>
        <time>2012-10-08T21:37:26Z</time>
      </trkpt>
      <trkpt lat="59.4289270277" lon="17.8220004581">
        <ele>115.4</ele>
        <time>2012-10-08T21:37:27Z</time>
      </trkpt>
      <trkpt lat="59.4288609783" lon="17.8221225824">
        <ele>115.4</ele>
        <time>2012-10-08T21:37:29Z</time>
      </trkpt>
      <trkpt lat="59.4286123712" lon="17.8225244107">
        <ele>115.8</ele>
        <time>2012-10-08T21:37:36Z</time>
      </trkpt>
      <trkpt lat="59.4285780892" lon="17.8225757917">
        <ele>116.2</ele>
        <time>2012-10-08T21:37:37Z</time>
      </trkpt>
      <trkpt lat="59.4285453998" lon="17.8226212216">
        <ele>116.6</ele>
        <time>2012-10-08T21:37:38Z</time>
      </trkpt>
      <trkpt lat="59.4285080165" lon="17.8226646399">
        <ele>117</ele>
        <time>2012-10-08T21:37:39Z</time>
      </trkpt>
      <trkpt lat="59.4284682025" lon="17.8227068008">
        <ele>117.4</ele>
        <time>2012-10-08T21:37:40Z</time>
      </trkpt>
      <trkpt lat="59.4284279694" lon="17.8227552482">
        <ele>117.4</ele>
        <time>2012-10-08T21:37:41Z</time>
      </trkpt>
      <trkpt lat="59.4281722376" lon="17.8230554879">
        <ele>117.4</ele>
        <time>2012-10-08T21:37:47Z</time>
      </trkpt>
      <trkpt lat="59.427973419" lon="17.8232713218">
        <ele>117.4</ele>
        <time>2012-10-08T21:37:51Z</time>
      </trkpt>
      <trkpt lat="59.4278016738" lon="17.8234654466">
        <ele>117</ele>
        <time>2012-10-08T21:37:54Z</time>
      </trkpt>
      <trkpt lat="59.427738139" lon="17.8235314122">
        <ele>116.6</ele>
        <time>2012-10-08T21:37:55Z</time>
      </trkpt>
      <trkpt lat="59.427671" lon="17.8235970424">
        <ele>116</ele>
        <time>2012-10-08T21:37:56Z</time>
      </trkpt>
      <trkpt lat="59.4276021846" lon="17.8236637624">
        <ele>115.6</ele>
        <time>2012-10-08T21:37:57Z</time>
      </trkpt>
      <trkpt lat="59.4275338721" lon="17.8237365173">
        <ele>115.2</ele>
        <time>2012-10-08T21:37:58Z</time>
      </trkpt>
      <trkpt lat="59.4273892005" lon="17.8238751539">
        <ele>114.8</ele>
        <time>2012-10-08T21:38:00Z</time>
      </trkpt>
      <trkpt lat="59.4273234026" lon="17.8239397783">
        <ele>114.2</ele>
        <time>2012-10-08T21:38:01Z</time>
      </trkpt>
      <trkpt lat="59.4272668248" lon="17.823997362">
        <ele>113.8</ele>
        <time>2012-10-08T21:38:02Z</time>
      </trkpt>
      <trkpt lat="59.4272238256" lon="17.8240405288">
        <ele>113.4</ele>
        <time>2012-10-08T21:38:03Z</time>
      </trkpt>
      <trkpt lat="59.4271976741" lon="17.8240772415">
        <ele>113</ele>
        <time>2012-10-08T21:38:04Z</time>
      </trkpt>
      <trkpt lat="59.4271889569" lon="17.8241207436">
        <ele>113</ele>
        <time>2012-10-08T21:38:05Z</time>
      </trkpt>
      <trkpt lat="59.4271969197" lon="17.824163156">
        <ele>112.6</ele>
        <time>2012-10-08T21:38:06Z</time>
      </trkpt>
      <trkpt lat="59.4272167848" lon="17.8241947557">
        <ele>112</ele>
        <time>2012-10-08T21:38:07Z</time>
      </trkpt>
      <trkpt lat="59.4272451157" lon="17.8242149561">
        <ele>111.6</ele>
        <time>2012-10-08T21:38:08Z</time>
      </trkpt>
      <trkpt lat="59.4272823313" lon="17.824216381">
        <ele>111.2</ele>
        <time>2012-10-08T21:38:09Z</time>
      </trkpt>
      <trkpt lat="59.4273211395" lon="17.82420758">
        <ele>110.8</ele>
        <time>2012-10-08T21:38:10Z</time>
      </trkpt>
      <trkpt lat="59.4275651366" lon="17.82420758">
        <ele>110.8</ele>
        <time>2012-10-08T21:38:16Z</time>
      </trkpt>
      <trkpt lat="59.427610315" lon="17.8242102622">
        <ele>111.2</ele>
        <time>2012-10-08T21:38:17Z</time>
      </trkpt>
      <trkpt lat="59.427655242" lon="17.8242152076">
        <ele>111.6</ele>
        <time>2012-10-08T21:38:18Z</time>
      </trkpt>
      <trkpt lat="59.4277011748" lon="17.8242204882">
        <ele>112</ele>
        <time>2012-10-08T21:38:19Z</time>
      </trkpt>
      <trkpt lat="59.4277494546" lon="17.8242294568">
        <ele>112.4</ele>
        <time>2012-10-08T21:38:20Z</time>
      </trkpt>
      <trkpt lat="59.4277954712" lon="17.8242520879">
        <ele>113</ele>
        <time>2012-10-08T21:38:21Z</time>
      </trkpt>
      <trkpt lat="59.4278370454" lon="17.8243043072">
        <ele>113.4</ele>
        <time>2012-10-08T21:38:22Z</time>
      </trkpt>
      <trkpt lat="59.4278699025" lon="17.8243763915">
        <ele>114</ele>
        <time>2012-10-08T21:38:23Z</time>
      </trkpt>
      <trkpt lat="59.4278967246" lon="17.8244693468">
        <ele>114.4</ele>
        <time>2012-10-08T21:38:24Z</time>
      </trkpt>
      <trkpt lat="59.4279144104" lon="17.8245894594">
        <ele>115</ele>
        <time>2012-10-08T21:38:25Z</time>
      </trkpt>
      <trkpt lat="59.4279241334" lon="17.8246995976">
        <ele>115</ele>
        <time>2012-10-08T21:38:26Z</time>
      </trkpt>
      <trkpt lat="59.4279471836" lon="17.824949462">
        <ele>115</ele>
        <time>2012-10-08T21:38:28Z</time>
      </trkpt>
      <trkpt lat="59.4279679707" lon="17.8250803873">
        <ele>115</ele>
        <time>2012-10-08T21:38:29Z</time>
      </trkpt>
      <trkpt lat="59.4280473473" lon="17.8253116439">
        <ele>115</ele>
        <time>2012-10-08T21:38:31Z</time>
      </trkpt>
      <trkpt lat="59.4281709803" lon="17.8254911842">
        <ele>115</ele>
        <time>2012-10-08T21:38:33Z</time>
      </trkpt>
      <trkpt lat="59.428297547" lon="17.8256901705">
        <ele>115</ele>
        <time>2012-10-08T21:38:35Z</time>
      </trkpt>
      <trkpt lat="59.4284214315" lon="17.825884882">
        <ele>114.6</ele>
        <time>2012-10-08T21:38:37Z</time>
      </trkpt>
      <trkpt lat="59.4284750757" lon="17.825965935">
        <ele>114.2</ele>
        <time>2012-10-08T21:38:38Z</time>
      </trkpt>
      <trkpt lat="59.4285155602" lon="17.8260286316">
        <ele>113.4</ele>
        <time>2012-10-08T21:38:39Z</time>
      </trkpt>
      <trkpt lat="59.4285481658" lon="17.8260915797">
        <ele>112.8</ele>
        <time>2012-10-08T21:38:40Z</time>
      </trkpt>
      <trkpt lat="59.4285795141" lon="17.8261743929">
        <ele>112</ele>
        <time>2012-10-08T21:38:41Z</time>
      </trkpt>
      <trkpt lat="59.4286038217" lon="17.8262656718">
        <ele>111.4</ele>
        <time>2012-10-08T21:38:42Z</time>
      </trkpt>
      <trkpt lat="59.4286297217" lon="17.8263670089">
        <ele>110.6</ele>
        <time>2012-10-08T21:38:43Z</time>
      </trkpt>
      <trkpt lat="59.4286541969" lon="17.8264640713">
        <ele>110</ele>
        <time>2012-10-08T21:38:44Z</time>
      </trkpt>
      <trkpt lat="59.4286734752" lon="17.8265615528">
        <ele>109.2</ele>
        <time>2012-10-08T21:38:45Z</time>
      </trkpt>
      <trkpt lat="59.4286920831" lon="17.826675882">
        <ele>108.4</ele>
        <time>2012-10-08T21:38:46Z</time>
      </trkpt>
      <trkpt lat="59.4287110262" lon="17.826809238">
        <ele>108</ele>
        <time>2012-10-08T21:38:47Z</time>
      </trkpt>
      <trkpt lat="59.4287322324" lon="17.8269576814">
        <ele>107.4</ele>
        <time>2012-10-08T21:38:48Z</time>
      </trkpt>
      <trkpt lat="59.4287534386" lon="17.8271086394">
        <ele>107</ele>
        <time>2012-10-08T21:38:49Z</time>
      </trkpt>
      <trkpt lat="59.4287711244" lon="17.8272419117">
        <ele>106.4</ele>
        <time>2012-10-08T21:38:50Z</time>
      </trkpt>
      <trkpt lat="59.4287885587" lon="17.8273656285">
        <ele>105.8</ele>
        <time>2012-10-08T21:38:51Z</time>
      </trkpt>
      <trkpt lat="59.4288043167" lon="17.8274900159">
        <ele>105.2</ele>
        <time>2012-10-08T21:38:52Z</time>
      </trkpt>
      <trkpt lat="59.4288195718" lon="17.8276137327">
        <ele>104.4</ele>
        <time>2012-10-08T21:38:53Z</time>
      </trkpt>
      <trkpt lat="59.4288376767" lon="17.8277352703">
        <ele>103.8</ele>
        <time>2012-10-08T21:38:54Z</time>
      </trkpt>
      <trkpt lat="59.4288656722" lon="17.8278491803">
        <ele>103.2</ele>
        <time>2012-10-08T21:38:55Z</time>
      </trkpt>
      <trkpt lat="59.4288988645" lon="17.8279513557">
        <ele>103.2</ele>
        <time>2012-10-08T21:38:56Z</time>
      </trkpt>
      <trkpt lat="59.4289261895" lon="17.8280528605">
        <ele>103.2</ele>
        <time>2012-10-08T21:38:57Z</time>
      </trkpt>
      <trkpt lat="59.4289442944" lon="17.828155874">
        <ele>102.8</ele>
        <time>2012-10-08T21:38:58Z</time>
      </trkpt>
      <trkpt lat="59.4289639081" lon="17.8282743941">
        <ele>101.8</ele>
        <time>2012-10-08T21:38:59Z</time>
      </trkpt>
      <trkpt lat="59.4289881318" lon="17.8283862086">
        <ele>101.4</ele>
        <time>2012-10-08T21:39:00Z</time>
      </trkpt>
      <trkpt lat="59.4290173008" lon="17.8285001187">
        <ele>100.8</ele>
        <time>2012-10-08T21:39:01Z</time>
      </trkpt>
      <trkpt lat="59.4291156205" lon="17.8288641446">
        <ele>100.8</ele>
        <time>2012-10-08T21:39:04Z</time>
      </trkpt>
      <trkpt lat="59.429176054" lon="17.8290916294">
        <ele>100.8</ele>
        <time>2012-10-08T21:39:06Z</time>
      </trkpt>
      <trkpt lat="59.4293036265" lon="17.8294120694">
        <ele>100.4</ele>
        <time>2012-10-08T21:39:09Z</time>
      </trkpt>
      <trkpt lat="59.4293496431" lon="17.8295362053">
        <ele>100</ele>
        <time>2012-10-08T21:39:10Z</time>
      </trkpt>
      <trkpt lat="59.4293926423" lon="17.8296651189">
        <ele>99.6</ele>
        <time>2012-10-08T21:39:11Z</time>
      </trkpt>
      <trkpt lat="59.429435809" lon="17.8297958766">
        <ele>99.2</ele>
        <time>2012-10-08T21:39:12Z</time>
      </trkpt>
      <trkpt lat="59.4294783891" lon="17.8299240358">
        <ele>98.8</ele>
        <time>2012-10-08T21:39:13Z</time>
      </trkpt>
      <trkpt lat="59.42951594" lon="17.8300585653">
        <ele>98.8</ele>
        <time>2012-10-08T21:39:14Z</time>
      </trkpt>
      <trkpt lat="59.4295450252" lon="17.8301801867">
        <ele>98.8</ele>
        <time>2012-10-08T21:39:15Z</time>
      </trkpt>
      <trkpt lat="59.4296351306" lon="17.8304781632">
        <ele>98.8</ele>
        <time>2012-10-08T21:39:18Z</time>
      </trkpt>
      <trkpt lat="59.429672933" lon="17.8305478168">
        <ele>98.8</ele>
        <time>2012-10-08T21:39:19Z</time>
      </trkpt>
      <trkpt lat="59.4297508008" lon="17.8306608049">
        <ele>98.8</ele>
        <time>2012-10-08T21:39:21Z</time>
      </trkpt>
      <trkpt lat="59.4298373859" lon="17.8307377507">
        <ele>98.8</ele>
        <time>2012-10-08T21:39:23Z</time>
      </trkpt>
      <trkpt lat="59.4300083766" lon="17.8306601343">
        <ele>98.8</ele>
        <time>2012-10-08T21:39:26Z</time>
      </trkpt>
      <trkpt lat="59.4304081933" lon="17.8303769937">
        <ele>98.8</ele>
        <time>2012-10-08T21:39:33Z</time>
      </trkpt>
      <trkpt lat="59.4308215048" lon="17.8300971221">
        <ele>98.8</ele>
        <time>2012-10-08T21:39:40Z</time>
      </trkpt>
      <trkpt lat="59.43122568" lon="17.8297834714">
        <ele>98.8</ele>
        <time>2012-10-08T21:39:47Z</time>
      </trkpt>
      <trkpt lat="59.4315628" lon="17.8295075392">
        <ele>98.8</ele>
        <time>2012-10-08T21:39:53Z</time>
      </trkpt>
      <trkpt lat="59.4316751174" lon="17.8294317669">
        <ele>98.8</ele>
        <time>2012-10-08T21:39:55Z</time>
      </trkpt>
      <trkpt lat="59.4319140854" lon="17.8292725946">
        <ele>98.8</ele>
        <time>2012-10-08T21:39:59Z</time>
      </trkpt>
      <trkpt lat="59.4320274087" lon="17.8291910387">
        <ele>98.8</ele>
        <time>2012-10-08T21:40:01Z</time>
      </trkpt>
      <trkpt lat="59.4321359543" lon="17.8292556631">
        <ele>98.8</ele>
        <time>2012-10-08T21:40:03Z</time>
      </trkpt>
      <trkpt lat="59.4321734214" lon="17.8293934616">
        <ele>98.8</ele>
        <time>2012-10-08T21:40:05Z</time>
      </trkpt>
      <trkpt lat="59.4322036801" lon="17.8295157535">
        <ele>98.8</ele>
        <time>2012-10-08T21:40:08Z</time>
      </trkpt>
      <trkpt lat="59.4322211982" lon="17.8295408154">
        <ele>98.8</ele>
        <time>2012-10-08T21:40:09Z</time>
      </trkpt>
      <trkpt lat="59.4323128962" lon="17.8295762708">
        <ele>98.8</ele>
        <time>2012-10-08T21:40:12Z</time>
      </trkpt>
      <trkpt lat="59.4325156544" lon="17.8293801343">
        <ele>98.8</ele>
        <time>2012-10-08T21:40:16Z</time>
      </trkpt>
      <trkpt lat="59.4325703044" lon="17.8293220478">
        <ele>99.2</ele>
        <time>2012-10-08T21:40:17Z</time>
      </trkpt>
      <trkpt lat="59.4326254573" lon="17.8292646318">
        <ele>99.6</ele>
        <time>2012-10-08T21:40:18Z</time>
      </trkpt>
      <trkpt lat="59.4326803587" lon="17.8292104009">
        <ele>100</ele>
        <time>2012-10-08T21:40:19Z</time>
      </trkpt>
      <trkpt lat="59.4327387806" lon="17.8291637137">
        <ele>100.4</ele>
        <time>2012-10-08T21:40:20Z</time>
      </trkpt>
      <trkpt lat="59.4327945202" lon="17.8291643842">
        <ele>101</ele>
        <time>2012-10-08T21:40:21Z</time>
      </trkpt>
      <trkpt lat="59.4328796803" lon="17.8293015959">
        <ele>101</ele>
        <time>2012-10-08T21:40:23Z</time>
      </trkpt>
      <trkpt lat="59.4329317319" lon="17.8294480277">
        <ele>101</ele>
        <time>2012-10-08T21:40:25Z</time>
      </trkpt>
      <trkpt lat="59.4329991224" lon="17.8296333515">
        <ele>101.4</ele>
        <time>2012-10-08T21:40:28Z</time>
      </trkpt>
      <trkpt lat="59.4330221726" lon="17.8296968863">
        <ele>101.8</ele>
        <time>2012-10-08T21:40:29Z</time>
      </trkpt>
      <trkpt lat="59.4330447199" lon="17.8297584933">
        <ele>102.2</ele>
        <time>2012-10-08T21:40:30Z</time>
      </trkpt>
      <trkpt lat="59.4330668481" lon="17.8298180048">
        <ele>102.6</ele>
        <time>2012-10-08T21:40:31Z</time>
      </trkpt>
      <trkpt lat="59.4330864618" lon="17.8298776839">
        <ele>103</ele>
        <time>2012-10-08T21:40:32Z</time>
      </trkpt>
      <trkpt lat="59.4331443807" lon="17.8300501834">
        <ele>103.4</ele>
        <time>2012-10-08T21:40:35Z</time>
      </trkpt>
      <trkpt lat="59.4331649164" lon="17.8301040791">
        <ele>103.8</ele>
        <time>2012-10-08T21:40:36Z</time>
      </trkpt>
      <trkpt lat="59.4331865417" lon="17.8301560468">
        <ele>104.4</ele>
        <time>2012-10-08T21:40:37Z</time>
      </trkpt>
      <trkpt lat="59.4332089213" lon="17.8302091043">
        <ele>105.2</ele>
        <time>2012-10-08T21:40:38Z</time>
      </trkpt>
      <trkpt lat="59.4333230828" lon="17.8304789176">
        <ele>105.2</ele>
        <time>2012-10-08T21:40:43Z</time>
      </trkpt>
      <trkpt lat="59.4333446243" lon="17.8305362498">
        <ele>105.6</ele>
        <time>2012-10-08T21:40:44Z</time>
      </trkpt>
      <trkpt lat="59.4333644894" lon="17.8305981082">
        <ele>106</ele>
        <time>2012-10-08T21:40:45Z</time>
      </trkpt>
      <trkpt lat="59.4333818399" lon="17.8306618945">
        <ele>106.4</ele>
        <time>2012-10-08T21:40:46Z</time>
      </trkpt>
      <trkpt lat="59.433398939" lon="17.8307239206">
        <ele>107</ele>
        <time>2012-10-08T21:40:47Z</time>
      </trkpt>
      <trkpt lat="59.433414697" lon="17.8307867848">
        <ele>107.4</ele>
        <time>2012-10-08T21:40:48Z</time>
      </trkpt>
      <trkpt lat="59.4334254258" lon="17.830854762">
        <ele>107.4</ele>
        <time>2012-10-08T21:40:49Z</time>
      </trkpt>
      <trkpt lat="59.4335141063" lon="17.8313335361">
        <ele>107.8</ele>
        <time>2012-10-08T21:40:56Z</time>
      </trkpt>
      <trkpt lat="59.4335292775" lon="17.8313999208">
        <ele>108.2</ele>
        <time>2012-10-08T21:40:57Z</time>
      </trkpt>
      <trkpt lat="59.4335437782" lon="17.8314657187">
        <ele>108.6</ele>
        <time>2012-10-08T21:40:58Z</time>
      </trkpt>
      <trkpt lat="59.4335576084" lon="17.8315384736">
        <ele>109</ele>
        <time>2012-10-08T21:40:59Z</time>
      </trkpt>
      <trkpt lat="59.4335709356" lon="17.8316087977">
        <ele>109.4</ele>
        <time>2012-10-08T21:41:00Z</time>
      </trkpt>
      <trkpt lat="59.4336073969" lon="17.8318211951">
        <ele>109.4</ele>
        <time>2012-10-08T21:41:03Z</time>
      </trkpt>
      <trkpt lat="59.4336192992" lon="17.8321254581">
        <ele>109.4</ele>
        <time>2012-10-08T21:41:08Z</time>
      </trkpt>
      <trkpt lat="59.4336460374" lon="17.8323471593">
        <ele>109.4</ele>
        <time>2012-10-08T21:41:11Z</time>
      </trkpt>
      <trkpt lat="59.4336717698" lon="17.8324469877">
        <ele>109.4</ele>
        <time>2012-10-08T21:41:12Z</time>
      </trkpt>
      <trkpt lat="59.4338108256" lon="17.8330608781">
        <ele>109.4</ele>
        <time>2012-10-08T21:41:18Z</time>
      </trkpt>
      <trkpt lat="59.4338619552" lon="17.8331641431">
        <ele>109.4</ele>
        <time>2012-10-08T21:41:20Z</time>
      </trkpt>
      <trkpt lat="59.4338959019" lon="17.8331679988">
        <ele>109.4</ele>
        <time>2012-10-08T21:41:21Z</time>
      </trkpt>
      <trkpt lat="59.4340627855" lon="17.8330742053">
        <ele>109.4</ele>
        <time>2012-10-08T21:41:25Z</time>
      </trkpt>
      <trkpt lat="59.4341112329" lon="17.8330560166">
        <ele>109.4</ele>
        <time>2012-10-08T21:41:26Z</time>
      </trkpt>
      <trkpt lat="59.4343645339" lon="17.8329584513">
        <ele>109.4</ele>
        <time>2012-10-08T21:41:31Z</time>
      </trkpt>
      <trkpt lat="59.4344642785" lon="17.8329224091">
        <ele>109.4</ele>
        <time>2012-10-08T21:41:33Z</time>
      </trkpt>
      <trkpt lat="59.4346669528" lon="17.8328477264">
        <ele>109.4</ele>
        <time>2012-10-08T21:41:37Z</time>
      </trkpt>
      <trkpt lat="59.4349542844" lon="17.8328261849">
        <ele>109.4</ele>
        <time>2012-10-08T21:41:43Z</time>
      </trkpt>
      <trkpt lat="59.4349971997" lon="17.832822413">
        <ele>109.4</ele>
        <time>2012-10-08T21:41:44Z</time>
      </trkpt>
      <trkpt lat="59.4351641671" lon="17.8327627339">
        <ele>109.4</ele>
        <time>2012-10-08T21:41:48Z</time>
      </trkpt>
      <trkpt lat="59.4352365029" lon="17.8327451319">
        <ele>109.8</ele>
        <time>2012-10-08T21:41:50Z</time>
      </trkpt>
      <trkpt lat="59.4352731318" lon="17.8327411924">
        <ele>110.2</ele>
        <time>2012-10-08T21:41:51Z</time>
      </trkpt>
      <trkpt lat="59.4353140355" lon="17.832731218">
        <ele>111</ele>
        <time>2012-10-08T21:41:52Z</time>
      </trkpt>
      <trkpt lat="59.4353552745" lon="17.8327169687">
        <ele>111.4</ele>
        <time>2012-10-08T21:41:53Z</time>
      </trkpt>
      <trkpt lat="59.435400872" lon="17.8326924098">
        <ele>111.4</ele>
        <time>2012-10-08T21:41:54Z</time>
      </trkpt>
      <trkpt lat="59.435486535" lon="17.8325914079">
        <ele>111.4</ele>
        <time>2012-10-08T21:41:56Z</time>
      </trkpt>
      <trkpt lat="59.4357028719" lon="17.8322209279">
        <ele>111.4</ele>
        <time>2012-10-08T21:42:02Z</time>
      </trkpt>
      <trkpt lat="59.4358992598" lon="17.8319916829">
        <ele>111.4</ele>
        <time>2012-10-08T21:42:07Z</time>
      </trkpt>
      <trkpt lat="59.435937146" lon="17.8319450796">
        <ele>112</ele>
        <time>2012-10-08T21:42:08Z</time>
      </trkpt>
      <trkpt lat="59.4359764571" lon="17.8318967998">
        <ele>112.4</ele>
        <time>2012-10-08T21:42:09Z</time>
      </trkpt>
      <trkpt lat="59.4360182828" lon="17.8318482686">
        <ele>112.8</ele>
        <time>2012-10-08T21:42:10Z</time>
      </trkpt>
      <trkpt lat="59.4360575939" lon="17.8318020844">
        <ele>113.2</ele>
        <time>2012-10-08T21:42:11Z</time>
      </trkpt>
      <trkpt lat="59.4360907862" lon="17.8317590014">
        <ele>113.6</ele>
        <time>2012-10-08T21:42:12Z</time>
      </trkpt>
      <trkpt lat="59.4362064564" lon="17.8315538125">
        <ele>113.6</ele>
        <time>2012-10-08T21:42:17Z</time>
      </trkpt>
      <trkpt lat="59.4362532274" lon="17.8315179379">
        <ele>113.6</ele>
        <time>2012-10-08T21:42:19Z</time>
      </trkpt>
      <trkpt lat="59.4362814744" lon="17.831529505">
        <ele>113.6</ele>
        <time>2012-10-08T21:42:20Z</time>
      </trkpt>
      <trkpt lat="59.4363754355" lon="17.8315880944">
        <ele>114</ele>
        <time>2012-10-08T21:42:23Z</time>
      </trkpt>
      <trkpt lat="59.436411813" lon="17.8315903576">
        <ele>114.4</ele>
        <time>2012-10-08T21:42:24Z</time>
      </trkpt>
      <trkpt lat="59.4364502859" lon="17.8315858313">
        <ele>114.8</ele>
        <time>2012-10-08T21:42:25Z</time>
      </trkpt>
      <trkpt lat="59.4364911896" lon="17.8315720012">
        <ele>115.4</ele>
        <time>2012-10-08T21:42:26Z</time>
      </trkpt>
      <trkpt lat="59.4365295787" lon="17.8315592607">
        <ele>115.8</ele>
        <time>2012-10-08T21:42:27Z</time>
      </trkpt>
      <trkpt lat="59.4366416447" lon="17.8315001683">
        <ele>115.8</ele>
        <time>2012-10-08T21:42:30Z</time>
      </trkpt>
      <trkpt lat="59.4366853144" lon="17.8314774534">
        <ele>116.2</ele>
        <time>2012-10-08T21:42:31Z</time>
      </trkpt>
      <trkpt lat="59.4367283973" lon="17.8314594323">
        <ele>116.6</ele>
        <time>2012-10-08T21:42:32Z</time>
      </trkpt>
      <trkpt lat="59.4367722347" lon="17.8314480329">
        <ele>117</ele>
        <time>2012-10-08T21:42:33Z</time>
      </trkpt>
      <trkpt lat="59.4368158205" lon="17.831435041">
        <ele>117.4</ele>
        <time>2012-10-08T21:42:34Z</time>
      </trkpt>
      <trkpt lat="59.4368584006" lon="17.8314222166">
        <ele>117.8</ele>
        <time>2012-10-08T21:42:35Z</time>
      </trkpt>
      <trkpt lat="59.4368984661" lon="17.8314151759">
        <ele>117.8</ele>
        <time>2012-10-08T21:42:36Z</time>
      </trkpt>
      <trkpt lat="59.4370403716" lon="17.8313717576">
        <ele>117.8</ele>
        <time>2012-10-08T21:42:41Z</time>
      </trkpt>
      <trkpt lat="59.4370608235" lon="17.8313676505">
        <ele>118.2</ele>
        <time>2012-10-08T21:42:42Z</time>
      </trkpt>
      <trkpt lat="59.4370825326" lon="17.8313608611">
        <ele>118.6</ele>
        <time>2012-10-08T21:42:43Z</time>
      </trkpt>
      <trkpt lat="59.4371021462" lon="17.8313501323">
        <ele>119.2</ele>
        <time>2012-10-08T21:42:44Z</time>
      </trkpt>
      <trkpt lat="59.4371236877" lon="17.8313390682">
        <ele>119.6</ele>
        <time>2012-10-08T21:42:45Z</time>
      </trkpt>
      <trkpt lat="59.4371431337" lon="17.8313337876">
        <ele>120</ele>
        <time>2012-10-08T21:42:46Z</time>
      </trkpt>
      <trkpt lat="59.4372004659" lon="17.8313323627">
        <ele>120.4</ele>
        <time>2012-10-08T21:42:49Z</time>
      </trkpt>
      <trkpt lat="59.4372223427" lon="17.8313335361">
        <ele>120.8</ele>
        <time>2012-10-08T21:42:50Z</time>
      </trkpt>
      <trkpt lat="59.4372460635" lon="17.8313367213">
        <ele>121.2</ele>
        <time>2012-10-08T21:42:51Z</time>
      </trkpt>
      <trkpt lat="59.4372733046" lon="17.8313373918">
        <ele>121.8</ele>
        <time>2012-10-08T21:42:52Z</time>
      </trkpt>
      <trkpt lat="59.4373017193" lon="17.831339152">
        <ele>122.2</ele>
        <time>2012-10-08T21:42:53Z</time>
      </trkpt>
      <trkpt lat="59.4373828561" lon="17.8313290099">
        <ele>122.6</ele>
        <time>2012-10-08T21:42:56Z</time>
      </trkpt>
      <trkpt lat="59.437412528" lon="17.8313173591">
        <ele>123</ele>
        <time>2012-10-08T21:42:57Z</time>
      </trkpt>
      <trkpt lat="59.4374452174" lon="17.8313130843">
        <ele>123.6</ele>
        <time>2012-10-08T21:42:58Z</time>
      </trkpt>
      <trkpt lat="59.4374836065" lon="17.8313047862">
        <ele>124</ele>
        <time>2012-10-08T21:42:59Z</time>
      </trkpt>
      <trkpt lat="59.4375226662" lon="17.831303026">
        <ele>124.4</ele>
        <time>2012-10-08T21:43:00Z</time>
      </trkpt>
      <trkpt lat="59.4376910585" lon="17.8312822389">
        <ele>124.4</ele>
        <time>2012-10-08T21:43:04Z</time>
      </trkpt>
      <trkpt lat="59.4377340577" lon="17.8312828256">
        <ele>124.8</ele>
        <time>2012-10-08T21:43:05Z</time>
      </trkpt>
      <trkpt lat="59.4377763025" lon="17.8312820713">
        <ele>125.2</ele>
        <time>2012-10-08T21:43:06Z</time>
      </trkpt>
      <trkpt lat="59.4378213133" lon="17.8312791376">
        <ele>126</ele>
        <time>2012-10-08T21:43:07Z</time>
      </trkpt>
      <trkpt lat="59.4378707665" lon="17.8312742761">
        <ele>126.4</ele>
        <time>2012-10-08T21:43:08Z</time>
      </trkpt>
      <trkpt lat="59.4379716007" lon="17.83126229">
        <ele>126.4</ele>
        <time>2012-10-08T21:43:10Z</time>
      </trkpt>
      <trkpt lat="59.4383067929" lon="17.8312537405">
        <ele>126.4</ele>
        <time>2012-10-08T21:43:17Z</time>
      </trkpt>
      <trkpt lat="59.4385061145" lon="17.8312330372">
        <ele>126.4</ele>
        <time>2012-10-08T21:43:21Z</time>
      </trkpt>
      <trkpt lat="59.4388081982" lon="17.8310844261">
        <ele>126.4</ele>
        <time>2012-10-08T21:43:26Z</time>
      </trkpt>
      <trkpt lat="59.43913987" lon="17.8308824223">
        <ele>126.4</ele>
        <time>2012-10-08T21:43:30Z</time>
      </trkpt>
      <trkpt lat="59.4393236012" lon="17.8307675903">
        <ele>126</ele>
        <time>2012-10-08T21:43:32Z</time>
      </trkpt>
      <trkpt lat="59.4394082584" lon="17.8307083302">
        <ele>125.6</ele>
        <time>2012-10-08T21:43:33Z</time>
      </trkpt>
      <trkpt lat="59.4394924127" lon="17.8306511657">
        <ele>125</ele>
        <time>2012-10-08T21:43:34Z</time>
      </trkpt>
      <trkpt lat="59.439575142" lon="17.8305939173">
        <ele>124.6</ele>
        <time>2012-10-08T21:43:35Z</time>
      </trkpt>
      <trkpt lat="59.4396573685" lon="17.8305401055">
        <ele>124.2</ele>
        <time>2012-10-08T21:43:36Z</time>
      </trkpt>
      <trkpt lat="59.4398255094" lon="17.830448156">
        <ele>124.2</ele>
        <time>2012-10-08T21:43:38Z</time>
      </trkpt>
      <trkpt lat="59.4399079873" lon="17.8304026423">
        <ele>123.8</ele>
        <time>2012-10-08T21:43:39Z</time>
      </trkpt>
      <trkpt lat="59.4399938179" lon="17.8303543626">
        <ele>123.4</ele>
        <time>2012-10-08T21:43:40Z</time>
      </trkpt>
      <trkpt lat="59.4400755414" lon="17.8303094356">
        <ele>123</ele>
        <time>2012-10-08T21:43:41Z</time>
      </trkpt>
      <trkpt lat="59.4401573488" lon="17.8302650954">
        <ele>122.6</ele>
        <time>2012-10-08T21:43:42Z</time>
      </trkpt>
      <trkpt lat="59.4402362225" lon="17.8302196655">
        <ele>122.2</ele>
        <time>2012-10-08T21:43:43Z</time>
      </trkpt>
      <trkpt lat="59.4404574208" lon="17.8301029894">
        <ele>121.6</ele>
        <time>2012-10-08T21:43:46Z</time>
      </trkpt>
      <trkpt lat="59.4405284155" lon="17.8300694618">
        <ele>121.2</ele>
        <time>2012-10-08T21:43:47Z</time>
      </trkpt>
      <trkpt lat="59.4405917827" lon="17.8300423883">
        <ele>120.8</ele>
        <time>2012-10-08T21:43:48Z</time>
      </trkpt>
      <trkpt lat="59.4406543116" lon="17.8300237805">
        <ele>120.4</ele>
        <time>2012-10-08T21:43:49Z</time>
      </trkpt>
      <trkpt lat="59.4407145775" lon="17.8300114591">
        <ele>120</ele>
        <time>2012-10-08T21:43:50Z</time>
      </trkpt>
      <trkpt lat="59.440776855" lon="17.8299995568">
        <ele>120</ele>
        <time>2012-10-08T21:43:51Z</time>
      </trkpt>
      <trkpt lat="59.4410806989" lon="17.8299470861">
        <ele>120</ele>
        <time>2012-10-08T21:43:56Z</time>
      </trkpt>
      <trkpt lat="59.4411188365" lon="17.8299884927">
        <ele>120</ele>
        <time>2012-10-08T21:43:57Z</time>
      </trkpt>
      <trkpt lat="59.4411291463" lon="17.8301224354">
        <ele>120</ele>
        <time>2012-10-08T21:43:59Z</time>
      </trkpt>
      <trkpt lat="59.4410892484" lon="17.8302718009">
        <ele>120</ele>
        <time>2012-10-08T21:44:01Z</time>
      </trkpt>
      <trkpt lat="59.4410524519" lon="17.8304604774">
        <ele>120</ele>
        <time>2012-10-08T21:44:03Z</time>
      </trkpt>
      <trkpt lat="59.4411018213" lon="17.8307440371">
        <ele>120</ele>
        <time>2012-10-08T21:44:06Z</time>
      </trkpt>
      <trkpt lat="59.4411748276" lon="17.8308753815">
        <ele>120</ele>
        <time>2012-10-08T21:44:08Z</time>
      </trkpt>
      <trkpt lat="59.4412100316" lon="17.8309338872">
        <ele>120.4</ele>
        <time>2012-10-08T21:44:09Z</time>
      </trkpt>
      <trkpt lat="59.4412457385" lon="17.8309849329">
        <ele>120.8</ele>
        <time>2012-10-08T21:44:10Z</time>
      </trkpt>
      <trkpt lat="59.4412872289" lon="17.8310327098">
        <ele>121.2</ele>
        <time>2012-10-08T21:44:11Z</time>
      </trkpt>
      <trkpt lat="59.4413238578" lon="17.8310775529">
        <ele>121.6</ele>
        <time>2012-10-08T21:44:12Z</time>
      </trkpt>
      <trkpt lat="59.4413621631" lon="17.8311253297">
        <ele>122</ele>
        <time>2012-10-08T21:44:13Z</time>
      </trkpt>
      <trkpt lat="59.4414852932" lon="17.8312871004">
        <ele>122</ele>
        <time>2012-10-08T21:44:16Z</time>
      </trkpt>
      <trkpt lat="59.4415306393" lon="17.8313401578">
        <ele>122</ele>
        <time>2012-10-08T21:44:17Z</time>
      </trkpt>
      <trkpt lat="59.4416121114" lon="17.8314699935">
        <ele>122</ele>
        <time>2012-10-08T21:44:19Z</time>
      </trkpt>
      <trkpt lat="59.4416653364" lon="17.8316396431">
        <ele>122</ele>
        <time>2012-10-08T21:44:21Z</time>
      </trkpt>
      <trkpt lat="59.4417344871" lon="17.8320621747">
        <ele>122</ele>
        <time>2012-10-08T21:44:25Z</time>
      </trkpt>
      <trkpt lat="59.441747982" lon="17.8321791022">
        <ele>122</ele>
        <time>2012-10-08T21:44:26Z</time>
      </trkpt>
      <trkpt lat="59.441765081" lon="17.8325833613">
        <ele>122</ele>
        <time>2012-10-08T21:44:30Z</time>
      </trkpt>
      <trkpt lat="59.4417550228" lon="17.8326748916">
        <ele>122</ele>
        <time>2012-10-08T21:44:31Z</time>
      </trkpt>
      <trkpt lat="59.4417033064" lon="17.8328899712">
        <ele>122</ele>
        <time>2012-10-08T21:44:34Z</time>
      </trkpt>
      <trkpt lat="59.4417509994" lon="17.8330227405">
        <ele>122</ele>
        <time>2012-10-08T21:44:37Z</time>
      </trkpt>
      <trkpt lat="59.4417747202" lon="17.833081749">
        <ele>122.4</ele>
        <time>2012-10-08T21:44:38Z</time>
      </trkpt>
      <trkpt lat="59.4417998659" lon="17.8331527437">
        <ele>122.8</ele>
        <time>2012-10-08T21:44:39Z</time>
      </trkpt>
      <trkpt lat="59.4418297055" lon="17.8332285999">
        <ele>123.2</ele>
        <time>2012-10-08T21:44:40Z</time>
      </trkpt>
      <trkpt lat="59.4418602156" lon="17.8332985888">
        <ele>123.8</ele>
        <time>2012-10-08T21:44:41Z</time>
      </trkpt>
      <trkpt lat="59.4418924021" lon="17.8333691644">
        <ele>124.2</ele>
        <time>2012-10-08T21:44:42Z</time>
      </trkpt>
      <trkpt lat="59.4420637281" lon="17.8337388062">
        <ele>124.2</ele>
        <time>2012-10-08T21:44:47Z</time>
      </trkpt>
      <trkpt lat="59.4422209726" lon="17.8340640239">
        <ele>124.2</ele>
        <time>2012-10-08T21:44:51Z</time>
      </trkpt>
      <trkpt lat="59.4422974155" lon="17.8342441509">
        <ele>124.2</ele>
        <time>2012-10-08T21:44:53Z</time>
      </trkpt>
      <trkpt lat="59.4424205456" lon="17.8345005532">
        <ele>124.2</ele>
        <time>2012-10-08T21:44:56Z</time>
      </trkpt>
      <trkpt lat="59.4424682386" lon="17.8345231006">
        <ele>124.2</ele>
        <time>2012-10-08T21:44:57Z</time>
      </trkpt>
      <trkpt lat="59.4426002535" lon="17.8344443107">
        <ele>124.2</ele>
        <time>2012-10-08T21:45:00Z</time>
      </trkpt>
      <trkpt lat="59.4427217911" lon="17.8342097851">
        <ele>124.2</ele>
        <time>2012-10-08T21:45:03Z</time>
      </trkpt>
      <trkpt lat="59.4428036823" lon="17.834029239">
        <ele>124.2</ele>
        <time>2012-10-08T21:45:05Z</time>
      </trkpt>
      <trkpt lat="59.4428424905" lon="17.8339309193">
        <ele>124.2</ele>
        <time>2012-10-08T21:45:06Z</time>
      </trkpt>
      <trkpt lat="59.4430079492" lon="17.8334895285">
        <ele>124.2</ele>
        <time>2012-10-08T21:45:10Z</time>
      </trkpt>
      <trkpt lat="59.4431942788" lon="17.8329308748">
        <ele>124.2</ele>
        <time>2012-10-08T21:45:15Z</time>
      </trkpt>
      <trkpt lat="59.4433521938" lon="17.8323946847">
        <ele>124.2</ele>
        <time>2012-10-08T21:45:21Z</time>
      </trkpt>
      <trkpt lat="59.4434253678" lon="17.8320242885">
        <ele>124.2</ele>
        <time>2012-10-08T21:45:25Z</time>
      </trkpt>
      <trkpt lat="59.4434761621" lon="17.8316942931">
        <ele>124.2</ele>
        <time>2012-10-08T21:45:28Z</time>
      </trkpt>
      <trkpt lat="59.4435468215" lon="17.83122893">
        <ele>124.2</ele>
        <time>2012-10-08T21:45:32Z</time>
      </trkpt>
      <trkpt lat="59.4435769125" lon="17.8309892077">
        <ele>124.2</ele>
        <time>2012-10-08T21:45:34Z</time>
      </trkpt>
      <trkpt lat="59.4437158844" lon="17.8307795764">
        <ele>123.8</ele>
        <time>2012-10-08T21:45:37Z</time>
      </trkpt>
      <trkpt lat="59.4437774914" lon="17.8307994415">
        <ele>123.4</ele>
        <time>2012-10-08T21:45:38Z</time>
      </trkpt>
      <trkpt lat="59.4438377573" lon="17.8308304545">
        <ele>123</ele>
        <time>2012-10-08T21:45:39Z</time>
      </trkpt>
      <trkpt lat="59.4438967658" lon="17.8308543429">
        <ele>122.4</ele>
        <time>2012-10-08T21:45:40Z</time>
      </trkpt>
      <trkpt lat="59.443958289" lon="17.8308623057">
        <ele>122</ele>
        <time>2012-10-08T21:45:41Z</time>
      </trkpt>
      <trkpt lat="59.4441252564" lon="17.8308514093">
        <ele>122</ele>
        <time>2012-10-08T21:45:44Z</time>
      </trkpt>
      <trkpt lat="59.4444376498" lon="17.8307774809">
        <ele>122</ele>
        <time>2012-10-08T21:45:50Z</time>
      </trkpt>
      <trkpt lat="59.4447802181" lon="17.8306825978">
        <ele>122</ele>
        <time>2012-10-08T21:45:57Z</time>
      </trkpt>
      <trkpt lat="59.444914077" lon="17.8306650796">
        <ele>122</ele>
        <time>2012-10-08T21:46:00Z</time>
      </trkpt>
      <trkpt lat="59.4450109718" lon="17.8306832683">
        <ele>122</ele>
        <time>2012-10-08T21:46:02Z</time>
      </trkpt>
      <trkpt lat="59.4451067769" lon="17.8307167959">
        <ele>122</ele>
        <time>2012-10-08T21:46:04Z</time>
      </trkpt>
      <trkpt lat="59.4452384566" lon="17.8307803307">
        <ele>122.4</ele>
        <time>2012-10-08T21:46:07Z</time>
      </trkpt>
      <trkpt lat="59.4452740796" lon="17.8307360743">
        <ele>122.8</ele>
        <time>2012-10-08T21:46:08Z</time>
      </trkpt>
      <trkpt lat="59.4452967946" lon="17.8306582903">
        <ele>123.2</ele>
        <time>2012-10-08T21:46:09Z</time>
      </trkpt>
      <trkpt lat="59.4453092836" lon="17.8305721243">
        <ele>123.6</ele>
        <time>2012-10-08T21:46:10Z</time>
      </trkpt>
      <trkpt lat="59.4453198448" lon="17.8304821866">
        <ele>124</ele>
        <time>2012-10-08T21:46:11Z</time>
      </trkpt>
      <trkpt lat="59.4453412187" lon="17.8304033129">
        <ele>124</ele>
        <time>2012-10-08T21:46:12Z</time>
      </trkpt>
      <trkpt lat="59.445379021" lon="17.8303407839">
        <ele>124</ele>
        <time>2012-10-08T21:46:13Z</time>
      </trkpt>
      <trkpt lat="59.4456395305" lon="17.8299826253">
        <ele>124</ele>
        <time>2012-10-08T21:46:19Z</time>
      </trkpt>
      <trkpt lat="59.4456793445" lon="17.8299055957">
        <ele>124</ele>
        <time>2012-10-08T21:46:20Z</time>
      </trkpt>
      <trkpt lat="59.445743047" lon="17.8297361136">
        <ele>123.6</ele>
        <time>2012-10-08T21:46:22Z</time>
      </trkpt>
      <trkpt lat="59.4457710425" lon="17.8296296635">
        <ele>123.2</ele>
        <time>2012-10-08T21:46:23Z</time>
      </trkpt>
      <trkpt lat="59.4457939251" lon="17.8295272367">
        <ele>122.4</ele>
        <time>2012-10-08T21:46:24Z</time>
      </trkpt>
      <trkpt lat="59.4458098507" lon="17.8294280788">
        <ele>122</ele>
        <time>2012-10-08T21:46:25Z</time>
      </trkpt>
      <trkpt lat="59.4458411152" lon="17.8291311919">
        <ele>122</ele>
        <time>2012-10-08T21:46:28Z</time>
      </trkpt>
      <trkpt lat="59.4458431268" lon="17.8290301062">
        <ele>122</ele>
        <time>2012-10-08T21:46:29Z</time>
      </trkpt>
      <trkpt lat="59.4458298834" lon="17.8287102529">
        <ele>122</ele>
        <time>2012-10-08T21:46:32Z</time>
      </trkpt>
      <trkpt lat="59.4457985351" lon="17.8284900604">
        <ele>122</ele>
        <time>2012-10-08T21:46:34Z</time>
      </trkpt>
      <trkpt lat="59.4457480761" lon="17.828273975">
        <ele>122</ele>
        <time>2012-10-08T21:46:36Z</time>
      </trkpt>
      <trkpt lat="59.4456670231" lon="17.8281080134">
        <ele>122</ele>
        <time>2012-10-08T21:46:38Z</time>
      </trkpt>
      <trkpt lat="59.4455580584" lon="17.8279644314">
        <ele>122</ele>
        <time>2012-10-08T21:46:40Z</time>
      </trkpt>
      <trkpt lat="59.4453761712" lon="17.8277656128">
        <ele>122</ele>
        <time>2012-10-08T21:46:43Z</time>
      </trkpt>
      <trkpt lat="59.4452719842" lon="17.8276588274">
        <ele>121.6</ele>
        <time>2012-10-08T21:46:45Z</time>
      </trkpt>
      <trkpt lat="59.445241977" lon="17.8275983939">
        <ele>121</ele>
        <time>2012-10-08T21:46:46Z</time>
      </trkpt>
      <trkpt lat="59.4452233692" lon="17.8275208613">
        <ele>120.6</ele>
        <time>2012-10-08T21:46:47Z</time>
      </trkpt>
      <trkpt lat="59.4452300747" lon="17.8274312588">
        <ele>119.4</ele>
        <time>2012-10-08T21:46:48Z</time>
      </trkpt>
      <trkpt lat="59.4452502751" lon="17.8273316818">
        <ele>118.8</ele>
        <time>2012-10-08T21:46:49Z</time>
      </trkpt>
      <trkpt lat="59.4452750855" lon="17.82722322">
        <ele>118.2</ele>
        <time>2012-10-08T21:46:50Z</time>
      </trkpt>
      <trkpt lat="59.4452995606" lon="17.8270991679">
        <ele>117.6</ele>
        <time>2012-10-08T21:46:51Z</time>
      </trkpt>
      <trkpt lat="59.4453402967" lon="17.8268284325">
        <ele>117.6</ele>
        <time>2012-10-08T21:46:53Z</time>
      </trkpt>
      <trkpt lat="59.4453703877" lon="17.8265219903">
        <ele>117.2</ele>
        <time>2012-10-08T21:46:55Z</time>
      </trkpt>
      <trkpt lat="59.4453837149" lon="17.8263585432">
        <ele>116.6</ele>
        <time>2012-10-08T21:46:56Z</time>
      </trkpt>
      <trkpt lat="59.4453932703" lon="17.826191911">
        <ele>116.2</ele>
        <time>2012-10-08T21:46:57Z</time>
      </trkpt>
      <trkpt lat="59.4454015683" lon="17.8260254465">
        <ele>115.8</ele>
        <time>2012-10-08T21:46:58Z</time>
      </trkpt>
      <trkpt lat="59.445398467" lon="17.8258604907">
        <ele>115.2</ele>
        <time>2012-10-08T21:46:59Z</time>
      </trkpt>
      <trkpt lat="59.4454046696" lon="17.8257327506">
        <ele>114.8</ele>
        <time>2012-10-08T21:47:00Z</time>
      </trkpt>
      <trkpt lat="59.4454293963" lon="17.8256280606">
        <ele>114.4</ele>
        <time>2012-10-08T21:47:01Z</time>
      </trkpt>
      <trkpt lat="59.4454709705" lon="17.8255563954">
        <ele>113.8</ele>
        <time>2012-10-08T21:47:02Z</time>
      </trkpt>
      <trkpt lat="59.445524447" lon="17.8255113846">
        <ele>113.4</ele>
        <time>2012-10-08T21:47:03Z</time>
      </trkpt>
      <trkpt lat="59.4455858025" lon="17.8254922739">
        <ele>113</ele>
        <time>2012-10-08T21:47:04Z</time>
      </trkpt>
      <trkpt lat="59.4457872196" lon="17.8255345186">
        <ele>113</ele>
        <time>2012-10-08T21:47:07Z</time>
      </trkpt>
      <trkpt lat="59.4462708552" lon="17.8255642744">
        <ele>113</ele>
        <time>2012-10-08T21:47:14Z</time>
      </trkpt>
      <trkpt lat="59.446776619" lon="17.8254807068">
        <ele>113</ele>
        <time>2012-10-08T21:47:21Z</time>
      </trkpt>
      <trkpt lat="59.4469849931" lon="17.8254355284">
        <ele>112.4</ele>
        <time>2012-10-08T21:47:24Z</time>
      </trkpt>
      <trkpt lat="59.4470510424" lon="17.8254129811">
        <ele>112</ele>
        <time>2012-10-08T21:47:25Z</time>
      </trkpt>
      <trkpt lat="59.447116086" lon="17.8253892603">
        <ele>111.6</ele>
        <time>2012-10-08T21:47:26Z</time>
      </trkpt>
      <trkpt lat="59.4471782797" lon="17.8253614324">
        <ele>111.2</ele>
        <time>2012-10-08T21:47:27Z</time>
      </trkpt>
      <trkpt lat="59.4472396352" lon="17.8253267313">
        <ele>110.8</ele>
        <time>2012-10-08T21:47:28Z</time>
      </trkpt>
      <trkpt lat="59.44758564" lon="17.8250750229">
        <ele>110.8</ele>
        <time>2012-10-08T21:47:34Z</time>
      </trkpt>
      <trkpt lat="59.4477052497" lon="17.8249875997">
        <ele>110.8</ele>
        <time>2012-10-08T21:47:36Z</time>
      </trkpt>
      <trkpt lat="59.4478135439" lon="17.8248630446">
        <ele>110.8</ele>
        <time>2012-10-08T21:47:38Z</time>
      </trkpt>
      <trkpt lat="59.4478567107" lon="17.8247689159">
        <ele>110.8</ele>
        <time>2012-10-08T21:47:39Z</time>
      </trkpt>
      <trkpt lat="59.4479414517" lon="17.8245811613">
        <ele>110.8</ele>
        <time>2012-10-08T21:47:41Z</time>
      </trkpt>
      <trkpt lat="59.4480443814" lon="17.8244360706">
        <ele>110.8</ele>
        <time>2012-10-08T21:47:43Z</time>
      </trkpt>
      <trkpt lat="59.4481563636" lon="17.82432895">
        <ele>110.8</ele>
        <time>2012-10-08T21:47:45Z</time>
      </trkpt>
      <trkpt lat="59.4482518334" lon="17.8242043111">
        <ele>110.8</ele>
        <time>2012-10-08T21:47:47Z</time>
      </trkpt>
      <trkpt lat="59.4482872889" lon="17.8241129484">
        <ele>110.8</ele>
        <time>2012-10-08T21:47:48Z</time>
      </trkpt>
      <trkpt lat="59.4483653244" lon="17.8238365133">
        <ele>110.8</ele>
        <time>2012-10-08T21:47:51Z</time>
      </trkpt>
      <trkpt lat="59.4483940743" lon="17.8236521115">
        <ele>110.8</ele>
        <time>2012-10-08T21:47:53Z</time>
      </trkpt>
      <trkpt lat="59.448436822" lon="17.8232345253">
        <ele>110.8</ele>
        <time>2012-10-08T21:47:57Z</time>
      </trkpt>
      <trkpt lat="59.4484877001" lon="17.823161938">
        <ele>110.4</ele>
        <time>2012-10-08T21:47:58Z</time>
      </trkpt>
      <trkpt lat="59.4485572699" lon="17.823126734">
        <ele>109.8</ele>
        <time>2012-10-08T21:47:59Z</time>
      </trkpt>
      <trkpt lat="59.4486268396" lon="17.8231065337">
        <ele>109.4</ele>
        <time>2012-10-08T21:48:00Z</time>
      </trkpt>
      <trkpt lat="59.4486955712" lon="17.8230890993">
        <ele>109</ele>
        <time>2012-10-08T21:48:01Z</time>
      </trkpt>
      <trkpt lat="59.4487508918" lon="17.82308231">
        <ele>108.6</ele>
        <time>2012-10-08T21:48:02Z</time>
      </trkpt>
      <trkpt lat="59.4487835812" lon="17.8230431665">
        <ele>108.6</ele>
        <time>2012-10-08T21:48:03Z</time>
      </trkpt>
      <trkpt lat="59.4488354651" lon="17.8227631272">
        <ele>108</ele>
        <time>2012-10-08T21:48:07Z</time>
      </trkpt>
      <trkpt lat="59.4488409972" lon="17.8226892827">
        <ele>107.6</ele>
        <time>2012-10-08T21:48:08Z</time>
      </trkpt>
      <trkpt lat="59.448844769" lon="17.8226162763">
        <ele>107</ele>
        <time>2012-10-08T21:48:09Z</time>
      </trkpt>
      <trkpt lat="59.4488461102" lon="17.8225394981">
        <ele>107.6</ele>
        <time>2012-10-08T21:48:10Z</time>
      </trkpt>
      <trkpt lat="59.4488379797" lon="17.8224564335">
        <ele>108.2</ele>
        <time>2012-10-08T21:48:11Z</time>
      </trkpt>
      <trkpt lat="59.4488238981" lon="17.8223664957">
        <ele>109</ele>
        <time>2012-10-08T21:48:12Z</time>
      </trkpt>
      <trkpt lat="59.4488125826" lon="17.8222721155">
        <ele>109.6</ele>
        <time>2012-10-08T21:48:13Z</time>
      </trkpt>
      <trkpt lat="59.4487907896" lon="17.822149656">
        <ele>110.2</ele>
        <time>2012-10-08T21:48:14Z</time>
      </trkpt>
      <trkpt lat="59.4487682423" lon="17.8218354185">
        <ele>110.2</ele>
        <time>2012-10-08T21:48:17Z</time>
      </trkpt>
      <trkpt lat="59.4487560047" lon="17.8214144795">
        <ele>110.2</ele>
        <time>2012-10-08T21:48:21Z</time>
      </trkpt>
      <trkpt lat="59.4487594413" lon="17.8211886711">
        <ele>110.2</ele>
        <time>2012-10-08T21:48:23Z</time>
      </trkpt>
      <trkpt lat="59.4487672365" lon="17.8208972325">
        <ele>110.2</ele>
        <time>2012-10-08T21:48:26Z</time>
      </trkpt>
      <trkpt lat="59.4487833297" lon="17.820840487">
        <ele>110.2</ele>
        <time>2012-10-08T21:48:27Z</time>
      </trkpt>
      <trkpt lat="59.448878129" lon="17.8208144193">
        <ele>110.2</ele>
        <time>2012-10-08T21:48:30Z</time>
      </trkpt>
      <trkpt lat="59.4489192003" lon="17.8208234717">
        <ele>110.2</ele>
        <time>2012-10-08T21:48:31Z</time>
      </trkpt>
      <trkpt lat="59.4491540612" lon="17.8208938797">
        <ele>110.2</ele>
        <time>2012-10-08T21:48:36Z</time>
      </trkpt>
      <trkpt lat="59.4493698113" lon="17.8210847356">
        <ele>110.2</ele>
        <time>2012-10-08T21:48:42Z</time>
      </trkpt>
      <trkpt lat="59.4494009081" lon="17.8211224541">
        <ele>110.6</ele>
        <time>2012-10-08T21:48:43Z</time>
      </trkpt>
      <trkpt lat="59.4494335137" lon="17.8211624358">
        <ele>111</ele>
        <time>2012-10-08T21:48:44Z</time>
      </trkpt>
      <trkpt lat="59.4494739983" lon="17.8211977236">
        <ele>111.6</ele>
        <time>2012-10-08T21:48:45Z</time>
      </trkpt>
      <trkpt lat="59.4495221104" lon="17.821226222">
        <ele>112</ele>
        <time>2012-10-08T21:48:46Z</time>
      </trkpt>
      <trkpt lat="59.4495665345" lon="17.8212369509">
        <ele>112.4</ele>
        <time>2012-10-08T21:48:47Z</time>
      </trkpt>
      <trkpt lat="59.4496769241" lon="17.8213200993">
        <ele>112.4</ele>
        <time>2012-10-08T21:48:50Z</time>
      </trkpt>
      <trkpt lat="59.4497195879" lon="17.8213394615">
        <ele>112.4</ele>
        <time>2012-10-08T21:48:51Z</time>
      </trkpt>
      <trkpt lat="59.4497675324" lon="17.8213420599">
        <ele>113.2</ele>
        <time>2012-10-08T21:48:52Z</time>
      </trkpt>
      <trkpt lat="59.4498144711" lon="17.8213532916">
        <ele>113.8</ele>
        <time>2012-10-08T21:48:53Z</time>
      </trkpt>
      <trkpt lat="59.4498546204" lon="17.8213831312">
        <ele>114.2</ele>
        <time>2012-10-08T21:48:54Z</time>
      </trkpt>
      <trkpt lat="59.4498908302" lon="17.8214283935">
        <ele>114.6</ele>
        <time>2012-10-08T21:48:55Z</time>
      </trkpt>
      <trkpt lat="59.4500111104" lon="17.8215325805">
        <ele>114.6</ele>
        <time>2012-10-08T21:48:58Z</time>
      </trkpt>
      <trkpt lat="59.450139605" lon="17.8216538666">
        <ele>114.6</ele>
        <time>2012-10-08T21:49:01Z</time>
      </trkpt>
      <trkpt lat="59.4501851187" lon="17.8216850472">
        <ele>114.6</ele>
        <time>2012-10-08T21:49:02Z</time>
      </trkpt>
      <trkpt lat="59.4502865397" lon="17.8216333309">
        <ele>114.6</ele>
        <time>2012-10-08T21:49:04Z</time>
      </trkpt>
      <trkpt lat="59.4503988571" lon="17.8213677923">
        <ele>114.6</ele>
        <time>2012-10-08T21:49:07Z</time>
      </trkpt>
      <trkpt lat="59.4504261821" lon="17.8212619289">
        <ele>114.6</ele>
        <time>2012-10-08T21:49:08Z</time>
      </trkpt>
      <trkpt lat="59.450448478" lon="17.8211497791">
        <ele>114.6</ele>
        <time>2012-10-08T21:49:09Z</time>
      </trkpt>
      <trkpt lat="59.4504848554" lon="17.8209501222">
        <ele>114.6</ele>
        <time>2012-10-08T21:49:11Z</time>
      </trkpt>
      <trkpt lat="59.4505076542" lon="17.8208531437">
        <ele>114.6</ele>
        <time>2012-10-08T21:49:12Z</time>
      </trkpt>
      <trkpt lat="59.4505740388" lon="17.8205763733">
        <ele>114.6</ele>
        <time>2012-10-08T21:49:15Z</time>
      </trkpt>
      <trkpt lat="59.4506611268" lon="17.8205023611">
        <ele>114.6</ele>
        <time>2012-10-08T21:49:17Z</time>
      </trkpt>
      <trkpt lat="59.4507576024" lon="17.8205104078">
        <ele>114.6</ele>
        <time>2012-10-08T21:49:19Z</time>
      </trkpt>
      <trkpt lat="59.4508948141" lon="17.8205192088">
        <ele>114.6</ele>
        <time>2012-10-08T21:49:22Z</time>
      </trkpt>
      <trkpt lat="59.4509821535" lon="17.8205114974">
        <ele>114.6</ele>
        <time>2012-10-08T21:49:24Z</time>
      </trkpt>
      <trkpt lat="59.4511228018" lon="17.8204735274">
        <ele>115</ele>
        <time>2012-10-08T21:49:27Z</time>
      </trkpt>
      <trkpt lat="59.4511703272" lon="17.8204534947">
        <ele>115.4</ele>
        <time>2012-10-08T21:49:28Z</time>
      </trkpt>
      <trkpt lat="59.4512172658" lon="17.8204343001">
        <ele>115.8</ele>
        <time>2012-10-08T21:49:29Z</time>
      </trkpt>
      <trkpt lat="59.4512656294" lon="17.8204069751">
        <ele>116.2</ele>
        <time>2012-10-08T21:49:30Z</time>
      </trkpt>
      <trkpt lat="59.4513154179" lon="17.8203795663">
        <ele>116.6</ele>
        <time>2012-10-08T21:49:31Z</time>
      </trkpt>
      <trkpt lat="59.4513621889" lon="17.8203446976">
        <ele>116.6</ele>
        <time>2012-10-08T21:49:32Z</time>
      </trkpt>
      <trkpt lat="59.4514981433" lon="17.8202221542">
        <ele>116.6</ele>
        <time>2012-10-08T21:49:35Z</time>
      </trkpt>
      <trkpt lat="59.4515384603" lon="17.8201673366">
        <ele>116.6</ele>
        <time>2012-10-08T21:49:36Z</time>
      </trkpt>
      <trkpt lat="59.4516713134" lon="17.8199678474">
        <ele>116.6</ele>
        <time>2012-10-08T21:49:39Z</time>
      </trkpt>
      <trkpt lat="59.4517742431" lon="17.819880508">
        <ele>116.6</ele>
        <time>2012-10-08T21:49:41Z</time>
      </trkpt>
      <trkpt lat="59.4520066732" lon="17.8198629898">
        <ele>116.6</ele>
        <time>2012-10-08T21:49:45Z</time>
      </trkpt>
      <trkpt lat="59.4522763189" lon="17.8201291151">
        <ele>116.2</ele>
        <time>2012-10-08T21:49:49Z</time>
      </trkpt>
      <trkpt lat="59.4523417815" lon="17.8202395048">
        <ele>115.8</ele>
        <time>2012-10-08T21:49:50Z</time>
      </trkpt>
      <trkpt lat="59.452412441" lon="17.8203505649">
        <ele>115.4</ele>
        <time>2012-10-08T21:49:51Z</time>
      </trkpt>
      <trkpt lat="59.4524829327" lon="17.8204524888">
        <ele>114.8</ele>
        <time>2012-10-08T21:49:52Z</time>
      </trkpt>
      <trkpt lat="59.4525512452" lon="17.8205384033">
        <ele>114.2</ele>
        <time>2012-10-08T21:49:53Z</time>
      </trkpt>
      <trkpt lat="59.4526182166" lon="17.8206138404">
        <ele>113.4</ele>
        <time>2012-10-08T21:49:54Z</time>
      </trkpt>
      <trkpt lat="59.4526890437" lon="17.8206707535">
        <ele>112.6</ele>
        <time>2012-10-08T21:49:55Z</time>
      </trkpt>
      <trkpt lat="59.4527561827" lon="17.8206968212">
        <ele>112</ele>
        <time>2012-10-08T21:49:56Z</time>
      </trkpt>
      <trkpt lat="59.4528263392" lon="17.8207131659">
        <ele>111.2</ele>
        <time>2012-10-08T21:49:57Z</time>
      </trkpt>
      <trkpt lat="59.4528939811" lon="17.8207364676">
        <ele>110.4</ele>
        <time>2012-10-08T21:49:58Z</time>
      </trkpt>
      <trkpt lat="59.4530276724" lon="17.8207856694">
        <ele>110</ele>
        <time>2012-10-08T21:50:00Z</time>
      </trkpt>
      <trkpt lat="59.4530937218" lon="17.820800673">
        <ele>109.6</ele>
        <time>2012-10-08T21:50:01Z</time>
      </trkpt>
      <trkpt lat="59.4531651356" lon="17.8208246452">
        <ele>109.2</ele>
        <time>2012-10-08T21:50:02Z</time>
      </trkpt>
      <trkpt lat="59.453233951" lon="17.8208518864">
        <ele>108.8</ele>
        <time>2012-10-08T21:50:03Z</time>
      </trkpt>
      <trkpt lat="59.4533082146" lon="17.8208996632">
        <ele>108.4</ele>
        <time>2012-10-08T21:50:04Z</time>
      </trkpt>
      <trkpt lat="59.4534495335" lon="17.821059506">
        <ele>108.4</ele>
        <time>2012-10-08T21:50:06Z</time>
      </trkpt>
      <trkpt lat="59.4536024193" lon="17.8214213527">
        <ele>108.4</ele>
        <time>2012-10-08T21:50:09Z</time>
      </trkpt>
      <trkpt lat="59.4536542194" lon="17.8215416329">
        <ele>108.4</ele>
        <time>2012-10-08T21:50:10Z</time>
      </trkpt>
      <trkpt lat="59.4536975539" lon="17.8216556268">
        <ele>108.4</ele>
        <time>2012-10-08T21:50:11Z</time>
      </trkpt>
      <trkpt lat="59.4538121344" lon="17.8219751448">
        <ele>108.4</ele>
        <time>2012-10-08T21:50:14Z</time>
      </trkpt>
      <trkpt lat="59.4539905013" lon="17.8220853668">
        <ele>108.4</ele>
        <time>2012-10-08T21:50:17Z</time>
      </trkpt>
      <trkpt lat="59.4543886415" lon="17.8223040506">
        <ele>108.4</ele>
        <time>2012-10-08T21:50:23Z</time>
      </trkpt>
      <trkpt lat="59.454766749" lon="17.8225143524">
        <ele>108.4</ele>
        <time>2012-10-08T21:50:29Z</time>
      </trkpt>
      <trkpt lat="59.4552405778" lon="17.8227902007">
        <ele>108.4</ele>
        <time>2012-10-08T21:50:36Z</time>
      </trkpt>
      <trkpt lat="59.455471583" lon="17.8229273286">
        <ele>107.8</ele>
        <time>2012-10-08T21:50:39Z</time>
      </trkpt>
      <trkpt lat="59.4555480259" lon="17.8229684838">
        <ele>107.4</ele>
        <time>2012-10-08T21:50:40Z</time>
      </trkpt>
      <trkpt lat="59.4556266482" lon="17.8230119858">
        <ele>107</ele>
        <time>2012-10-08T21:50:41Z</time>
      </trkpt>
      <trkpt lat="59.455702672" lon="17.8230519675">
        <ele>106.6</ele>
        <time>2012-10-08T21:50:42Z</time>
      </trkpt>
      <trkpt lat="59.4557768518" lon="17.8230910271">
        <ele>106.2</ele>
        <time>2012-10-08T21:50:43Z</time>
      </trkpt>
      <trkpt lat="59.4558487685" lon="17.8231287457">
        <ele>106.2</ele>
        <time>2012-10-08T21:50:44Z</time>
      </trkpt>
      <trkpt lat="59.4560540412" lon="17.8232507023">
        <ele>105.8</ele>
        <time>2012-10-08T21:50:47Z</time>
      </trkpt>
      <trkpt lat="59.4561228566" lon="17.82328884">
        <ele>105.4</ele>
        <time>2012-10-08T21:50:48Z</time>
      </trkpt>
      <trkpt lat="59.4561886546" lon="17.8233253851">
        <ele>105</ele>
        <time>2012-10-08T21:50:49Z</time>
      </trkpt>
      <trkpt lat="59.4562554583" lon="17.8233621816">
        <ele>104.6</ele>
        <time>2012-10-08T21:50:50Z</time>
      </trkpt>
      <trkpt lat="59.4563230164" lon="17.8233992296">
        <ele>104.2</ele>
        <time>2012-10-08T21:50:51Z</time>
      </trkpt>
      <trkpt lat="59.4565243496" lon="17.8235119662">
        <ele>104.2</ele>
        <time>2012-10-08T21:50:54Z</time>
      </trkpt>
      <trkpt lat="59.4567126071" lon="17.8234851441">
        <ele>104.2</ele>
        <time>2012-10-08T21:50:57Z</time>
      </trkpt>
      <trkpt lat="59.4567737112" lon="17.8232811286">
        <ele>104.2</ele>
        <time>2012-10-08T21:50:59Z</time>
      </trkpt>
      <trkpt lat="59.456790475" lon="17.8231606807">
        <ele>104.2</ele>
        <time>2012-10-08T21:51:00Z</time>
      </trkpt>
      <trkpt lat="59.4569324644" lon="17.822310337">
        <ele>104.2</ele>
        <time>2012-10-08T21:51:07Z</time>
      </trkpt>
      <trkpt lat="59.457103036" lon="17.821434177">
        <ele>104.2</ele>
        <time>2012-10-08T21:51:14Z</time>
      </trkpt>
      <trkpt lat="59.457282241" lon="17.8205441868">
        <ele>104.2</ele>
        <time>2012-10-08T21:51:21Z</time>
      </trkpt>
      <trkpt lat="59.4573314428" lon="17.820299603">
        <ele>103.6</ele>
        <time>2012-10-08T21:51:23Z</time>
      </trkpt>
      <trkpt lat="59.457357259" lon="17.8201803285">
        <ele>103.2</ele>
        <time>2012-10-08T21:51:24Z</time>
      </trkpt>
      <trkpt lat="59.4573769565" lon="17.8200723697">
        <ele>102.8</ele>
        <time>2012-10-08T21:51:25Z</time>
      </trkpt>
      <trkpt lat="59.4573867633" lon="17.8199763131">
        <ele>102.2</ele>
        <time>2012-10-08T21:51:26Z</time>
      </trkpt>
      <trkpt lat="59.4573783814" lon="17.8198773229">
        <ele>101.8</ele>
        <time>2012-10-08T21:51:27Z</time>
      </trkpt>
      <trkpt lat="59.4573041178" lon="17.8197567073">
        <ele>101.8</ele>
        <time>2012-10-08T21:51:29Z</time>
      </trkpt>
      <trkpt lat="59.4571581889" lon="17.8194733153">
        <ele>101.8</ele>
        <time>2012-10-08T21:51:33Z</time>
      </trkpt>
      <trkpt lat="59.4571227335" lon="17.8193995546">
        <ele>101.8</ele>
        <time>2012-10-08T21:51:34Z</time>
      </trkpt>
      <trkpt lat="59.4570338853" lon="17.8193253747">
        <ele>101.8</ele>
        <time>2012-10-08T21:51:36Z</time>
      </trkpt>
      <trkpt lat="59.4568281935" lon="17.819241891">
        <ele>101.8</ele>
        <time>2012-10-08T21:51:40Z</time>
      </trkpt>
      <trkpt lat="59.4566481503" lon="17.8192457467">
        <ele>101.8</ele>
        <time>2012-10-08T21:51:43Z</time>
      </trkpt>
      <trkpt lat="59.4565914887" lon="17.8192428969">
        <ele>101.8</ele>
        <time>2012-10-08T21:51:44Z</time>
      </trkpt>
      <trkpt lat="59.4564288798" lon="17.8192006521">
        <ele>101.8</ele>
        <time>2012-10-08T21:51:47Z</time>
      </trkpt>
      <trkpt lat="59.4563740622" lon="17.8191712316">
        <ele>101.8</ele>
        <time>2012-10-08T21:51:48Z</time>
      </trkpt>
      <trkpt lat="59.4561554622" lon="17.8190087904">
        <ele>101.8</ele>
        <time>2012-10-08T21:51:52Z</time>
      </trkpt>
      <trkpt lat="59.4561070987" lon="17.8189553139">
        <ele>101.8</ele>
        <time>2012-10-08T21:51:53Z</time>
      </trkpt>
      <trkpt lat="59.4559423105" lon="17.8187208721">
        <ele>101.8</ele>
        <time>2012-10-08T21:51:57Z</time>
      </trkpt>
      <trkpt lat="59.4557044322" lon="17.8183752864">
        <ele>101.8</ele>
        <time>2012-10-08T21:52:03Z</time>
      </trkpt>
      <trkpt lat="59.4554709125" lon="17.8181648169">
        <ele>101.8</ele>
        <time>2012-10-08T21:52:08Z</time>
      </trkpt>
      <trkpt lat="59.4554386421" lon="17.8181246676">
        <ele>101.8</ele>
        <time>2012-10-08T21:52:09Z</time>
      </trkpt>
      <trkpt lat="59.4554271589" lon="17.8179100071">
        <ele>101.8</ele>
        <time>2012-10-08T21:52:12Z</time>
      </trkpt>
      <trkpt lat="59.4554438389" lon="17.8178112683">
        <ele>101.8</ele>
        <time>2012-10-08T21:52:13Z</time>
      </trkpt>
      <trkpt lat="59.4554953038" lon="17.8174472424">
        <ele>101.8</ele>
        <time>2012-10-08T21:52:16Z</time>
      </trkpt>
      <trkpt lat="59.4555332738" lon="17.8170077794">
        <ele>101.4</ele>
        <time>2012-10-08T21:52:19Z</time>
      </trkpt>
      <trkpt lat="59.4555398955" lon="17.816856989">
        <ele>101</ele>
        <time>2012-10-08T21:52:20Z</time>
      </trkpt>
      <trkpt lat="59.4555419071" lon="17.8167176818">
        <ele>100.4</ele>
        <time>2012-10-08T21:52:21Z</time>
      </trkpt>
      <trkpt lat="59.4555393926" lon="17.8165793805">
        <ele>100</ele>
        <time>2012-10-08T21:52:22Z</time>
      </trkpt>
      <trkpt lat="59.4555307592" lon="17.8164437613">
        <ele>99.6</ele>
        <time>2012-10-08T21:52:23Z</time>
      </trkpt>
      <trkpt lat="59.4554805516" lon="17.8160451182">
        <ele>99.6</ele>
        <time>2012-10-08T21:52:26Z</time>
      </trkpt>
      <trkpt lat="59.4554538134" lon="17.8159165398">
        <ele>99.6</ele>
        <time>2012-10-08T21:52:27Z</time>
      </trkpt>
      <trkpt lat="59.4553542364" lon="17.8155475686">
        <ele>99.6</ele>
        <time>2012-10-08T21:52:30Z</time>
      </trkpt>
      <trkpt lat="59.4552891929" lon="17.8153411224">
        <ele>99.6</ele>
        <time>2012-10-08T21:52:32Z</time>
      </trkpt>
      <trkpt lat="59.4552156836" lon="17.8151655216">
        <ele>99.6</ele>
        <time>2012-10-08T21:52:34Z</time>
      </trkpt>
      <trkpt lat="59.4549617958" lon="17.8145175169">
        <ele>99.6</ele>
        <time>2012-10-08T21:52:41Z</time>
      </trkpt>
      <trkpt lat="59.4546604665" lon="17.8136965098">
        <ele>99.6</ele>
        <time>2012-10-08T21:52:50Z</time>
      </trkpt>
      <trkpt lat="59.4546422778" lon="17.8136024649">
        <ele>99.6</ele>
        <time>2012-10-08T21:52:51Z</time>
      </trkpt>
      <trkpt lat="59.4546739614" lon="17.8134323123">
        <ele>99.6</ele>
        <time>2012-10-08T21:52:53Z</time>
      </trkpt>
      <trkpt lat="59.4547097521" lon="17.8133760698">
        <ele>99</ele>
        <time>2012-10-08T21:52:54Z</time>
      </trkpt>
      <trkpt lat="59.4547439503" lon="17.8133199949">
        <ele>98.6</ele>
        <time>2012-10-08T21:52:55Z</time>
      </trkpt>
      <trkpt lat="59.4547611332" lon="17.8132486649">
        <ele>98.2</ele>
        <time>2012-10-08T21:52:56Z</time>
      </trkpt>
      <trkpt lat="59.4547507396" lon="17.8131702941">
        <ele>97.8</ele>
        <time>2012-10-08T21:52:57Z</time>
      </trkpt>
      <trkpt lat="59.4547234984" lon="17.813090247">
        <ele>97.4</ele>
        <time>2012-10-08T21:52:58Z</time>
      </trkpt>
      <trkpt lat="59.4546612209" lon="17.8129329187">
        <ele>97.4</ele>
        <time>2012-10-08T21:53:00Z</time>
      </trkpt>
      <trkpt lat="59.4545205726" lon="17.8125951281">
        <ele>97.4</ele>
        <time>2012-10-08T21:53:04Z</time>
      </trkpt>
      <trkpt lat="59.4543248553" lon="17.812041336">
        <ele>97.4</ele>
        <time>2012-10-08T21:53:10Z</time>
      </trkpt>
      <trkpt lat="59.4540763319" lon="17.811409676">
        <ele>97.4</ele>
        <time>2012-10-08T21:53:17Z</time>
      </trkpt>
      <trkpt lat="59.4538096199" lon="17.8106773494">
        <ele>97.4</ele>
        <time>2012-10-08T21:53:25Z</time>
      </trkpt>
      <trkpt lat="59.4536242961" lon="17.8101367169">
        <ele>97.4</ele>
        <time>2012-10-08T21:53:31Z</time>
      </trkpt>
      <trkpt lat="59.453504854" lon="17.8097857667">
        <ele>97.4</ele>
        <time>2012-10-08T21:53:35Z</time>
      </trkpt>
      <trkpt lat="59.4534949633" lon="17.8096821664">
        <ele>97.4</ele>
        <time>2012-10-08T21:53:36Z</time>
      </trkpt>
      <trkpt lat="59.4535377949" lon="17.8094733733">
        <ele>97.4</ele>
        <time>2012-10-08T21:53:38Z</time>
      </trkpt>
      <trkpt lat="59.4536243799" lon="17.8092982754">
        <ele>97.4</ele>
        <time>2012-10-08T21:53:40Z</time>
      </trkpt>
      <trkpt lat="59.4537207717" lon="17.8091344093">
        <ele>97.4</ele>
        <time>2012-10-08T21:53:42Z</time>
      </trkpt>
      <trkpt lat="59.4539252063" lon="17.8088443955">
        <ele>97.4</ele>
        <time>2012-10-08T21:53:46Z</time>
      </trkpt>
      <trkpt lat="59.4539684569" lon="17.8087722274">
        <ele>97.4</ele>
        <time>2012-10-08T21:53:47Z</time>
      </trkpt>
      <trkpt lat="59.4540611607" lon="17.8085697207">
        <ele>97.4</ele>
        <time>2012-10-08T21:53:50Z</time>
      </trkpt>
      <trkpt lat="59.4540686206" lon="17.8084952056">
        <ele>97.4</ele>
        <time>2012-10-08T21:53:51Z</time>
      </trkpt>
      <trkpt lat="59.4540089415" lon="17.8083359495">
        <ele>97.4</ele>
        <time>2012-10-08T21:53:53Z</time>
      </trkpt>
      <trkpt lat="59.4538635993" lon="17.8080683992">
        <ele>97.4</ele>
        <time>2012-10-08T21:53:56Z</time>
      </trkpt>
      <trkpt lat="59.4538097037" lon="17.8079855861">
        <ele>97.4</ele>
        <time>2012-10-08T21:53:57Z</time>
      </trkpt>
      <trkpt lat="59.4536931115" lon="17.8078508051">
        <ele>97.4</ele>
        <time>2012-10-08T21:53:59Z</time>
      </trkpt>
      <trkpt lat="59.4535174268" lon="17.8074432771">
        <ele>97.4</ele>
        <time>2012-10-08T21:54:03Z</time>
      </trkpt>
      <trkpt lat="59.4534879226" lon="17.8073266011">
        <ele>97.4</ele>
        <time>2012-10-08T21:54:04Z</time>
      </trkpt>
      <trkpt lat="59.4534072049" lon="17.8069965219">
        <ele>97.4</ele>
        <time>2012-10-08T21:54:07Z</time>
      </trkpt>
      <trkpt lat="59.4533942129" lon="17.8068900717">
        <ele>97.4</ele>
        <time>2012-10-08T21:54:08Z</time>
      </trkpt>
      <trkpt lat="59.4534761879" lon="17.806595867">
        <ele>97.4</ele>
        <time>2012-10-08T21:54:11Z</time>
      </trkpt>
      <trkpt lat="59.4535201929" lon="17.8065154846">
        <ele>97.4</ele>
        <time>2012-10-08T21:54:12Z</time>
      </trkpt>
      <trkpt lat="59.4537951192" lon="17.8060590063">
        <ele>97.4</ele>
        <time>2012-10-08T21:54:18Z</time>
      </trkpt>
      <trkpt lat="59.4541307305" lon="17.8055090699">
        <ele>97.4</ele>
        <time>2012-10-08T21:54:25Z</time>
      </trkpt>
      <trkpt lat="59.4544807586" lon="17.8049284557">
        <ele>97.4</ele>
        <time>2012-10-08T21:54:32Z</time>
      </trkpt>
      <trkpt lat="59.4546768951" lon="17.8046340833">
        <ele>97.4</ele>
        <time>2012-10-08T21:54:36Z</time>
      </trkpt>
      <trkpt lat="59.4547985164" lon="17.8045254539">
        <ele>97.4</ele>
        <time>2012-10-08T21:54:38Z</time>
      </trkpt>
      <trkpt lat="59.4550487162" lon="17.8044075206">
        <ele>97.4</ele>
        <time>2012-10-08T21:54:42Z</time>
      </trkpt>
      <trkpt lat="59.4551059645" lon="17.8043964565">
        <ele>97.4</ele>
        <time>2012-10-08T21:54:43Z</time>
      </trkpt>
      <trkpt lat="59.4552177791" lon="17.8044036649">
        <ele>97.4</ele>
        <time>2012-10-08T21:54:45Z</time>
      </trkpt>
      <trkpt lat="59.4553219661" lon="17.8044231947">
        <ele>97.4</ele>
        <time>2012-10-08T21:54:47Z</time>
      </trkpt>
      <trkpt lat="59.4554939627" lon="17.8045160662">
        <ele>97.8</ele>
        <time>2012-10-08T21:54:50Z</time>
      </trkpt>
      <trkpt lat="59.4555568269" lon="17.8045641783">
        <ele>98.2</ele>
        <time>2012-10-08T21:54:51Z</time>
      </trkpt>
      <trkpt lat="59.4556195235" lon="17.804618493">
        <ele>98.6</ele>
        <time>2012-10-08T21:54:52Z</time>
      </trkpt>
      <trkpt lat="59.4556830583" lon="17.8046770825">
        <ele>99.2</ele>
        <time>2012-10-08T21:54:53Z</time>
      </trkpt>
      <trkpt lat="59.4557398038" lon="17.804726871">
        <ele>99.6</ele>
        <time>2012-10-08T21:54:54Z</time>
      </trkpt>
      <trkpt lat="59.4558990599" lon="17.8048764879">
        <ele>100</ele>
        <time>2012-10-08T21:54:57Z</time>
      </trkpt>
      <trkpt lat="59.4559520335" lon="17.8049221692">
        <ele>100.4</ele>
        <time>2012-10-08T21:54:58Z</time>
      </trkpt>
      <trkpt lat="59.4560074379" lon="17.8049635758">
        <ele>100.8</ele>
        <time>2012-10-08T21:54:59Z</time>
      </trkpt>
      <trkpt lat="59.456066195" lon="17.805003809">
        <ele>101.2</ele>
        <time>2012-10-08T21:55:00Z</time>
      </trkpt>
      <trkpt lat="59.4561233596" lon="17.8050414437">
        <ele>101.6</ele>
        <time>2012-10-08T21:55:01Z</time>
      </trkpt>
      <trkpt lat="59.4564634132" lon="17.8052889612">
        <ele>101.6</ele>
        <time>2012-10-08T21:55:07Z</time>
      </trkpt>
      <trkpt lat="59.4568116812" lon="17.8055332098">
        <ele>101.6</ele>
        <time>2012-10-08T21:55:13Z</time>
      </trkpt>
      <trkpt lat="59.4569917244" lon="17.805637732">
        <ele>101.6</ele>
        <time>2012-10-08T21:55:16Z</time>
      </trkpt>
      <trkpt lat="59.4571084843" lon="17.805554416">
        <ele>101.6</ele>
        <time>2012-10-08T21:55:18Z</time>
      </trkpt>
      <trkpt lat="59.4572496355" lon="17.8053132687">
        <ele>101.6</ele>
        <time>2012-10-08T21:55:21Z</time>
      </trkpt>
      <trkpt lat="59.4572918802" lon="17.8052339759">
        <ele>101.6</ele>
        <time>2012-10-08T21:55:22Z</time>
      </trkpt>
      <trkpt lat="59.4574222188" lon="17.8050039766">
        <ele>101.6</ele>
        <time>2012-10-08T21:55:25Z</time>
      </trkpt>
      <trkpt lat="59.4574704985" lon="17.8049362508">
        <ele>102</ele>
        <time>2012-10-08T21:55:26Z</time>
      </trkpt>
      <trkpt lat="59.4575209576" lon="17.8048687765">
        <ele>102.6</ele>
        <time>2012-10-08T21:55:27Z</time>
      </trkpt>
      <trkpt lat="59.4575680638" lon="17.8047997935">
        <ele>103</ele>
        <time>2012-10-08T21:55:28Z</time>
      </trkpt>
      <trkpt lat="59.4576171818" lon="17.8047337441">
        <ele>103.4</ele>
        <time>2012-10-08T21:55:29Z</time>
      </trkpt>
      <trkpt lat="59.4576687305" lon="17.8046758252">
        <ele>103.8</ele>
        <time>2012-10-08T21:55:30Z</time>
      </trkpt>
      <trkpt lat="59.4578932816" lon="17.804462422">
        <ele>103.8</ele>
        <time>2012-10-08T21:55:34Z</time>
      </trkpt>
      <trkpt lat="59.4579548885" lon="17.8044229433">
        <ele>103.8</ele>
        <time>2012-10-08T21:55:35Z</time>
      </trkpt>
      <trkpt lat="59.4581532043" lon="17.8043815367">
        <ele>103.8</ele>
        <time>2012-10-08T21:55:38Z</time>
      </trkpt>
      <trkpt lat="59.4583476644" lon="17.804375837">
        <ele>103.4</ele>
        <time>2012-10-08T21:55:41Z</time>
      </trkpt>
      <trkpt lat="59.4584074273" lon="17.8043838836">
        <ele>103</ele>
        <time>2012-10-08T21:55:42Z</time>
      </trkpt>
      <trkpt lat="59.4584631669" lon="17.8043902539">
        <ele>102.6</ele>
        <time>2012-10-08T21:55:43Z</time>
      </trkpt>
      <trkpt lat="59.45851547" lon="17.8043963727">
        <ele>102.2</ele>
        <time>2012-10-08T21:55:44Z</time>
      </trkpt>
      <trkpt lat="59.4585664319" lon="17.8044015694">
        <ele>101.8</ele>
        <time>2012-10-08T21:55:45Z</time>
      </trkpt>
      <trkpt lat="59.4587151268" lon="17.8043998931">
        <ele>101.8</ele>
        <time>2012-10-08T21:55:48Z</time>
      </trkpt>
      <trkpt lat="59.458759048" lon="17.8043825425">
        <ele>101.8</ele>
        <time>2012-10-08T21:55:49Z</time>
      </trkpt>
      <trkpt lat="59.4588423641" lon="17.804333676">
        <ele>101.8</ele>
        <time>2012-10-08T21:55:51Z</time>
      </trkpt>
      <trkpt lat="59.4588791606" lon="17.8042952869">
        <ele>101.8</ele>
        <time>2012-10-08T21:55:53Z</time>
      </trkpt>
    </trkseg>
  </trk>
</gpx>